[[{"header":{"parameterUnit":"m.s-1","parameterCategory":1,"la1":30.6,"la2":29.2853,"lo1":-89.7004,"lo2":-87.6739,"dy":0.0162,"dx":0.0183,"nx":112,"ny":82,"refTime":"2023-05-30T06:00:00:Z","depth":0,"parameterNumber":2,"parameterNumberName":"U-component_of_WINDS"},"data":[0.0,0.0,0.0,0.0,0.0,0.0,0.0,0.0,0.0,0.0,0.0,0.0,0.0,0.0,0.0,0.0,0.0,0.0,0.0,0.0,0.0,0.0,0.0,0.0,0.0,0.0,0.0,0.0,0.0,0.0,0.0,0.0,0.0,0.0,0.0,0.0,0.0,0.0,0.0,0.0,0.0,0.0,0.0,0.0,0.0,0.0,0.0,0.0,0.0,0.0,0.0,0.0,0.0,0.0,0.0,0.0,0.0,0.0,0.0,0.0,0.0,0.0,0.0,0.0,0.0,0.0,0.0,0.0,0.0,0.0,0.0,0.0,0.0,0.0,0.0,0.0,0.0,0.0,0.0,0.0,0.0,0.0,0.0,0.0,0.0,0.0,0.0,0.0,0.0,0.0,2.1547,2.2662,2.3215,2.3352,2.2987,2.3165,2.321,2.3017,0.0,0.0,0.0,0.0,0.0,0.0,0.0,0.0,0.0,0.0,0.0,0.0,0.0,0.0,0.0,0.0,0.0,0.0,0.0,0.0,0.0,0.0,0.0,0.0,0.0,0.0,0.0,0.0,0.0,0.0,0.0,0.0,0.0,0.0,0.0,0.0,0.0,0.0,0.0,0.0,0.0,0.0,0.0,0.0,0.0,0.0,0.0,0.0,0.0,0.0,0.0,0.0,0.0,0.0,0.0,0.0,0.0,0.0,0.0,0.0,0.0,0.0,0.0,0.0,0.0,0.0,0.0,0.0,0.0,0.0,0.0,0.0,0.0,0.0,0.0,0.0,0.0,0.0,0.0,0.0,0.0,0.0,0.0,0.0,0.0,0.0,0.0,0.0,0.0,0.0,0.0,0.0,0.0,0.0,0.0,0.0,0.0,0.0,0.0,0.0,0.0,0.0,0.0,0.0,2.2086,2.2278,2.2726,2.282,2.2371,2.2632,2.3,2.3471,0.0,0.0,0.0,0.0,0.0,0.0,0.0,0.0,0.0,0.0,0.0,0.0,0.0,0.0,0.0,0.0,0.0,0.0,0.0,0.0,0.0,0.0,0.0,0.0,0.0,0.0,0.0,0.0,0.0,0.0,0.0,0.0,0.0,0.0,0.0,0.0,0.0,0.0,0.0,0.0,0.0,0.0,0.0,0.0,0.0,0.0,0.0,0.0,0.0,0.0,0.0,0.0,0.0,0.0,0.0,0.0,0.0,0.0,0.0,0.0,0.0,0.0,0.0,0.0,0.0,0.0,0.0,0.0,0.0,0.0,0.0,0.0,0.0,0.0,0.0,0.0,0.0,0.0,0.0,0.0,0.0,0.0,0.0,0.0,0.0,0.0,0.0,0.0,0.0,0.0,0.0,0.0,0.0,0.0,0.0,0.0,0.0,0.0,0.0,0.0,0.0,0.0,0.0,2.2442,2.2959,2.2959,2.3617,2.3956,2.3736,2.3558,2.3573,2.3855,2.3704,0.0,0.0,0.0,0.0,0.0,0.0,0.0,0.0,0.0,0.0,0.0,0.0,0.0,0.0,0.0,0.0,0.0,0.0,0.0,0.0,0.0,0.0,0.0,0.0,0.0,0.0,0.0,0.0,0.0,0.0,0.0,0.0,0.0,0.0,0.0,0.0,0.0,0.0,0.0,0.0,0.0,0.0,0.0,0.0,0.0,0.0,0.0,0.0,0.0,0.0,0.0,0.0,0.0,0.0,0.0,0.0,0.0,0.0,0.0,0.0,0.0,0.0,0.0,0.0,0.0,0.0,0.0,0.0,0.0,0.0,0.0,0.0,0.0,0.0,0.0,0.0,0.0,0.0,0.0,0.0,0.0,0.0,0.0,0.0,0.0,0.0,0.0,0.0,0.0,0.0,0.0,0.0,0.0,0.0,0.0,0.0,0.0,0.0,0.0,0.0,0.0,0.0,2.2573,2.3252,2.316,2.4031,2.4549,2.4363,2.3985,2.384,2.4016,2.3763,0.0,0.0,0.0,0.0,0.0,0.0,0.0,0.0,0.0,0.0,0.0,0.0,0.0,0.0,0.0,0.0,0.0,0.0,0.0,0.0,0.0,0.0,0.0,0.0,0.0,0.0,0.0,0.0,0.0,0.0,0.0,0.0,0.0,0.0,0.0,0.0,0.0,0.0,0.0,0.0,0.0,0.0,0.0,0.0,0.0,0.0,0.0,0.0,0.0,0.0,0.0,0.0,0.0,0.0,0.0,0.0,0.0,0.0,0.0,0.0,0.0,0.0,0.0,0.0,0.0,0.0,0.0,0.0,0.0,0.0,0.0,0.0,0.0,0.0,0.0,0.0,0.0,0.0,0.0,0.0,0.0,0.0,0.0,0.0,0.0,0.0,0.0,0.0,0.0,0.0,0.0,0.0,0.0,0.0,0.0,0.0,0.0,0.0,0.0,0.0,0.0,0.0,2.1912,2.2255,2.1858,2.2851,2.321,2.2463,2.2647,2.3093,2.3771,2.3677,0.0,0.0,0.0,0.0,0.0,0.0,0.0,0.0,0.0,0.0,0.0,0.0,0.0,0.0,0.0,0.0,0.0,0.0,0.0,0.0,0.0,0.0,0.0,0.0,0.0,0.0,0.0,0.0,0.0,0.0,0.0,0.0,0.0,0.0,0.0,0.0,0.0,0.0,0.0,0.0,0.0,0.0,0.0,0.0,0.0,0.0,0.0,0.0,0.0,0.0,0.0,0.0,0.0,0.0,0.0,0.0,0.0,0.0,0.0,0.0,0.0,0.0,0.0,0.0,0.0,0.0,0.0,0.0,0.0,0.0,0.0,0.0,0.0,0.0,0.0,0.0,0.0,0.0,0.0,0.0,0.0,0.0,0.0,0.0,0.0,0.0,0.0,0.0,0.0,0.0,0.0,0.0,0.0,0.0,0.0,0.0,0.0,0.0,0.0,0.0,0.0,0.0,2.2298,2.2801,2.316,2.384,2.4131,2.3783,2.3531,2.3666,2.4326,0.0,0.0,0.0,0.0,0.0,0.0,0.0,0.0,0.0,0.0,0.0,0.0,0.0,0.0,0.0,0.0,0.0,0.0,0.0,0.0,0.0,0.0,0.0,0.0,0.0,0.0,0.0,0.0,0.0,0.0,0.0,0.0,0.0,0.0,0.0,0.0,0.0,0.0,0.0,0.0,0.0,0.0,0.0,0.0,0.0,0.0,0.0,0.0,0.0,0.0,0.0,0.0,0.0,0.0,0.0,0.0,0.0,0.0,0.0,0.0,0.0,0.0,0.0,0.0,0.0,0.0,0.0,0.0,0.0,0.0,0.0,0.0,0.0,0.0,0.0,0.0,0.0,0.0,0.0,0.0,0.0,0.0,0.0,0.0,0.0,0.0,0.0,0.0,0.0,0.0,0.0,0.0,0.0,0.0,0.0,0.0,0.0,0.0,0.0,0.0,0.0,0.0,2.1223,2.1807,2.2439,2.3175,2.352,2.3756,2.3875,2.3463,2.3418,2.3936,0.0,0.0,0.0,0.0,0.0,0.0,0.0,0.0,0.0,0.0,0.0,0.0,0.0,0.0,0.0,0.0,0.0,0.0,0.0,0.0,0.0,0.0,0.0,0.0,0.0,0.0,0.0,0.0,0.0,0.0,0.0,0.0,0.0,0.0,0.0,0.0,0.0,0.0,0.0,0.0,0.0,0.0,0.0,0.0,0.0,0.0,0.0,0.0,0.0,0.0,0.0,0.0,0.0,0.0,0.0,0.0,0.0,0.0,0.0,0.0,0.0,0.0,0.0,0.0,0.0,0.0,0.0,0.0,0.0,0.0,0.0,0.0,0.0,0.0,0.0,0.0,0.0,0.0,0.0,0.0,0.0,0.0,0.0,0.0,0.0,0.0,0.0,0.0,0.0,0.0,0.0,0.0,0.0,0.0,0.0,0.0,0.0,0.0,0.0,0.0,0.0,0.0,1.9605,2.0193,2.081,2.1356,2.1404,2.1596,2.2067,2.1986,2.2048,0.0,0.0,0.0,0.0,0.0,0.0,0.0,0.0,0.0,0.0,0.0,0.0,0.0,0.0,0.0,0.0,0.0,0.0,0.0,0.0,0.0,0.0,0.0,0.0,0.0,0.0,0.0,0.0,0.0,0.0,0.0,0.0,0.0,0.0,0.0,0.0,0.0,0.0,0.0,0.0,0.0,0.0,0.0,0.0,0.0,0.0,0.0,0.0,0.0,0.0,0.0,0.0,0.0,0.0,0.0,0.0,0.0,0.0,0.0,0.0,0.0,0.0,0.0,0.0,0.0,0.0,0.0,0.0,0.0,0.0,0.0,0.0,0.0,0.0,0.0,0.0,0.0,0.0,0.0,0.0,0.0,0.0,0.0,0.0,0.0,0.0,0.0,0.0,0.0,0.0,0.0,0.0,0.0,0.0,0.0,0.0,0.0,0.0,0.0,0.0,0.0,0.0,0.0,2.0231,2.0489,2.0926,2.1803,2.1881,2.1912,2.197,2.1924,2.2267,2.3122,0.0,0.0,0.0,0.0,0.0,0.0,0.0,0.0,0.0,0.0,0.0,0.0,0.0,0.0,0.0,0.0,0.0,0.0,0.0,0.0,0.0,0.0,0.0,0.0,0.0,0.0,0.0,0.0,0.0,0.0,0.0,0.0,0.0,0.0,0.0,0.0,0.0,0.0,0.0,0.0,0.0,0.0,0.0,0.0,0.0,0.0,0.0,0.0,0.0,0.0,0.0,0.0,0.0,0.0,0.0,0.0,0.0,0.0,0.0,0.0,0.0,0.0,0.0,0.0,0.0,0.0,0.0,0.0,0.0,0.0,0.0,0.0,0.0,0.0,0.0,0.0,0.0,0.0,0.0,0.0,0.0,0.0,0.0,0.0,0.0,0.0,0.0,0.0,0.0,0.0,0.0,0.0,0.0,0.0,0.0,0.0,0.0,0.0,0.0,0.0,0.0,0.0,1.9835,1.9955,2.036,2.1279,2.1148,2.1085,2.1365,2.1254,2.151,2.2292,0.0,0.0,0.0,0.0,0.0,0.0,0.0,0.0,0.0,0.0,0.0,0.0,0.0,0.0,0.0,0.0,0.0,0.0,0.0,0.0,0.0,0.0,0.0,0.0,0.0,0.0,0.0,0.0,0.0,0.0,0.0,0.0,0.0,0.0,0.0,0.0,0.0,0.0,0.0,0.0,0.0,0.0,0.0,0.0,0.0,0.0,0.0,0.0,0.0,0.0,0.0,0.0,0.0,0.0,0.0,0.0,0.0,0.0,0.0,0.0,0.0,0.0,0.0,0.0,0.0,0.0,0.0,0.0,0.0,0.0,0.0,0.0,0.0,0.0,0.0,0.0,0.0,0.0,0.0,0.0,0.0,0.0,0.0,0.0,0.0,0.0,0.0,0.0,0.0,0.0,0.0,0.0,0.0,0.0,0.0,0.0,0.0,0.0,0.0,0.0,0.0,0.0,1.8758,1.8925,1.932,2.0058,1.9584,1.9561,2.0365,2.015,2.0156,2.0555,0.0,0.0,0.0,0.0,0.0,0.0,0.0,0.0,0.0,0.0,0.0,0.0,0.0,0.0,0.0,0.0,0.0,0.0,0.0,0.0,0.0,0.0,0.0,0.0,0.0,0.0,0.0,0.0,0.0,0.0,0.0,0.0,0.0,0.0,0.0,0.0,0.0,0.0,0.0,0.0,0.0,0.0,0.0,0.0,0.0,0.0,0.0,0.0,0.0,0.0,0.0,0.0,0.0,0.0,0.0,0.0,0.0,0.0,0.0,0.0,1.3145,1.3156,0.0,0.0,0.0,0.0,0.0,0.0,0.0,0.0,0.0,0.0,0.0,0.0,0.0,0.0,0.0,0.0,0.0,0.0,0.0,0.0,0.0,0.0,0.0,0.0,0.0,0.0,0.0,0.0,0.0,0.0,0.0,0.0,0.0,0.0,0.0,0.0,0.0,0.0,0.0,0.0,1.8421,1.8539,1.868,1.8867,1.8761,1.8804,1.9154,1.9115,1.9458,2.03,2.0069,0.0,0.0,0.0,0.0,0.0,0.0,0.0,0.0,0.0,0.0,0.0,0.0,0.0,0.0,0.0,0.0,0.0,0.0,0.0,0.0,0.0,0.0,0.0,0.0,0.0,0.0,0.0,0.0,0.0,0.0,0.0,0.0,0.0,0.0,0.0,0.0,0.0,0.0,0.0,0.0,0.0,0.0,0.0,0.0,0.0,0.0,0.0,0.0,0.0,0.0,0.0,0.0,0.0,0.0,0.0,0.0,0.0,0.0,0.0,1.2709,1.2863,0.0,0.0,0.0,0.0,0.0,0.0,0.0,0.0,0.0,0.0,0.0,0.0,0.0,0.0,0.0,0.0,0.0,0.0,0.0,0.0,0.0,0.0,0.0,0.0,0.0,0.0,0.0,0.0,0.0,0.0,0.0,0.0,0.0,0.0,0.0,0.0,0.0,0.0,0.0,0.0,1.7801,1.7893,1.7969,1.7976,1.784,1.7772,1.7884,1.7893,1.8135,1.8729,1.8536,0.0,0.0,0.0,0.0,0.0,0.0,0.0,0.0,0.0,0.0,0.0,0.0,0.0,0.0,0.0,0.0,0.0,0.0,0.0,0.0,0.0,0.0,0.0,0.0,0.0,0.0,0.0,0.0,0.0,0.0,0.0,0.0,0.0,0.0,0.0,0.0,0.0,0.0,0.0,0.0,0.0,0.0,0.0,0.0,0.0,0.0,0.0,0.0,0.0,0.0,0.0,0.0,0.0,1.2342,1.2342,1.2305,1.2305,1.2305,1.2305,1.2305,1.2581,1.3028,1.2709,0.0,0.0,0.0,0.0,0.0,0.0,0.0,0.0,0.0,0.0,0.0,0.0,0.0,0.0,0.0,0.0,0.0,0.0,0.0,0.0,0.0,0.0,1.7465,1.7802,1.7933,1.8008,1.8079,0.0,0.0,0.0,0.0,0.0,0.0,0.0,0.0,0.0,0.0,0.0,1.7235,1.7268,1.7293,1.7215,1.6914,1.6689,1.6655,1.6655,1.6715,1.6852,1.6869,1.7346,0.0,0.0,0.0,0.0,0.0,0.0,0.0,0.0,0.0,0.0,0.0,0.0,0.0,0.0,0.0,0.0,0.0,0.0,0.0,0.0,0.0,0.0,0.0,0.0,0.0,0.0,0.0,0.0,0.0,0.0,0.0,0.0,1.271,1.2552,0.0,0.0,0.0,0.0,0.0,0.0,0.0,0.0,0.0,0.0,0.0,0.0,0.0,1.2305,1.2305,1.247,1.247,1.2305,1.2489,1.247,1.2305,1.2305,1.2305,1.2305,1.2305,0.0,1.2434,1.2544,0.0,0.0,0.0,0.0,0.0,0.0,0.0,0.0,0.0,0.0,0.0,0.0,0.0,0.0,0.0,0.0,0.0,0.0,0.0,0.0,0.0,0.0,1.6901,1.6958,1.7287,1.7676,1.8029,1.8096,1.8165,1.8397,1.8026,1.7694,0.0,0.0,0.0,0.0,0.0,0.0,1.7218,1.7055,1.6838,1.6481,1.6158,1.5877,1.571,1.5675,1.5745,1.5877,1.5877,1.5947,1.614,1.6526,0.0,0.0,0.0,0.0,0.0,0.0,0.0,0.0,0.0,0.0,0.0,0.0,0.0,0.0,0.0,0.0,0.0,0.0,0.0,0.0,0.0,0.0,0.0,0.0,0.0,0.0,0.0,0.0,0.0,1.2787,1.2862,1.2745,1.2881,1.2895,0.0,0.0,0.0,0.0,0.0,0.0,0.0,0.0,0.0,1.2139,1.2243,1.2305,1.2305,1.2397,1.2397,1.2305,1.2397,1.2484,1.2589,1.2589,1.2664,1.2812,1.2812,1.2812,1.2799,1.2739,1.2823,1.2985,0.0,0.0,0.0,0.0,1.3536,1.3575,1.3814,1.3949,1.4094,1.4289,0.0,0.0,0.0,0.0,0.0,0.0,0.0,1.6281,1.6802,1.704,1.7189,1.7426,1.7622,1.783,1.8006,1.8253,1.8527,1.8837,1.8335,1.7784,1.7651,1.7495,0.0,0.0,0.0,1.6968,1.649,1.6342,1.6079,1.5569,1.5206,1.4883,1.4579,1.4543,1.4471,1.4312,1.441,1.4614,1.496,1.5226,1.574,0.0,0.0,0.0,0.0,0.0,0.0,0.0,0.0,0.0,0.0,0.0,0.0,0.0,0.0,0.0,0.0,0.0,0.0,0.0,0.0,0.0,0.0,0.0,0.0,0.0,0.0,0.0,0.0,1.2951,1.3078,1.2927,1.3028,1.2991,0.0,0.0,0.0,0.0,0.0,0.0,1.2003,1.2132,1.2169,1.2077,1.2231,1.2338,1.2437,1.2437,1.2458,1.2532,1.2532,1.2671,1.2904,1.2904,1.3012,1.3193,1.3193,1.3233,1.328,1.3006,1.3109,1.3417,1.3326,1.33,1.334,1.3526,1.3599,1.3638,1.3916,1.4094,1.4254,1.4392,1.4567,1.4753,1.4845,0.0,0.0,0.0,0.0,1.6443,1.6996,1.7188,1.729,1.7595,1.7749,1.7858,1.7858,1.8052,1.8362,1.8752,1.8437,1.7947,1.7425,1.7252,0.0,1.6052,1.6315,1.642,1.5868,1.5674,1.5383,1.4875,1.4436,1.4036,1.3681,1.3608,1.3419,1.3065,1.3193,1.344,1.3844,1.405,1.469,1.5799,0.0,0.0,0.0,0.0,0.0,0.0,0.0,0.0,0.0,0.0,0.0,0.0,0.0,0.0,0.0,0.0,0.0,0.0,0.0,0.0,0.0,0.0,0.0,0.0,0.0,0.0,0.0,0.0,0.0,1.2955,1.2918,0.0,0.0,0.0,0.0,1.2021,1.2021,1.2003,1.2003,1.2003,1.2095,1.2286,1.228,1.2457,1.2776,1.2764,1.2892,1.314,1.314,1.3153,1.3186,1.3186,1.32,1.3193,1.3193,1.3347,1.356,1.3287,1.32,1.324,1.3473,1.358,1.36,1.3804,1.3886,1.3947,1.4406,1.4568,1.4659,1.5174,1.5338,1.5359,1.5359,1.5394,0.0,0.0,1.592,1.617,1.6402,1.6587,1.673,1.6751,1.7106,1.7432,1.7432,1.7199,1.7108,1.7512,1.7871,1.7851,1.707,0.0,1.6351,1.6272,1.6035,1.5833,1.5798,1.5294,1.4849,1.4633,1.3974,1.3455,1.3255,1.3065,1.2856,1.2636,1.2636,1.2569,1.241,1.3149,1.3581,1.3654,1.4405,0.0,0.0,0.0,0.0,0.0,0.0,0.0,0.0,0.0,0.0,0.0,0.0,0.0,0.0,0.0,0.0,0.0,0.0,0.0,0.0,0.0,0.0,0.0,0.0,0.0,0.0,0.0,0.0,1.2955,1.29,0.0,1.2618,1.2415,1.2268,1.2206,1.2194,1.2194,1.2194,1.2194,1.2311,1.2604,1.2623,1.2751,1.3039,1.3066,1.31,1.3193,1.3193,1.3287,1.3467,1.3467,1.3574,1.3774,1.3774,1.3834,1.39,1.3814,1.3774,1.3781,1.3888,1.4005,1.4116,1.4206,1.431,1.4435,1.4621,1.4787,1.4981,1.5311,1.541,1.541,1.541,1.541,1.5444,1.5637,1.5782,1.5906,1.6141,1.6368,1.6517,1.6517,1.673,1.6899,1.6665,1.6771,1.6726,1.613,1.6524,1.6867,1.6617,1.6421,1.6237,1.6017,1.5868,1.571,1.5453,1.5117,1.4742,1.431,1.3811,1.3364,1.3046,1.2826,1.2562,1.2224,1.2206,1.2114,1.191,1.2686,1.3173,1.3298,1.4111,1.4489,0.0,0.0,0.0,0.0,0.0,0.0,0.0,0.0,0.0,0.0,0.0,0.0,0.0,0.0,0.0,0.0,0.0,0.0,0.0,0.0,0.0,0.0,0.0,0.0,0.0,1.3419,1.3346,1.2955,1.2955,1.2918,1.2709,1.2526,1.2397,1.2397,1.2435,1.247,1.247,1.2552,1.2718,1.2938,1.2925,1.3072,1.3333,1.3333,1.3387,1.3507,1.3507,1.3607,1.3774,1.3774,1.388,1.4109,1.4166,1.4201,1.4201,1.4271,1.4292,1.4292,1.4222,1.4279,1.4419,1.4482,1.4587,1.4713,1.4803,1.4999,1.5215,1.5368,1.541,1.541,1.541,1.541,1.5423,1.5561,1.5699,1.5873,1.6046,1.6306,1.6504,1.6504,1.6607,1.6614,1.6257,1.6367,1.6233,1.5367,1.5821,1.6293,1.621,1.6049,1.5894,1.5815,1.5568,1.5303,1.5026,1.484,1.4589,1.4245,1.3783,1.3382,1.3119,1.2735,1.2415,1.2206,1.2077,1.1947,1.1818,1.2325,1.27,1.2863,1.3716,1.4135,1.4109,0.0,0.0,0.0,0.0,0.0,0.0,0.0,0.0,0.0,0.0,0.0,0.0,0.0,0.0,0.0,0.0,0.0,0.0,0.0,0.0,0.0,0.0,0.0,1.3564,1.3517,1.3364,1.2973,1.3083,1.3127,1.2932,1.2742,1.2638,1.2645,1.275,1.2816,1.2816,1.3066,1.3193,1.3207,1.3207,1.334,1.3613,1.362,1.378,1.4109,1.4109,1.4082,1.4075,1.4075,1.4089,1.4097,1.4294,1.4385,1.4392,1.4601,1.4664,1.4643,1.4475,1.4419,1.444,1.465,1.472,1.4755,1.502,1.5236,1.541,1.541,1.541,1.541,1.541,1.541,1.541,1.5431,1.5756,1.6108,1.6108,1.6389,1.6689,1.6689,1.6681,1.6599,1.6269,1.5931,1.5581,1.5255,1.5804,1.6226,1.5866,1.548,1.5356,1.5762,1.5133,0.0,1.4623,1.4497,1.4389,1.4389,1.3855,1.3492,1.3492,1.2771,1.2397,1.2599,1.2243,1.2021,1.2021,1.2094,1.2196,1.2273,1.3233,1.385,1.4109,0.0,0.0,0.0,0.0,0.0,0.0,0.0,0.0,0.0,0.0,0.0,0.0,0.0,0.0,0.0,0.0,0.0,0.0,0.0,0.0,0.0,1.4155,1.4011,1.3754,1.3717,1.3626,1.3364,1.3255,1.3267,1.3459,1.3292,1.327,1.3512,1.3409,1.332,1.332,1.3239,1.3287,1.3473,1.3487,1.3647,1.3961,1.3968,1.4008,1.4109,1.4109,1.3975,1.3747,1.3747,1.3702,1.3668,1.3728,1.3822,1.3969,1.4029,1.4049,1.4098,1.4476,1.4741,1.4915,1.4978,1.5082,1.5215,1.5298,1.5347,1.541,1.541,1.541,1.5423,1.5575,1.5616,1.5658,1.5859,1.6004,1.6108,1.6108,1.6286,1.6476,1.6476,1.641,1.6254,1.5916,1.5581,1.5213,1.4837,1.4947,1.5256,1.5709,1.571,1.5762,1.6114,1.5524,1.5044,1.5044,1.4659,1.4335,1.4209,1.3648,1.3291,1.3291,1.2808,1.2599,1.2801,1.2581,1.2434,1.2434,1.2869,1.3406,1.4008,1.4131,1.4232,0.0,0.0,0.0,0.0,0.0,0.0,0.0,0.0,0.0,0.0,0.0,0.0,0.0,0.0,0.0,0.0,0.0,0.0,0.0,0.0,0.0,0.0,1.4496,1.4488,1.4286,1.411,1.3962,1.3852,1.3784,1.3823,1.4012,1.3853,1.3828,1.4013,1.3903,1.3853,1.3853,1.3837,1.3906,1.4062,1.4069,1.4151,1.4349,1.4247,1.4186,1.4186,1.4035,1.3858,1.3668,1.3668,1.3653,1.364,1.3719,1.3817,1.3934,1.404,1.4086,1.4114,0.0,0.0,0.0,0.0,1.4927,1.5028,1.5082,1.5102,1.5122,1.5216,1.5236,1.5249,1.5363,1.5403,1.5443,1.5599,1.572,1.5839,1.5985,1.6179,1.6357,1.6486,1.65,1.6359,1.6031,1.5796,1.554,1.5181,1.5098,0.0,1.5894,1.5745,1.5718,1.6219,1.5824,1.5444,1.5444,1.5026,1.4687,1.4579,1.4039,1.3702,1.3702,1.3266,0.0,0.0,0.0,1.2882,1.294,1.3183,0.0,0.0,0.0,1.4421,1.4524,1.4601,0.0,0.0,1.4503,1.4489,0.0,0.0,0.0,0.0,0.0,0.0,0.0,0.0,0.0,0.0,0.0,0.0,0.0,0.0,0.0,0.0,1.4883,1.516,1.5015,1.4694,1.4464,1.4407,1.4489,1.4558,1.4594,1.4398,1.4295,1.4331,1.4369,1.4396,1.4396,1.4594,0.0,0.0,0.0,1.4643,1.4643,1.4384,1.425,1.425,1.395,1.3776,1.3741,1.3741,1.3747,1.3731,1.3913,1.4011,1.405,1.4297,1.4401,1.4362,1.4214,1.4157,1.4196,1.4426,1.4543,1.4562,1.4699,0.0,0.0,1.4948,1.5029,1.5079,1.5098,1.5121,1.5171,1.5249,1.544,1.5693,1.6047,1.6277,1.6473,1.6733,1.6797,1.6713,1.6365,1.6272,1.6165,1.5866,1.5798,1.5903,1.6272,1.5771,1.5559,1.6254,1.607,1.5851,1.5851,1.5498,1.524,1.5161,1.4731,0.0,1.4371,1.3855,1.3626,1.3826,1.351,1.3412,1.3575,1.3408,1.3603,1.4219,1.4355,1.455,1.4817,1.5228,1.5228,1.4817,1.4587,1.4566,0.0,0.0,0.0,0.0,0.0,0.0,0.0,0.0,0.0,0.0,0.0,0.0,0.0,0.0,0.0,1.4993,1.5123,1.5276,1.55,1.5568,1.5431,1.4999,1.4821,1.4847,1.5115,1.4905,1.4881,1.5143,1.5023,1.4955,1.4955,1.4796,1.4692,1.4692,1.4496,1.439,1.439,1.4062,1.3908,1.3908,1.3825,0.0,1.3401,1.3401,1.337,1.3323,1.336,1.3471,1.3626,1.3663,1.3682,1.3733,1.4221,1.4484,1.4594,1.464,1.4769,1.4909,1.4929,1.4948,1.4948,1.4979,1.5208,1.5504,1.5683,1.5909,0.0,1.6774,1.6976,1.7101,1.749,1.7627,1.758,1.7324,1.7074,1.6767,1.6377,1.6094,1.5892,1.5815,1.5798,1.5956,1.6473,1.6281,1.6254,1.6708,1.6447,1.6202,1.6202,1.5894,1.5498,1.501,1.4723,1.4461,1.4183,1.3891,1.3826,1.4029,1.4074,1.4298,1.4753,1.4631,1.4913,1.5672,1.5349,1.5295,1.5505,1.5596,1.5596,1.5505,1.5124,1.4866,0.0,0.0,0.0,0.0,0.0,0.0,0.0,0.0,0.0,0.0,0.0,1.466,1.4861,0.0,1.5022,1.5399,1.5597,1.5753,1.5939,1.6154,1.6088,1.5567,1.5477,1.5524,1.567,1.5591,1.5563,1.5748,1.5652,1.561,1.561,1.5478,1.5315,1.5154,1.5013,1.4853,1.4645,1.4343,1.4201,1.4201,1.4033,1.3853,1.3693,1.3693,1.3686,1.3648,1.3648,1.3702,1.3793,1.3793,1.3793,1.3846,1.4347,1.4425,1.4265,1.437,1.4581,1.4813,1.4908,1.5061,1.5227,1.5316,1.549,1.5709,1.6002,1.622,1.6475,1.7035,1.7192,1.7274,1.7647,1.7749,1.7729,1.7709,1.7594,1.7395,1.6993,1.6855,1.675,1.6543,1.6577,1.6743,1.7003,1.6978,1.696,1.7168,1.6934,1.6751,1.6751,1.6333,1.593,1.5621,1.5187,1.483,1.4661,1.4317,1.4145,1.4245,1.4385,1.4653,1.5076,1.5202,1.5521,1.6087,1.5859,1.5797,1.5893,1.5893,1.5893,1.5893,1.5686,1.552,0.0,0.0,0.0,0.0,0.0,0.0,0.0,1.4588,1.4726,1.4726,1.4764,1.4909,1.5247,1.5295,1.5406,1.5741,1.6094,1.6349,1.6421,1.6677,1.6696,1.6337,1.6225,1.617,1.617,1.6128,1.6108,1.6108,1.6108,1.6108,1.6108,1.6047,1.5886,1.5611,1.5474,1.5248,1.4927,1.4629,1.4506,1.4499,1.4223,1.4093,1.4093,1.4093,1.4093,1.4093,1.4093,1.4132,1.4193,1.4193,1.4231,1.4341,1.4636,1.4489,1.4124,1.4282,1.4561,1.4829,1.5006,1.5232,1.5505,1.5739,1.5875,1.6008,1.6412,1.6569,1.6731,1.7192,1.7334,1.7403,1.7765,1.7852,1.7913,1.8148,1.8241,1.8148,1.7709,1.7743,1.7732,1.7337,1.7392,1.7505,1.7529,1.7547,1.7529,1.7505,1.7358,1.7262,1.7262,1.6795,1.6447,1.6377,1.5789,1.54,1.532,1.4919,1.4673,1.4646,1.4774,1.4984,1.5292,1.5559,1.5866,1.6203,1.6128,1.6128,1.617,1.617,1.617,1.617,1.617,1.6128,1.4705,1.4443,1.4515,1.4389,1.4461,1.4587,0.0,1.4877,1.5125,1.5125,1.5375,1.5589,1.5637,1.5645,1.5756,1.6087,1.6538,1.6934,1.7224,1.7306,1.7436,1.7718,1.6952,1.6373,1.6373,1.6203,1.6108,1.6108,1.6108,1.6108,1.6108,1.5825,1.5642,1.5603,1.5015,1.4679,1.4641,1.4323,1.4165,1.4165,1.4109,1.4093,1.4093,1.4093,1.4093,1.4093,1.4093,1.4269,1.4545,1.4545,1.4728,1.5004,1.5223,1.5273,1.5223,1.5261,1.5384,1.558,1.5599,1.565,1.5739,1.6114,1.647,1.684,1.725,1.7559,1.7912,1.838,1.8508,1.8607,1.9011,1.909,1.9056,1.892,1.8887,1.8731,1.815,1.8061,1.7953,1.7546,1.7487,1.7547,1.7664,1.7672,1.763,1.7522,1.7487,1.747,1.747,1.7245,1.6959,1.6603,1.6333,1.6053,1.5762,1.5674,1.5623,1.5557,1.5691,1.5854,1.6075,1.6067,1.6227,1.6636,1.6273,1.6183,1.6373,1.6373,1.6373,1.6373,1.6373,1.6265,1.4901,1.4551,1.4587,1.4533,1.4727,1.4959,1.4959,1.5221,1.557,1.5789,1.5951,1.619,1.6663,1.6743,1.6868,1.7194,1.7421,1.76,1.7732,1.7757,1.7818,1.7979,1.7607,1.7241,1.6996,1.6902,1.6738,1.6471,1.6451,1.6451,1.6451,1.6123,1.5968,1.6006,1.5514,1.5257,1.5301,1.5163,1.5089,1.5089,1.5329,1.5435,1.5444,1.5686,1.5795,1.5795,1.5795,1.5867,1.6006,1.6006,1.6078,1.6234,1.6514,1.6616,1.6533,1.5838,1.5933,1.6394,1.6394,1.6669,1.7068,1.7218,1.7406,1.7621,1.8067,1.83,1.8491,1.8942,1.9121,1.9269,1.9439,1.9568,1.9639,1.9539,1.9521,1.9381,1.8901,1.8898,1.8771,1.8139,1.8093,1.8083,1.791,1.7879,1.7862,1.7803,1.7691,1.7623,1.7623,1.7468,1.721,1.683,1.6595,1.6333,1.6,1.6084,1.6137,1.6117,1.656,1.6868,1.6948,1.7113,1.7168,1.7106,1.6943,1.6759,1.6566,1.6382,1.64,1.6633,1.6432,1.6403,1.5232,1.4937,1.4961,1.5067,1.5312,1.5558,1.5674,1.5959,1.628,1.6569,1.6701,1.6957,1.753,1.7649,1.7715,1.7957,1.8121,1.8181,1.8181,1.8181,1.8241,1.8353,1.8262,1.808,1.7786,1.7635,1.7412,1.7078,1.7057,1.7057,1.7057,1.6648,1.6419,1.6452,1.5996,1.5757,1.5798,1.5909,1.5979,1.5961,1.6374,1.6573,1.6581,1.6875,1.6996,1.6996,1.6996,1.7056,1.7132,1.7132,1.7192,1.7302,1.7537,1.7649,1.7536,1.6671,1.6697,1.7194,1.7194,1.7549,1.802,1.8141,1.8181,1.8282,1.8732,1.8891,1.9011,1.9291,1.9528,1.9676,1.9676,1.9784,1.9922,1.9981,2.0,1.9925,1.9621,1.9658,1.9577,1.8939,1.8889,1.887,1.8564,1.8515,1.8476,1.834,1.8208,1.8039,1.7811,1.7657,1.7426,1.7099,1.7026,1.6915,1.6678,1.6901,1.7003,1.696,1.7445,1.7724,1.764,1.7866,1.7858,1.7575,1.7575,1.7334,1.6883,1.6644,1.6624,1.679,1.6541,1.6518,1.578,1.5762,1.5857,1.626,1.6345,1.6466,1.6855,1.7194,1.7449,1.7469,1.772,1.7965,1.7974,1.7974,1.7983,1.8,1.8371,1.868,1.868,1.868,1.8832,1.9202,1.8922,1.868,1.866,1.8241,1.7979,1.7959,1.7959,1.7959,1.7959,1.728,1.6879,1.688,1.6182,1.5789,1.5798,1.6193,1.6382,1.6391,1.6798,1.6978,1.6978,1.6987,1.6996,1.6996,1.6996,1.7183,1.7488,1.7488,1.7692,1.7965,1.7974,1.7974,1.7974,1.7945,1.7954,1.7983,1.7983,1.7983,1.808,1.8531,1.868,1.8752,1.9172,1.941,1.9586,1.9586,1.9735,1.9883,1.9883,1.9902,1.9961,2.0225,2.0284,2.0275,2.0189,2.0184,2.0129,1.9899,1.9863,1.9863,1.9843,1.9843,1.9684,1.9229,1.9168,1.8869,1.81,1.7818,1.763,1.7505,1.782,1.8057,1.8039,1.84,1.8555,1.8345,1.8371,1.8268,1.8006,1.7991,1.7991,1.7979,1.7979,1.7792,1.7388,1.738,1.7173,1.6805,1.6796,1.6611,1.5798,1.5987,1.6236,1.6374,1.6759,1.7162,1.731,1.7589,1.7931,1.823,1.8384,1.8551,1.8814,1.8865,1.8865,1.8865,1.8993,1.9092,1.9092,1.9201,1.934,1.9478,1.9498,1.9498,1.9498,1.8862,1.8331,1.802,1.8,1.8,1.8,1.731,1.7013,1.7296,1.6534,1.6387,1.6929,1.7054,1.7261,1.753,1.7943,1.8277,1.8529,1.8529,1.8529,1.8529,1.8529,1.8581,1.8687,1.8687,1.8768,1.8884,1.9022,1.9062,1.9082,1.9212,1.9271,1.9192,1.8643,1.8643,1.8913,1.9201,1.9289,1.934,1.9607,1.9745,1.9794,1.9794,1.999,2.0206,2.0333,2.0459,2.0625,2.0838,2.0896,2.0895,2.087,2.0849,2.0767,2.0429,2.0357,2.0274,1.9951,1.9901,1.9851,1.9692,1.9394,1.9093,1.8822,1.8883,1.8927,1.8901,1.8769,1.8702,1.8702,1.8937,1.9061,1.9002,1.9244,1.9282,1.9073,1.9062,1.8862,1.8471,1.8451,1.8241,1.7795,1.7567,1.7534,1.7655,1.7111,1.6951,1.6537,1.666,1.6871,1.7143,1.7621,1.8066,1.8207,1.8477,1.8754,1.9071,1.913,1.9201,1.946,1.9519,1.9519,1.9519,1.9519,1.9519,1.9519,1.9636,1.9715,1.9715,1.9824,1.9902,1.9902,1.9439,1.8962,1.8603,1.8574,1.8574,1.8574,1.7842,1.765,1.8122,1.7361,1.7249,1.7924,1.8072,1.8351,1.8759,1.9018,1.9249,1.9519,1.9519,1.9519,1.9519,1.9519,1.9519,1.9519,1.9519,1.9519,1.9528,1.9656,1.9715,1.9715,1.9843,1.9902,1.9824,1.93,1.93,1.9548,1.9676,1.9715,1.9735,1.9863,2.002,2.0157,2.0157,2.0372,2.0654,2.079,2.0916,2.1042,2.1167,2.1205,2.1224,2.1282,2.1301,2.1249,2.1069,2.1037,2.0936,2.062,2.0437,2.0325,2.0325,2.0073,1.9786,1.9482,1.9597,1.9713,1.9713,1.9607,1.9503,1.9419,1.9696,1.9813,1.9669,1.9897,1.9951,1.9715,1.9715,1.9518,1.915,1.913,1.891,1.847,1.8252,1.821,1.8296,1.7779,1.7688,1.7945,1.7747,1.7834,1.856,1.8896,1.9142,1.9533,1.9754,1.9902,1.9902,1.9902,1.9902,1.9902,1.9902,1.9902,1.9902,1.9902,1.9902,1.9902,1.9902,1.9922,1.9922,1.9922,1.9942,1.9942,1.9942,1.9853,1.9645,1.9626,1.9626,1.9626,1.8872,1.8714,1.9288,1.854,1.8321,1.8729,1.9127,1.9524,1.9902,1.9902,1.9902,1.9902,1.9902,1.9902,1.9902,1.9902,1.9902,1.9902,1.9902,1.9902,1.9902,1.9922,1.9922,1.9922,1.9922,1.9942,1.9942,1.9942,1.9922,1.9902,1.9922,1.9922,1.9922,1.9942,2.0255,2.0625,2.0625,2.0906,2.1205,2.1205,2.1224,2.1224,2.1224,2.1224,2.1282,2.1474,2.1531,2.1559,2.1769,2.1807,2.1807,2.1807,2.1426,2.1137,2.1137,2.1137,2.0851,2.0064,1.997,1.9972,1.9972,2.031,2.0468,2.0261,2.0668,2.0741,2.0362,2.0342,2.0206,1.9942,1.9922,1.9902,1.9902,1.9902,1.9713,1.9326,1.9326,1.9127,1.8767,1.8748,1.8738,1.8949,1.9234,1.9638,1.925,1.9399,1.9692,1.9805,1.9863,1.9902,1.9902,1.9902,1.9902,1.9902,1.9902,1.9902,1.9902,1.9902,1.9902,1.9902,2.0059,2.0206,2.0206,2.0333,2.043,2.043,2.043,2.0333,2.0147,1.9951,1.9824,1.9824,1.9344,1.9146,1.9288,1.8815,1.8739,1.9146,1.9543,1.9798,1.9902,1.9902,1.9902,1.9902,1.9902,1.9902,1.9902,1.9902,1.9902,1.9902,1.9902,1.9902,1.9922,2.0127,2.0206,2.0225,2.0372,2.043,2.043,2.043,2.0196,1.9922,2.0118,2.0206,2.0245,2.0547,2.0722,2.0858,2.1002,2.1128,2.1224,2.1378,2.1416,2.1455,2.1598,2.1655,2.1655,2.1712,2.1712,2.1731,2.1788,2.1807,2.1807,2.1807,2.1704,2.1631,2.1631,2.1631,2.1428,2.0872,2.0959,2.1099,2.1099,2.104,2.0996,2.0948,2.1039,2.107,2.0974,2.0819,2.0644,2.043,2.0284,2.0108,1.9902,1.9902,1.9855,1.9751,1.9751,1.9685,1.9591,1.9288,1.9146,1.9935,1.9917,1.9904,1.963,1.981,2.0088,2.0088,2.0137,2.0216,2.0216,2.0216,2.0216,2.0216,2.0216,2.0216,2.0216,2.0216,2.0216,2.0216,2.0333,2.043,2.043,2.0527,2.0605,2.0605,2.0762,2.0781,2.0576,2.0264,2.0088,2.0088,1.9669,1.9564,1.986,1.9448,1.9429,1.987,2.01,2.0216,2.0216,2.0216,2.0216,2.0216,2.0216,2.0216,2.0216,2.0303,2.0342,2.0352,2.044,2.0479,2.0498,2.0634,2.0693,2.0712,2.0828,2.0867,2.0867,2.0867,2.0693,2.0479,2.0537,2.0625,2.0741,2.0964,2.1089,2.1186,2.1301,2.1397,2.1493,2.1598,2.1693,2.1788,2.1902,2.1997,2.2063,2.2063,2.2063,2.2063,2.2063,2.2063,2.2063,2.2063,2.2063,2.2063,2.2063,2.2063,2.1968,2.1707,2.1642,2.1636,2.1636,2.1521,2.1436,2.134,2.134,2.1282,2.1215,2.1089,2.0935,2.0731,2.0625,2.044,2.0216,2.0216,2.0216,2.0216,2.0216,2.0216,2.0206,1.9976,1.987,2.0964,2.0317,1.9726,2.0061,2.0255,2.0342,2.0362,2.0518,2.0644,2.0663,2.0683,2.0683,2.0683,2.0663,2.0644,2.0644,2.0644,2.0644,2.0644,2.0663,2.0683,2.0683,2.0683,2.0702,2.0771,2.1085,2.1243,2.1124,2.0742,2.0488,2.043,2.0024,2.009,2.0654,2.0272,2.0281,2.0683,2.0683,2.0683,2.0683,2.0683,2.0683,2.0683,2.0683,2.0683,2.0683,2.0858,2.0945,2.0945,2.1138,2.1205,2.1205,2.1205,2.1205,2.1205,2.1205,2.1205,2.1205,2.1205,2.1224,2.1215,2.1003,2.1061,2.1205,2.1224,2.1359,2.1512,2.1521,2.1674,2.1807,2.1826,2.1978,2.2111,2.212,2.2271,2.2402,2.2402,2.2402,2.2402,2.2402,2.2402,2.2402,2.2402,2.2402,2.2402,2.2402,2.2402,2.2402,2.2402,2.2063,2.1845,2.1845,2.1826,2.1731,2.154,2.154,2.1474,2.1282,2.1244,2.1157,2.0984,2.0945,2.0858,2.0683,2.0683,2.0683,2.0683,2.0683,2.0683,2.0683,2.0644,2.0644,2.2139,2.1668,2.1378,2.146,2.1011,2.0596,2.0761,2.0819,2.0906,2.107,2.1109,2.1109,2.1109,2.0954,2.0848,2.0848,2.0848,2.0848,2.0848,2.0993,2.1109,2.1109,2.1109,2.1249,2.1639,2.173,2.192,2.2281,2.187,2.146,2.1071,2.0962,2.099,2.1089,2.1009,2.1009,2.1109,2.1109,2.1109,2.1109,2.1109,2.1109,2.1109,2.1109,2.1109,2.1109,2.1128,2.1147,2.1147,2.1186,2.1205,2.1205,2.1205,2.1205,2.1205,2.1205,2.1205,2.1205,2.1205,2.1301,2.1416,2.1205,2.1167,2.1224,2.1397,2.1474,2.1521,2.1693,2.1769,2.1845,2.2006,2.2063,2.2138,2.2308,2.2365,2.2402,2.2402,2.2402,2.2402,2.2402,2.2402,2.2402,2.2402,2.2402,2.2402,2.2402,2.2402,2.2402,2.2402,2.2195,2.2044,2.2044,2.1902,2.1788,2.175,2.175,2.1731,2.1693,2.154,2.1436,2.1397,2.1244,2.1128,2.1109,2.1109,2.1109,2.1109,2.1109,2.1109,2.1089,2.0926,2.0848,2.3535,2.2827,2.2115,2.2115,2.151,2.0935,2.1032,2.1061,2.108,2.1186,2.1205,2.1205,2.1205,2.1109,2.1061,2.1061,2.1061,2.1061,2.1061,2.1128,2.1205,2.1205,2.1416,2.1638,2.1879,2.2312,2.2645,2.2747,2.2737,2.2382,2.1617,2.1336,2.1205,2.1205,2.1205,2.1205,2.1205,2.1205,2.1205,2.1205,2.1205,2.1205,2.1205,2.1205,2.1205,2.1215,2.1301,2.1587,2.1985,2.2101,2.2373,2.2697,2.2697,2.2697,2.267,2.2279,2.2149,2.2092,2.1655,2.1636,2.1807,2.1693,2.1598,2.1521,2.1617,2.1731,2.1826,2.193,2.2035,2.212,2.2233,2.2327,2.244,2.2534,2.2647,2.2721,2.2721,2.2721,2.2721,2.2721,2.2721,2.2721,2.2721,2.2721,2.2721,2.2721,2.2721,2.2721,2.2721,2.2534,2.2365,2.2271,2.2092,2.1959,2.1959,2.1864,2.1807,2.1807,2.1712,2.1598,2.1502,2.1416,2.1301,2.1205,2.1205,2.1205,2.1205,2.1205,2.1205,2.1205,2.1099,2.1181,2.4322,2.3316,2.2182,2.2371,2.1806,2.1205,2.1244,2.1263,2.1282,2.132,2.134,2.134,2.134,2.1282,2.1263,2.1263,2.1263,2.1263,2.1263,2.1301,2.134,2.134,2.1745,2.2078,2.2169,2.2899,2.3347,2.333,2.3608,2.3288,2.2098,2.1583,2.134,2.134,2.134,2.134,2.134,2.134,2.1416,2.1578,2.1416,2.1416,2.1578,2.1416,2.1416,2.1578,2.175,2.2287,2.3076,2.3183,2.3632,2.4217,2.4011,2.3957,2.3884,2.3146,2.2871,2.2777,2.2138,2.2035,2.2157,2.2157,2.2073,2.193,2.193,2.2044,2.2157,2.2157,2.2271,2.2402,2.2459,2.2572,2.2721,2.2759,2.2889,2.3001,2.3001,2.3001,2.3001,2.3001,2.3001,2.3001,2.3001,2.3001,2.3001,2.3001,2.3001,2.3001,2.3001,2.2871,2.2703,2.2553,2.2308,2.2157,2.2157,2.2025,2.193,2.193,2.1902,2.1788,2.1636,2.1578,2.1493,2.134,2.134,2.134,2.134,2.134,2.1371,2.1481,2.1423,2.1676,2.3606,2.2472,2.1483,2.2214,2.1807,2.1244,2.1436,2.1474,2.1521,2.1712,2.1731,2.1731,2.1731,2.1608,2.1474,2.1474,2.1474,2.1474,2.1474,2.1636,2.1731,2.1731,2.2163,2.2607,2.304,2.3536,2.4085,2.4671,2.4753,2.4089,2.2522,2.1998,2.1731,2.1731,2.1731,2.1731,2.1731,2.1731,2.2101,2.2833,2.2082,2.212,2.2815,2.2082,2.2138,2.2833,2.2852,2.3386,2.4228,2.4065,2.4253,2.4565,2.3706,2.3449,2.3471,2.2718,2.2459,2.244,2.2365,2.2365,2.2365,2.2365,2.2365,2.2346,2.2346,2.2365,2.2365,2.2365,2.2384,2.244,2.2628,2.2684,2.274,2.2927,2.2983,2.3001,2.3001,2.3001,2.3001,2.3001,2.3001,2.3001,2.3001,2.3001,2.3001,2.3001,2.3001,2.3001,2.3001,2.2983,2.2964,2.2945,2.259,2.2365,2.2365,2.2365,2.2346,2.2346,2.2176,2.2063,2.2054,2.1883,2.1769,2.175,2.1731,2.1731,2.1731,2.1731,2.1967,2.238,2.2184,2.2369,2.5323,2.4498,2.3621,2.3456,2.2849,2.2176,2.1769,2.1674,2.1712,2.1788,2.1807,2.1807,2.1807,2.1731,2.1674,2.1674,2.1674,2.1674,2.1674,2.175,2.1807,2.1807,2.2459,2.3047,2.3345,2.4497,2.5613,2.6573,2.6382,2.5589,2.4139,2.327,2.2614,2.2176,2.2157,2.2362,2.2827,2.2827,2.3224,2.4,2.3206,2.3243,2.4011,2.3187,2.3261,2.4029,2.4029,2.4487,2.5234,2.5163,2.5492,2.6052,2.5669,2.5564,2.5522,2.4719,2.4451,2.4379,2.3945,2.3854,2.3963,2.3963,2.4059,2.3925,2.2748,2.2478,2.2572,2.2572,2.2665,2.2777,2.2871,2.2889,2.2908,2.2983,2.3001,2.3001,2.3001,2.3001,2.3001,2.3001,2.3001,2.3001,2.3001,2.3001,2.3001,2.3001,2.3001,2.3001,2.3001,2.3001,2.3001,2.3001,2.274,2.2572,2.2572,2.2478,2.2402,2.2402,2.2327,2.2243,2.2111,2.2025,2.1921,2.1807,2.2087,2.2221,2.2221,2.2501,2.2739,2.2915,2.2835,2.3042,2.6159,2.5558,2.4755,2.3968,2.3386,2.2796,2.1978,2.1807,2.1807,2.1807,2.1807,2.1807,2.1807,2.1807,2.1807,2.1807,2.1807,2.1807,2.1807,2.2006,2.2248,2.245,2.3374,2.4158,2.4527,2.5848,2.7014,2.7824,2.7702,2.7094,2.5935,2.5082,2.4039,2.2774,2.295,2.3335,2.3861,2.385,2.4248,2.5028,2.423,2.4277,2.501,2.4212,2.4266,2.5028,2.5028,2.5498,2.6235,2.6178,2.6547,2.713,2.6846,2.6777,2.6726,2.5936,2.5645,2.5592,2.5057,2.4969,2.5087,2.5087,2.5182,2.5034,2.3669,2.3368,2.346,2.346,2.3405,2.3331,2.3331,2.3157,2.3001,2.3001,2.3001,2.3038,2.315,2.3187,2.3205,2.3335,2.3353,2.3353,2.3353,2.3353,2.3316,2.3205,2.3279,2.3261,2.3038,2.3094,2.3131,2.302,2.2871,2.2796,2.2796,2.2665,2.2572,2.2572,2.2515,2.2421,2.2271,2.2351,2.233,2.2187,2.2645,2.2885,2.2885,2.3239,2.3469,2.3584,2.3584,2.3845,2.5312,2.4725,2.3938,2.3194,2.3001,2.2796,2.1978,2.1807,2.1807,2.1807,2.1807,2.1807,2.1807,2.1807,2.1807,2.1807,2.1807,2.1807,2.1807,2.2496,2.3259,2.3993,2.5139,2.6189,2.6995,2.7676,2.8084,2.8096,2.8509,2.8461,2.7705,2.7408,2.6098,2.3573,2.4248,2.4678,2.4678,2.4678,2.5063,2.5777,2.5045,2.5081,2.5772,2.5016,2.5098,2.5789,2.5789,2.6368,2.7268,2.7062,2.7197,2.7406,2.6471,2.623,2.6311,2.5581,2.5312,2.5312,2.5312,2.5312,2.5312,2.5312,2.5312,2.5312,2.5276,2.5276,2.5276,2.5276,2.4689,2.4102,2.4102,2.3559,2.3001,2.3001,2.3001,2.3113,2.3501,2.3593,2.3714,2.4098,2.42,2.42,2.42,2.42,2.4043,2.3648,2.3934,2.3897,2.3094,2.3353,2.3427,2.3038,2.3001,2.3001,2.3001,2.3001,2.3001,2.3001,2.2815,2.2703,2.2703,2.2945,2.3085,2.3085,2.3541,2.3795,2.3795,2.3856,2.4101,2.4477,2.4477,2.4732,2.5141,2.4707,2.392,2.3176,2.3001,2.2796,2.1978,2.1807,2.1807,2.1807,2.1807,2.1807,2.1807,2.1807,2.1807,2.1807,2.1921,2.2185,2.2697,2.2662,2.2996,2.4099,2.5296,2.6726,2.8492,2.8985,2.944,3.0043,3.022,2.98,2.8649,2.8999,2.8006,2.5364,2.5171,2.5346,2.5871,2.5871,2.6235,2.6943,2.6217,2.6252,2.6943,2.62,2.6252,2.696,2.696,2.7142,2.7436,2.7369,2.7403,2.7473,2.7175,2.7091,2.7108,2.6888,2.6803,2.6803,2.6803,2.6803,2.6803,2.6803,2.6803,2.6803,2.6803,2.6087,2.5176,2.4636,2.4301,2.3993,2.3467,2.3176,2.3001,2.3001,2.3205,2.3446,2.3574,2.3824,2.4043,2.4182,2.42,2.42,2.42,2.42,2.4164,2.4025,2.4116,2.4098,2.3861,2.3696,2.3556,2.3409,2.3168,2.3001,2.3001,2.3001,2.3001,2.3001,2.3231,2.3332,2.3179,2.3612,2.3781,2.3582,2.405,2.4284,2.4284,2.4614,2.4849,2.4977,2.4977,2.5051,2.4915,2.4933,2.4294,2.3268,2.3001,2.2796,2.1978,2.1807,2.1807,2.1807,2.1807,2.1807,2.1807,2.1807,2.1807,2.1807,2.1921,2.2166,2.2716,2.2756,2.3474,2.5422,2.7016,2.8482,2.9878,3.012,3.0419,3.0968,3.1005,3.0648,2.9793,2.9971,2.9336,2.7671,2.687,2.6576,2.6803,2.682,2.704,2.749,2.7023,2.7057,2.7473,2.7023,2.707,2.749,2.749,2.749,0.0,2.749,2.749,2.749,2.749,2.749,2.749,2.749,2.749,2.749,2.749,2.749,2.749,2.749,2.754,2.7623,2.7703,2.704,2.6144,2.5638,2.5199,2.4749,2.4294,2.3808,2.3446,2.3446,2.3629,2.3879,2.4025,2.4255,2.4472,2.4593,2.4611,2.4611,2.4611,2.4611,2.4557,2.4454,2.4532,2.4503,2.4236,2.4098,2.3989,2.3842,2.3779,2.3687,2.35,2.3349,2.3255,2.3255,2.3725,2.3959,2.3822,2.4306,2.4496,2.4333,2.4786,2.5034,2.5034,2.5314,2.5464,2.5464,2.5464,2.5464,0.0,2.5087,2.4713,2.3268,2.2908,2.2721,2.1978,2.1807,0.0,2.1807,2.1807,2.1807,2.1807,2.1807,2.1826,2.1826,2.1845,2.1959,2.2195,2.3,2.4662,2.7631,2.9708,3.0917,3.0986,3.1005,3.1005,3.1005,3.1005,3.1005,3.1005,3.0477,3.0176,3.0119,2.9083,2.822,2.7572,2.7555,2.7559,2.7523,2.7523,2.7523,2.754,2.754,2.7523,2.7523,2.7523,2.7506,2.749,2.749,2.749,2.749,2.749,2.749,2.749,2.749,2.7506,2.7523,2.7523,2.7523,2.754,2.754,2.7673,2.7855,2.8046,2.7967,2.7809,2.7743,2.6964,2.6131,2.6097,2.5211,2.4316,2.4316,2.4334,2.4442,2.4778,2.4879,2.4975,2.5241,2.5312,2.5312,2.5312,2.5312,2.52,2.4879,2.5105,2.5058,2.4416,2.4638,2.4722,2.4395,2.4772,2.4891,2.4437,2.4037,2.3777,2.3768,2.4257,2.4561,2.4561,2.4998,2.525,2.525,2.5666,2.5895,2.5895,2.5895,2.5895,2.5895,2.5895,2.5895,2.3534,0.0,2.2542,2.2176,2.2082,2.2035,0.0,2.1807,2.1807,2.1807,2.1807,2.1807,2.1807,2.194,2.2035,2.2035,2.2289,2.2711,2.3316,2.4927,2.6724,2.8525,2.9479,3.0266,3.0949,3.1005,3.1005,3.1005,3.1005,3.1005,3.1005,3.1024,3.0821,3.0337,3.0066,2.9381,2.8207,2.8194,2.8022,2.7739,2.7739,2.7805,2.7964,2.7964,2.7885,2.7739,2.7739,2.764,2.749,2.749,2.749,2.749,2.749,2.749,2.749,2.749,2.7606,2.7739,2.7739,2.7822,2.7964,2.7964,2.7997,2.8046,2.8079,2.8063,2.7901,2.7284,2.6917,2.6582,2.6015,2.565,2.5417,2.5417,2.565,2.5802,2.5481,2.5646,2.5763,2.5365,2.5312,2.5312,2.5312,2.5312,2.5276,2.52,2.5241,2.5385,2.563,2.5482,2.5451,2.5763,2.5699,2.5559,2.5463,2.502,2.4642,2.4331,2.478,2.5031,2.5031,2.5501,2.5732,2.5732,2.5841,2.5895,2.5895,2.5895,2.5895,2.5895,2.5895,2.5895,2.2561,2.2402,2.2252,2.1902,2.1807,2.1807,2.1807,2.1807,2.1807,2.1807,2.1807,2.1826,2.1921,2.2035,2.212,2.2214,2.2421,2.2955,2.4054,2.6315,2.8145,2.8912,2.9776,3.0489,3.0949,3.108,3.1142,3.1142,3.1211,3.128,3.128,3.1392,3.1302,3.0965,3.0952,3.0346,2.9103,2.8719,2.843,2.8215,2.802,2.7951,2.7967,2.8063,2.8046,2.7934,2.7838,2.7789,2.7769,2.7686,2.7703,2.7769,2.7769,2.7769,2.7769,2.7769,2.7835,2.7934,2.7934,2.8,2.8112,2.818,2.8183,2.8253,2.8617,2.8731,2.8578,2.7779,2.7434,2.7217,2.6816,2.6543,2.6338,2.6338,2.6509,2.6539,2.6,2.6047,2.6013,2.5418,2.5504,2.5673,2.5673,2.5871,2.6027,2.6027,2.6027,2.6135,2.6424,2.6286,2.6244,2.6548,2.6625,2.6593,2.6407,2.6393,2.6103,2.5452,2.5858,2.6127,2.6127,2.6363,2.6498,2.6498,2.6498,2.6498,2.6498,2.6498,2.6498,2.6498,2.6498,2.6498,2.1826,2.2289,2.2647,2.1978,2.1807,2.1807,2.1807,2.1807,2.1807,2.1845,2.1845,2.1921,2.2101,2.2176,2.2252,2.2421,2.2644,2.332,2.4841,2.732,2.9069,2.927,3.0305,3.1005,3.1043,3.1198,3.131,3.1347,3.1503,3.1609,3.1609,3.1627,3.1646,3.1646,3.1646,3.1207,3.0262,2.9414,2.8966,2.8908,2.8475,2.8182,2.8057,2.8139,2.8161,2.8128,2.7954,2.7954,2.8079,2.7934,2.7951,2.8096,2.8096,2.8096,2.8096,2.8096,2.8112,2.8131,2.8161,2.8231,2.8331,2.8451,2.8551,2.8746,2.9422,2.9635,2.9493,2.8816,2.8421,2.8203,2.8203,2.7869,2.7518,2.7518,2.7518,2.7365,2.6834,2.6725,2.6539,2.5943,2.6201,2.6469,2.6378,2.674,2.701,2.6916,2.6898,2.6922,2.7006,2.7018,2.7042,2.7145,2.7553,2.7681,2.7345,2.773,2.7653,2.687,2.7056,2.7205,2.7205,2.7205,2.7205,2.7205,2.7205,2.7205,2.7205,2.7205,2.7205,2.7205,2.7205,2.7205,2.1997,2.1902,2.1959,2.1826,2.1807,2.1807,2.1807,2.1807,2.1845,2.2025,2.2044,2.212,2.2308,2.2496,2.2628,2.2647,2.375,2.5089,2.6447,2.8008,2.9408,3.0553,3.0865,3.108,3.1235,3.1272,3.1365,3.154,3.1577,3.1609,3.1609,3.1762,3.1853,3.1853,3.1853,3.1864,3.1857,3.0891,3.0223,2.9885,2.9295,2.91,2.922,2.8736,2.8441,2.8268,2.8252,2.8183,2.8096,2.8063,2.8063,2.8096,2.8096,2.8096,2.8096,2.8096,2.818,2.8284,2.8457,2.8861,2.9283,2.9316,2.9666,3.0099,3.0211,3.0269,3.0242,3.0113,3.0035,3.0014,3.0014,2.9932,2.9881,2.9881,2.9881,2.9743,2.918,2.9075,2.8917,2.8367,2.8293,2.8133,2.7618,2.7613,2.749,2.6992,2.6898,2.7054,2.7517,2.7589,2.7745,2.8202,2.8322,2.835,2.8279,2.8363,2.8355,2.8191,2.7577,2.7205,2.7205,2.7205,2.7205,2.7205,2.7205,2.7205,2.7205,2.7205,2.7205,2.7205,2.7205,2.7205,2.1902,2.1807,2.1807,2.1807,2.1807,2.1807,2.1807,2.1807,2.1864,2.2073,2.2101,2.2195,2.2496,2.2647,2.2826,2.318,2.4445,2.5848,2.7193,2.8528,2.9827,3.1009,3.1161,3.1235,3.1434,3.1564,3.1656,3.1762,3.1853,3.1927,3.1927,3.2018,3.2055,3.2055,3.2055,3.2109,3.22,3.1735,3.12,3.0577,3.0084,2.9835,2.9811,2.93,2.9045,2.8922,2.8484,2.833,2.8357,2.8249,2.8278,2.8373,2.8373,2.8373,2.8373,2.8373,2.8611,2.8949,2.9045,2.9485,2.9984,2.9984,3.0174,3.0455,3.0798,3.0893,3.0948,3.1273,3.0907,3.0388,3.0388,3.0388,3.0388,3.0388,3.0388,3.025,2.9715,2.9597,2.9438,2.8861,2.8949,2.8935,2.8338,2.8474,2.8578,2.8304,2.797,2.797,2.855,2.8334,2.8226,2.8466,2.849,2.849,2.849,2.849,2.849,2.849,2.8119,2.7906,2.7906,2.7906,2.7906,2.7906,2.7906,2.7906,2.7906,2.7906,2.7906,2.7906,2.7906,2.7906,2.1807,2.1807,2.1807,2.1807,2.189,2.1942,2.1828,2.1928,2.2065,2.2151,2.2214,2.2346,2.2703,2.2864,2.3107,2.3629,2.5095,2.6538,2.7611,2.911,3.0387,3.1272,3.1365,3.1453,3.1651,3.1798,3.1927,3.1963,3.2109,3.22,3.22,3.22,3.22,3.22,3.22,3.22,3.22,3.22,3.1884,3.1285,3.0823,3.0539,3.0377,2.992,2.9702,2.9659,2.8903,2.8663,2.879,2.8498,2.846,2.8603,2.8603,2.8698,2.882,2.882,2.9187,2.9702,2.9702,3.0123,3.0622,3.0622,3.0717,3.0907,3.1368,3.1522,3.1617,3.2065,3.1535,3.0825,3.0825,3.0825,3.0825,3.0825,3.0825,3.0721,3.0303,3.0202,3.0064,2.9609,2.9853,2.9949,2.9315,2.9555,2.9774,2.962,2.9099,2.8882,2.9341,2.8863,2.849,2.849,2.863,2.8717,2.8717,2.859,2.849,2.849,2.849,2.849,2.849,2.849,2.849,2.849,2.849,2.849,2.849,2.849,2.849,2.849,2.849,2.849,2.1807,2.1807,2.1807,2.1807,2.2128,2.2335,2.1901,2.2293,2.2664,2.2442,2.2534,2.2721,2.2945,2.3335,2.3651,2.3684,2.5877,2.7642,2.794,2.9826,3.1272,3.1553,3.1577,3.1664,3.1853,3.189,3.1982,3.2164,3.22,3.22,3.22,3.22,3.22,3.22,3.22,3.22,3.22,3.22,3.2173,3.2101,3.1517,3.1232,3.1188,3.0591,3.0351,3.031,2.9672,2.9417,2.939,2.8817,2.8587,2.8603,2.8603,2.8942,2.9431,2.9431,2.9825,3.0351,3.0351,3.073,3.1232,3.1232,3.1617,3.2078,3.2119,3.2132,3.2132,3.2187,3.2132,3.2065,3.2065,3.2065,3.2065,3.2065,3.2065,3.2065,3.2028,3.201,3.1992,3.1956,3.1983,3.1796,3.113,3.1044,3.0884,3.0317,2.9716,2.936,2.9399,2.8863,2.849,2.849,2.9,2.9341,2.9341,2.8823,2.849,2.849,2.849,2.849,2.849,2.849,2.849,2.849,2.849,2.849,2.849,2.849,2.849,2.849,2.849,2.849,2.194,2.1807,2.188,2.2159,2.2366,2.2488,2.2428,2.2619,2.2829,2.2996,2.2851,2.2845,2.3338,2.3583,2.391,2.453,2.5482,2.6627,2.8038,2.9077,3.0171,3.1447,3.172,3.1872,3.2073,3.2091,3.2128,3.22,3.22,3.22,3.22,3.22,3.22,3.22,3.22,3.22,3.22,3.22,3.22,3.22,3.197,3.1861,3.1847,3.1219,3.0961,3.092,3.031,3.0052,3.0038,2.9821,2.9726,2.9726,2.9726,2.9862,3.0052,3.0052,3.0446,3.0961,3.0961,3.1341,3.1861,3.1861,3.201,3.22,3.22,3.22,3.22,3.22,3.22,3.22,3.22,3.22,3.22,3.22,3.22,3.22,3.22,3.22,3.22,3.22,3.22,3.2005,3.1326,3.1201,3.1108,3.0884,3.0336,2.9967,2.9967,2.9755,2.9477,2.9099,2.9263,2.9399,2.9399,2.8855,2.849,2.849,2.849,2.849,2.849,2.849,2.849,2.849,2.849,2.849,2.849,2.849,2.849,2.849,2.849,2.849,2.1959,2.1845,2.2006,2.2474,2.2742,2.3007,2.3392,2.3171,2.2999,2.3328,2.3075,2.2974,2.3577,2.4046,2.4526,2.5113,2.5883,2.6941,2.8394,2.9064,3.0005,3.1601,3.1908,3.2055,3.22,3.22,3.22,3.22,3.22,3.22,3.22,3.22,3.22,3.22,3.22,3.22,3.22,3.22,3.22,3.22,3.22,3.22,3.2187,3.1779,3.1589,3.1562,3.0948,3.069,3.0676,3.0486,3.0388,3.0388,3.0388,3.0527,3.069,3.069,3.107,3.1589,3.1589,3.1847,3.22,3.22,3.22,3.22,3.22,3.22,3.22,3.22,3.22,3.22,3.22,3.22,3.22,3.22,3.22,3.22,3.22,3.22,3.22,3.22,3.22,3.2059,3.1598,3.1524,3.1524,3.1524,3.0977,3.0582,3.0582,3.0425,3.0203,2.9992,2.9793,2.9678,2.9678,2.9302,2.8981,2.8796,2.8961,2.8895,2.851,2.849,2.849,2.849,2.849,2.849,2.849,2.849,2.849,2.849,2.849,2.849,2.1807,2.194,2.2227,2.2688,2.3319,2.3985,2.474,2.3976,2.3154,2.3356,2.3188,2.3154,2.3626,2.4812,2.5589,2.528,2.739,2.9057,2.9008,3.0152,3.1286,3.2096,3.22,3.22,3.22,3.22,3.22,3.22,3.22,3.22,3.22,3.22,3.22,3.22,3.22,3.22,3.22,3.22,3.22,3.22,3.22,3.22,3.22,3.22,3.22,3.2173,3.1576,3.13,3.126,3.0663,3.0415,3.0415,3.0415,3.0785,3.13,3.13,3.1698,3.22,3.22,3.22,3.22,3.22,3.22,3.22,3.22,3.22,3.22,3.22,3.22,3.22,3.22,3.22,3.22,3.22,3.22,3.22,3.22,3.22,3.22,3.22,3.22,3.22,3.22,3.22,3.22,3.22,3.1634,3.1201,3.1201,3.0677,3.0545,3.1158,3.0677,3.0298,3.0298,3.0298,3.0043,2.9457,2.9967,2.9755,2.857,2.851,2.851,2.849,2.8522,2.8522,2.8522,2.8502,2.8522,2.8522,2.8522,2.8522,2.2298,2.2399,2.2923,2.3399,2.3641,2.4089,2.5161,2.457,2.3679,2.321,2.3316,2.3648,2.417,2.4858,2.5523,2.6032,2.716,2.8287,2.9149,3.0101,3.1028,3.1877,3.2109,3.22,3.22,3.22,3.22,3.22,3.22,3.22,3.22,3.22,3.22,3.22,3.22,3.22,3.22,3.22,3.22,3.22,3.22,3.22,3.22,3.22,3.22,3.2187,3.201,3.1929,3.1915,3.1739,3.1671,3.1671,3.1671,3.1779,3.1929,3.1929,3.2051,3.22,3.22,3.22,3.22,3.22,3.22,3.22,3.22,3.22,3.22,3.22,3.22,3.22,3.22,3.22,3.22,3.22,3.22,3.22,3.22,3.22,3.22,3.22,3.22,3.22,3.22,3.22,3.22,3.22,3.2041,3.19,3.19,3.1339,3.1177,3.1831,3.132,3.0921,3.0921,3.0545,3.0222,3.0043,3.0203,2.9947,2.9177,2.9138,2.8922,2.851,2.8871,2.9063,2.9063,2.9436,2.9629,2.9629,2.9629,2.9629,2.2838,2.2923,2.3416,2.4205,2.4375,2.4503,2.5036,2.4689,2.4015,2.316,2.3375,2.3866,2.4388,2.5147,2.5945,2.6755,2.7646,2.8632,2.9717,3.0437,3.114,3.1932,3.2128,3.22,3.22,3.22,3.22,3.22,3.22,3.22,3.22,3.2332,3.2408,3.2408,3.2552,3.2642,3.2642,3.2642,3.2642,3.2642,3.2642,3.2642,3.2624,3.2462,3.2408,3.2408,3.2408,3.2408,3.2408,3.2408,3.2408,3.239,3.2241,3.22,3.22,3.22,3.22,3.22,3.22,3.22,3.22,3.22,3.22,3.22,3.22,3.22,3.22,3.22,3.2363,3.2572,3.2572,3.273,3.2766,3.2309,3.22,3.22,3.22,3.22,3.22,3.22,3.22,3.22,3.22,3.22,3.22,3.22,3.22,3.22,3.22,3.1863,3.174,3.215,3.1959,3.17,3.146,3.1466,3.141,3.1273,3.1474,3.1384,3.086,3.0109,2.9536,2.9136,2.9448,2.9617,2.9617,2.9929,3.0362,3.0842,3.0547,3.0677,2.3526,2.3666,2.3877,2.509,2.5318,2.5129,2.4627,2.4506,2.4203,2.3209,2.3408,2.3921,2.441,2.5596,2.6719,2.7435,2.8652,2.9775,3.0551,3.1015,3.1524,3.2132,3.22,3.22,3.22,3.22,3.2205,3.2241,3.2255,3.2259,3.2296,3.2592,3.2757,3.2757,3.3111,3.3304,3.3304,3.3304,3.3304,3.3304,3.3304,3.3322,3.3322,3.2935,3.2739,3.2704,3.2704,3.2686,3.265,3.265,3.265,3.2632,3.2336,3.2255,3.2255,3.2255,3.2255,3.2241,3.2218,3.22,3.2218,3.2237,3.2255,3.2255,3.2345,3.2359,3.2336,3.2391,3.2817,3.3239,3.3239,3.3633,3.3751,3.2718,3.2418,3.2381,3.2418,3.2418,3.2436,3.2473,3.2459,3.2459,3.2459,3.2459,3.2459,3.2459,3.2459,3.2459,3.2459,3.2459,3.2459,3.2459,3.2753,3.2712,3.2159,3.2963,3.3306,3.2893,3.3394,3.3513,3.308,3.1401,3.0367,3.0199,3.0302,3.0326,3.0263,3.0362,3.1045,3.223,3.155,3.1853,2.5323,2.5227,2.5276,2.5988,2.5961,2.5524,2.4703,2.4506,2.4203,2.3209,2.3711,2.4355,2.4484,2.6018,2.7417,2.7892,2.9305,3.0513,3.0996,3.1598,3.2041,3.2169,3.22,3.22,3.22,3.22,3.2314,3.2561,3.2579,3.2721,3.3055,3.3129,3.3164,3.3164,3.3252,3.3304,3.3304,3.3304,3.3304,3.3304,3.3304,3.3427,3.3684,3.3322,3.3005,3.2704,3.2704,3.2556,3.2314,3.2314,3.2314,3.2332,3.2521,3.2579,3.2579,3.2579,3.2579,3.2543,3.2296,3.22,3.2241,3.2503,3.2579,3.2747,3.3523,3.3549,3.3409,3.3937,3.4189,3.4286,3.4286,3.4608,3.4859,3.4613,3.4023,3.3642,3.3986,3.4079,3.4186,3.4501,3.4557,3.4557,3.4557,3.4557,3.4557,3.4557,3.4557,3.4557,3.4557,3.4557,3.4557,3.4557,3.4616,3.4616,3.4473,3.4671,3.4617,3.4221,3.4296,3.4153,3.3647,3.283,3.1913,3.0902,3.1834,3.2047,3.1524,3.2453,3.331,3.4049,3.3885,3.3884,2.6381,2.6065,2.5795,2.6588,2.6337,2.5748,2.5208,2.4791,2.4203,2.3209,2.3602,2.425,2.4708,2.6072,2.7501,2.8674,2.9839,3.0852,3.1579,3.1986,3.22,3.22,3.22,3.22,3.22,3.22,3.2336,3.2668,3.2704,3.2881,3.3287,3.3444,3.3545,3.3545,3.3736,3.3822,3.3822,3.3822,3.3822,3.3822,3.3822,3.3908,3.4077,3.3719,3.3409,3.3234,3.3234,3.3143,3.2962,3.2962,3.2962,3.298,3.297,3.2881,3.2704,3.2704,3.2704,3.2686,3.2503,3.257,3.2767,3.2935,3.3058,3.3259,3.3976,3.4139,3.4182,3.4738,3.5101,3.5324,3.5324,3.5699,3.6061,3.6061,3.5272,3.4592,3.4836,3.4892,3.4948,3.5152,3.5189,3.5189,3.5189,3.5189,3.5189,3.5189,3.5189,3.5189,3.5189,3.5189,3.5189,3.5189,3.5373,3.5498,3.5498,3.563,3.5689,3.5611,3.562,3.5532,3.5347,3.5061,3.4199,3.2654,3.3251,3.3509,3.3392,3.3785,3.4456,3.5349,3.5098,3.5285,2.7294,2.6986,2.6469,2.7229,2.6857,2.6261,2.5977,2.5286,2.4465,2.3616,2.3629,2.4065,2.4947,2.6186,2.7656,2.9408,3.0367,3.1196,3.2078,3.22,3.22,3.22,3.22,3.22,3.22,3.2241,3.2426,3.2775,3.2864,3.3076,3.3462,3.3753,3.3891,3.3891,3.423,3.4397,3.4397,3.4397,3.4397,3.4397,3.4397,3.4397,3.4397,3.4059,3.3874,3.3805,3.3805,3.377,3.3719,3.3719,3.3719,3.3684,3.3462,3.3182,3.2899,3.2899,3.2899,3.2881,3.2828,3.3023,3.3333,3.3501,3.3672,3.3917,3.4558,3.4848,3.504,3.5489,3.5972,3.6367,3.6367,3.6772,3.7211,3.7211,3.6453,3.5699,3.5624,3.5606,3.5629,3.5703,3.5717,3.5717,3.5717,3.5717,3.5717,3.5717,3.5717,3.5717,3.5717,3.5717,3.5717,3.5717,3.6013,3.6214,3.6214,3.6472,3.6703,3.6862,3.6853,3.6912,3.7003,3.6998,3.6328,3.4904,3.4733,3.4794,3.504,3.4712,3.5154,3.6267,3.593,3.63,2.8699,2.9096,2.9001,2.839,2.8148,2.7826,2.6945,2.613,2.5466,2.5218,2.4655,2.4392,2.4992,2.7028,2.885,2.958,3.099,3.2041,3.2182,3.22,3.22,3.22,3.22,3.22,3.22,3.2449,3.2793,3.3182,3.3479,3.3822,3.423,3.4312,3.4329,3.4329,3.438,3.4397,3.4397,3.4397,3.4397,3.4397,3.4397,3.4397,3.4397,3.4346,3.4128,3.3805,3.3805,3.3649,3.3374,3.3374,3.3374,3.3392,3.3649,3.3701,3.3649,3.3649,3.3649,3.3615,3.3322,3.3252,3.3441,3.4327,3.4608,3.4929,3.6439,3.6663,3.6537,3.7116,3.7329,3.7401,3.7401,3.771,3.8052,3.8052,3.7922,3.7698,3.7334,3.7272,3.7387,3.7731,3.7792,3.7792,3.7792,3.7792,3.7792,3.7792,3.7792,3.7792,3.7792,3.7792,3.7792,3.7792,3.7843,3.7881,3.7881,3.7904,3.7816,3.7515,3.7477,3.7333,3.7017,3.6998,3.7056,3.7159,3.6468,3.5837,3.5264,3.544,3.5866,3.6564,3.6997,3.7259,2.8374,2.8878,2.9175,2.9139,2.8762,2.8372,2.8268,2.7331,2.6436,2.623,2.5791,2.5637,2.6184,2.7476,2.8813,2.9907,3.0975,3.1807,3.2146,3.22,3.22,3.22,3.22,3.2277,3.2462,3.2614,3.2935,3.3545,3.3719,3.3991,3.438,3.4397,3.4397,3.4397,3.4397,3.4397,3.4397,3.4397,3.4397,3.4397,3.4397,3.4397,3.4397,3.4397,3.4312,3.4145,3.4145,3.4059,3.3908,3.3908,3.3908,3.3925,3.4077,3.4008,3.3805,3.3805,3.3805,3.3788,3.3632,3.3964,3.455,3.4995,3.5464,3.6045,3.7019,3.7271,3.7305,3.7805,3.7934,3.7934,3.7934,3.8071,3.8202,3.8202,3.8202,3.8146,3.7957,3.7934,3.7991,3.8165,3.8202,3.8202,3.8202,3.8202,3.8202,3.8202,3.8202,3.8202,3.8202,3.8202,3.8202,3.8202,3.8202,3.8202,3.8202,3.8202,3.8127,3.7938,3.7934,3.7858,3.7692,3.7672,3.7749,3.792,3.7361,3.7017,3.6928,3.6828,3.6903,3.7163,3.7548,3.7876,2.8025,2.8642,2.9301,2.9707,2.9514,2.9271,2.9532,2.851,2.7476,2.7359,2.6944,2.6794,2.7442,2.7946,2.8669,2.9963,3.0801,3.1467,3.1915,3.2092,3.22,3.22,3.2277,3.2426,3.2686,3.2881,3.3217,3.3753,3.3891,3.4077,3.438,3.4397,3.4397,3.4397,3.4397,3.4397,3.4397,3.4397,3.4397,3.4397,3.4397,3.4397,3.4397,3.4397,3.4397,3.4397,3.4397,3.4397,3.4397,3.4397,3.4397,3.4397,3.4397,3.4213,3.3942,3.3942,3.3942,3.3942,3.3942,3.4597,3.5436,3.5581,3.618,3.693,3.7384,3.763,3.782,3.8108,3.8202,3.8202,3.8202,3.8202,3.8202,3.8202,3.8202,3.8202,3.8202,3.8202,3.8202,3.8202,3.8202,3.8202,3.8202,3.8347,3.8405,3.8231,3.8347,3.8391,3.8217,3.8202,3.8202,3.8202,3.8202,3.8202,3.8202,3.8202,3.8202,3.8202,3.8202,3.8202,3.8202,3.8202,3.8202,3.8202,3.7915,3.7858,3.8052,3.7649,3.7438,3.7452,3.7763,3.8229,2.8377,2.9319,3.027,3.0127,3.0761,3.1233,3.051,2.9442,2.8699,2.9017,2.8044,2.7438,2.8354,2.8595,2.8864,2.945,3.054,3.13,3.1327,3.1847,3.22,3.22,3.2485,3.2686,3.2704,3.3322,3.3753,3.3805,3.4145,3.438,3.4397,3.4397,3.4397,3.4397,3.4397,3.4397,3.4397,3.4397,3.4397,3.4397,3.4397,3.4397,3.4397,3.4397,3.4397,3.4397,3.4397,3.4397,3.4397,3.4397,3.4397,3.4397,3.4397,3.4397,3.438,3.438,3.438,3.438,3.438,3.4818,3.5494,3.6069,3.6718,3.7382,3.7966,3.8154,3.8165,3.8183,3.8202,3.8202,3.8202,3.8202,3.8202,3.8202,3.8202,3.8202,3.8202,3.8202,3.8202,3.8202,3.8202,3.8202,3.8202,3.8725,3.8928,3.8304,3.8739,3.8928,3.8275,3.8202,3.8202,3.8202,3.8202,3.8202,3.8202,3.8202,3.8202,3.8202,3.8202,3.8202,3.8202,3.8202,3.8202,3.8202,3.8183,3.7995,3.7629,3.7226,3.7017,3.7065,3.7631,3.8229,2.8448,2.9236,2.9988,3.0381,3.1047,3.1561,3.1402,3.045,2.9674,2.9932,2.8966,2.8203,2.8538,2.8633,2.8824,2.9414,2.9852,3.0422,3.1196,3.1662,3.2095,3.2479,3.2846,3.3164,3.3392,3.3649,3.3908,3.4162,3.4329,3.4397,3.4397,3.4397,3.4397,3.4397,3.4397,3.4397,3.4397,3.4397,3.4397,3.4397,3.4397,3.4397,3.4397,3.4397,3.4397,3.4397,3.4397,3.4397,3.4397,3.4397,3.4397,3.4397,3.4397,3.4397,3.4397,3.4397,3.4397,3.4397,3.4397,3.5096,3.5996,3.6228,3.7027,3.7926,3.813,3.8202,3.8202,3.8202,3.8202,3.8202,3.8202,3.8202,3.8202,3.8202,3.8202,3.8202,3.8202,3.8202,3.8202,3.8202,3.8202,3.8333,3.8768,3.9044,3.9247,3.9392,3.9291,3.9117,3.887,3.8463,3.8202,3.8202,3.8202,3.8202,3.8202,3.8202,3.8202,3.8202,3.8202,3.8202,3.8202,3.8202,3.8202,3.8202,3.8202,3.8127,3.7976,3.7844,3.7768,3.7768,3.7997,3.8442,2.826,2.8908,2.9625,3.0233,3.094,3.1575,3.185,3.1177,3.0483,3.0411,2.9604,2.8847,2.8644,2.8603,2.8739,2.9132,2.9363,2.9821,3.074,3.1402,3.1979,3.2503,3.3108,3.3563,3.3788,3.3908,3.4111,3.438,3.4397,3.4397,3.4397,3.4397,3.4397,3.4397,3.4397,3.4397,3.4397,3.4397,3.4397,3.4397,3.4397,3.4397,3.4397,3.4397,3.4397,3.4397,3.4397,3.4397,3.4397,3.4397,3.4397,3.4397,3.4397,3.4397,3.4397,3.4397,3.4397,3.4426,3.4661,3.543,3.6344,3.6559,3.736,3.8202,3.8202,3.8202,3.8202,3.8202,3.8202,3.8202,3.8202,3.8202,3.8202,3.8202,3.8202,3.8202,3.8202,3.8202,3.8202,3.8202,3.8376,3.8681,3.9117,3.9552,3.99,4.0075,3.9944,3.9683,3.9262,3.8812,3.8449,3.8217,3.8202,3.8202,3.8202,3.8202,3.8202,3.8202,3.8202,3.8202,3.8202,3.8202,3.8202,3.8202,3.8202,3.8202,3.8202,3.8202,3.8202,3.8202,3.8202,3.8667,0.0,0.0,0.0,2.9686,3.0546,3.14,3.1783,3.1582,3.1124,3.0527,2.9916,2.9322,2.8711,2.8603,2.8603,2.8603,2.9108,2.9604,2.9948,3.1022,3.1889,3.226,3.3186,3.3794,3.3794,3.4147,3.4397,3.4397,3.4397,3.4397,3.4397,3.4397,3.4397,3.4397,3.4397,3.4397,3.4397,3.4397,3.4397,3.4397,3.4397,3.4397,3.4397,3.4397,3.4397,3.4397,3.4397,3.4397,3.4397,3.4397,3.4397,3.4397,3.4397,3.4397,3.4397,3.4397,3.4397,3.4501,3.5174,3.5796,3.6417,3.7085,3.7709,3.8202,3.8202,3.8202,3.8202,3.8202,3.8202,3.8202,3.8202,3.8202,3.8202,3.8202,3.8202,3.8202,3.8202,3.8202,3.8202,3.8202,3.8739,3.9218,3.9218,4.0263,4.0887,4.0249,4.0699,4.0655,3.9421,3.9218,3.8957,3.8304,3.8217,3.8202,3.8202,3.8202,3.8202,3.8202,3.8202,3.8202,3.8202,3.8202,3.8202,3.8202,3.8202,3.8202,3.8202,3.8202,3.8202,3.8202,3.8202,3.8884,2.7984,0.0,0.0,0.0,0.0,0.0,3.145,3.1373,3.1124,3.0527,2.9916,2.9322,2.8711,2.8603,2.8683,2.8924,2.89,2.9111,2.9892,3.0503,3.1146,3.1926,3.2949,3.3584,3.3584,3.4071,3.4397,3.4397,3.4397,3.4397,3.4397,3.4397,3.4397,3.4397,3.4397,3.4397,3.4397,3.4397,3.4397,3.4397,3.4397,3.4397,3.4397,3.4397,3.4397,3.4397,3.4397,3.4397,3.4397,3.4397,3.4397,3.4397,3.4397,3.4397,3.4397,3.4397,3.4397,3.4501,3.5174,3.5796,3.6417,3.7085,3.7709,3.8202,3.8202,3.8202,3.8202,3.8202,3.8202,3.8202,3.8202,3.8202,3.8202,3.8202,3.8202,3.8202,3.8202,3.8202,3.8202,3.8202,3.8739,3.9334,3.977,4.0539,4.1192,4.1497,4.1279,4.0974,4.0612,3.977,3.9131,3.8942,3.8492,3.8202,3.8202,3.8202,3.8202,3.8202,3.8202,3.8202,3.8202,3.8202,3.8202,3.8202,3.8202,3.8202,3.8202,3.8202,3.8202,3.8202,3.8202,3.8884,2.8046,2.8451,2.8942,2.9398,0.0,0.0,3.0866,3.111,3.1056,3.0188,2.996,2.9604,2.8766,2.8603,2.8651,2.886,2.8844,2.9096,2.9935,3.0429,3.0967,3.164,3.2529,3.3079,3.3079,3.3645,3.4008,3.4008,3.4269,3.4397,3.4397,3.4397,3.4397,3.4397,3.4397,3.4397,3.4397,3.4397,3.4397,3.4397,3.4397,3.4397,3.4397,3.4397,3.4397,3.4397,3.4397,3.4397,3.4397,3.4397,3.4397,3.4397,3.4397,3.4397,3.4397,3.4397,3.4397,3.4528,3.5462,3.5996,3.6443,3.7375,3.7912,3.8202,3.8202,3.8202,3.8202,3.8202,3.8202,3.8202,3.8202,3.8202,3.8202,3.8202,3.8202,3.8202,3.8202,3.8202,3.8202,3.8202,3.8942,3.9683,4.0046,4.0887,4.1642,4.2034,4.1758,4.141,4.1134,4.0452,3.9784,3.9262,3.8855,3.8507,3.8217,3.8202,3.8202,3.8202,3.8202,3.8202,3.8202,3.8202,3.8202,3.8202,3.8202,3.8202,3.8202,3.8202,3.8202,3.8202,3.8202,3.8754,2.8046,2.82,2.8517,2.9221,2.9445,0.0,3.0174,3.0771,3.0884,2.978,2.9984,3.0025,2.8918,2.87,2.8716,2.8764,2.902,2.9415,2.9973,3.0537,3.1022,3.1363,3.1989,3.2395,3.2395,3.3008,3.3402,3.3402,3.3949,3.4312,3.4312,3.4353,3.4397,3.4397,3.4397,3.4397,3.4397,3.4397,3.4397,3.4397,3.4397,3.4397,3.4397,3.4397,3.4397,3.4397,3.4397,3.4397,3.4397,3.4397,3.4397,3.4397,3.4397,3.4397,3.4397,3.4397,3.4397,3.4571,3.5793,3.6243,3.6504,3.7709,3.8144,3.8202,3.8202,3.8202,3.8202,3.8202,3.8202,3.8202,3.8202,3.8202,3.8202,3.8202,3.8202,3.8202,3.8202,3.8202,3.8202,3.8202,3.9233,4.0104,4.0104,4.1207,4.2092,4.2092,4.2092,4.1874,4.1279,4.1149,4.067,3.9538,3.9291,3.8957,3.8362,3.8246,3.8202,3.8202,3.8202,3.8202,3.8202,3.8202,3.8202,3.8202,3.8202,3.8202,3.8202,3.8202,3.8202,3.8202,3.8202,3.8565,2.8079,2.8311,2.8582,2.8736,2.9132,0.0,2.9648,3.0133,3.0446,2.9997,2.9995,2.9936,2.9491,2.9399,2.9493,2.9772,2.9865,2.9865,2.9725,3.0026,3.0405,3.0741,3.1322,3.1699,3.1699,3.2293,3.2685,3.2685,3.3296,3.3676,3.3676,3.4138,3.4397,3.4397,3.4397,3.4397,3.4397,3.4397,3.4397,3.4397,3.4397,3.4397,3.4397,3.4397,3.4397,3.4397,3.4397,3.4397,3.4397,3.4397,3.4397,3.4397,3.4397,3.4397,3.4397,3.4397,3.4397,3.4499,3.5302,3.5897,3.6428,3.723,3.781,3.8202,3.8202,3.8202,3.8202,3.8202,3.8202,3.8202,3.8202,3.8202,3.8202,3.8202,3.8202,3.8202,3.8202,3.8202,3.8202,3.8202,3.9233,4.0104,4.0104,4.1207,4.2092,4.2092,4.2092,4.2049,4.1918,4.1424,4.1004,4.0757,3.9813,3.9146,3.9015,3.8507,3.8202,3.8202,3.8202,3.8202,3.8202,3.8202,3.8202,3.8202,3.8202,3.8202,3.8202,3.8202,3.8202,3.8202,3.8202,3.8565,2.8063,2.8278,2.8476,2.8571,2.8834,0.0,0.0,2.9659,3.0085,2.9647,2.9919,3.0125,2.9668,2.9587,2.9649,2.9819,2.9988,3.0034,2.988,3.0127,3.0401,3.0568,3.0873,3.1047,3.1047,3.1626,3.2148,3.2482,3.2817,3.2991,3.2991,3.3618,3.3952,3.3952,3.424,3.4397,3.4397,3.4397,3.4397,3.4397,3.4397,3.4397,3.4397,3.4397,3.4397,3.4397,3.4397,3.4397,3.4397,3.4397,3.4397,3.4397,3.4397,3.4397,3.4397,3.4397,3.4397,3.4501,3.5174,3.5796,3.6417,3.7085,3.7709,3.8202,3.8202,3.8202,3.8202,3.8202,3.8202,3.8202,3.8202,3.8202,3.8202,3.8202,3.8202,3.8202,3.8202,3.8202,3.8202,3.8202,3.8986,3.9755,4.0046,4.0931,4.17,4.2049,4.2092,4.2092,4.2092,4.1802,4.1468,4.1134,4.0525,3.9886,3.9247,3.8884,3.8565,3.8217,3.8202,3.8202,3.8202,3.8202,3.8202,3.8202,3.8202,3.8202,3.8202,3.8202,3.8202,3.8202,3.8202,3.8376,2.8063,2.8229,2.8398,2.8554,2.8603,2.8603,0.0,0.0,0.0,2.9259,2.979,3.0224,2.9858,2.9789,2.9789,2.9789,3.002,3.0203,3.0203,3.0431,3.0598,3.0598,3.0598,3.0598,3.0598,3.1032,3.1539,3.209,3.2235,3.2308,3.2308,3.308,3.3503,3.3503,3.4095,3.4397,3.4397,3.4397,3.4397,3.4397,3.4397,3.4397,3.4397,3.4397,3.4397,3.4397,3.4397,3.4397,3.4397,3.4397,3.4397,3.4397,3.4397,3.4397,3.4397,3.4397,3.4397,3.4486,3.5026,3.5694,3.6402,3.6939,3.7607,3.8202,3.8202,3.8202,3.8202,3.8202,3.8202,3.8202,3.8202,3.8202,3.8202,3.8202,3.8202,3.8202,3.8202,3.8202,3.8202,3.8202,3.8638,3.9233,3.9973,4.0655,4.1323,4.199,4.2092,4.2092,4.2092,4.2092,4.1889,4.1352,4.1178,4.0684,3.9654,3.9349,3.8971,3.8434,3.8275,3.8202,3.8202,3.8202,3.8202,3.8202,3.8202,3.8202,3.8202,3.8202,3.8202,3.8202,3.8202,3.8202,2.8096,2.8324,2.8571,2.8587,2.8603,2.8603,2.8603,0.0,2.891,2.9429,0.0,2.9858,3.0386,0.0,0.0,3.0477,3.0507,3.0552,3.0552,3.0582,3.0598,3.0598,3.0598,3.0598,3.0598,3.067,3.0728,3.08,3.1308,3.1612,3.1612,3.2819,3.3503,3.3503,3.4095,3.4397,3.4397,3.4397,3.4397,3.4397,3.4397,3.4397,3.4397,3.4397,3.4397,3.4397,3.4397,3.4397,3.4397,3.4397,3.4397,3.4397,3.4397,3.4397,3.4397,3.4397,3.4397,3.4412,3.4501,3.5314,3.6315,3.6402,3.723,3.8202,3.8202,3.8202,3.8202,3.8202,3.8202,3.8202,3.8202,3.8202,3.8202,3.8202,3.8202,3.8202,3.8202,3.8202,3.8202,3.8202,3.826,3.8696,3.9886,4.0655,4.1323,4.199,4.2092,4.2092,4.2092,4.2092,4.2063,4.199,4.1453,4.1033,4.0902,3.9842,3.9175,3.9088,3.8536,3.8202,3.8202,3.8202,3.8202,3.8202,3.8202,3.8202,3.8202,3.8202,3.8202,3.8202,3.8202,3.8202,2.8096,2.8341,2.8603,2.8603,2.8603,2.8603,2.8603,2.8892,2.9257,2.954,0.0,0.0,0.0,0.0,0.0,0.0,3.0598,3.0598,3.0598,3.0836,3.091,3.0628,3.0598,3.0598,3.0598,3.0598,3.0598,3.0598,3.0829,3.0974,3.0974,3.2208,3.2919,3.2919,3.3891,3.4397,3.4397,3.4397,3.4397,3.4397,3.4397,3.4397,3.4397,3.4397,3.4397,3.4397,3.4397,3.4397,3.4397,3.4397,3.4397,3.4397,3.4397,3.4397,3.4397,3.4397,3.4397,3.4397,3.4397,3.5224,3.6431,3.7172,3.7767,3.8202,3.8202,3.8202,3.8202,3.8202,3.8202,3.8202,3.8202,3.8202,3.8202,3.8202,3.8202,3.8202,3.8202,3.8202,3.8202,3.8202,3.8202,3.8492,3.9421,4.0104,4.0873,4.1932,4.2092,4.2092,4.2092,4.2092,4.2092,4.2092,4.1845,4.1512,4.1134,4.0612,3.9987,3.9247,3.8565,3.8202,3.8202,3.8202,3.8202,3.8202,3.8202,3.8202,3.8202,3.8202,3.8202,3.8202,3.8202,3.8202,2.8079,2.8295,2.8538,2.8587,2.8603,2.8603,2.8603,2.9051,2.9493,2.9571,3.0066,0.0,0.0,0.0,3.0598,3.0598,0.0,3.0598,3.0598,3.0999,3.1117,3.0672,3.0598,3.0598,3.0598,3.0598,3.0598,3.0598,3.0598,3.0598,3.0598,3.1642,3.2235,3.2235,3.3485,3.4153,3.4153,3.431,3.4397,3.4397,3.4397,3.4397,3.4397,3.4397,3.4397,3.4397,3.4397,3.4397,3.4397,3.4397,3.4397,3.4397,3.4397,3.4397,3.4397,3.4397,3.4397,3.4397,3.4397,3.5224,3.6519,3.7796,3.8202,3.8202,3.8202,3.8202,3.824,3.8389,3.8333,3.824,3.8408,3.8315,3.8202,3.8202,3.8202,3.8202,3.8202,3.8202,3.8202,3.8202,3.8202,3.8405,3.9088,3.9697,4.0481,4.1642,4.1976,4.2092,4.2092,4.2092,4.2092,4.2092,4.2092,4.1903,4.141,4.1207,4.0554,3.9276,3.8565,3.8202,3.8202,3.8202,3.8202,3.8202,3.8202,3.8202,3.8202,3.8202,3.8202,3.8202,3.8202,3.8202,2.8046,2.82,2.8365,2.8554,2.8603,2.8603,2.8603,2.8876,2.921,2.9524,2.988,3.0218,3.0552,3.0598,3.0598,3.0598,3.0598,0.0,0.0,3.0999,3.1117,3.0672,3.0598,3.0598,3.0598,3.0598,3.0598,3.0598,3.0598,3.0598,3.0598,3.1192,3.1539,3.1539,3.2833,3.3532,3.3532,3.4109,3.4397,3.4397,3.4397,3.4397,3.4397,3.4397,3.4397,3.4397,3.4397,3.4397,3.4397,3.4397,3.4397,3.4397,3.4397,3.4397,3.4397,3.4397,3.4397,3.4397,3.4397,3.5224,3.6519,3.7796,3.8202,3.8202,3.8202,3.8202,3.8315,3.8922,3.8649,3.8333,3.8922,3.8631,3.8202,3.8202,3.8202,3.8202,3.8202,3.8202,3.8202,3.8202,3.8202,3.8405,3.9088,3.9697,4.0321,4.1033,4.1686,4.2092,4.2092,4.2092,4.2092,4.2092,4.2092,4.2092,4.2063,4.1468,4.0554,3.9276,3.8565,3.8202,3.8202,3.8202,3.8202,3.8202,3.8202,3.8202,3.8202,3.8202,3.8202,3.8202,3.8202,3.8202,2.8079,2.8295,2.8509,2.8587,2.8603,2.8603,2.8603,2.9035,2.9462,2.9571,3.0051,3.0477,3.0582,3.0598,3.0598,3.0598,3.0598,3.0598,0.0,3.0999,3.1466,3.1864,3.1652,3.1364,3.1087,3.1058,3.0925,3.0613,3.0598,3.0598,3.0598,3.1177,3.151,3.151,3.2804,3.3503,3.3503,3.4095,3.4397,3.4397,3.4397,3.4397,3.4397,3.4397,3.4397,3.4397,3.4397,3.4397,3.4397,3.4397,3.4397,3.4397,3.4397,3.4397,3.4397,3.4397,3.4397,3.4513,3.5354,3.5935,3.6519,3.7796,3.8202,3.8202,3.8202,3.8482,3.8833,3.905,3.922,3.937,3.9583,3.922,3.8811,3.8811,3.8811,3.8811,3.8811,3.8811,3.8811,3.8811,3.8811,3.887,3.9088,4.033,4.1247,4.113,4.1671,4.2092,4.2092,4.2092,4.2092,4.2092,4.2092,4.2092,4.2092,4.1482,4.0728,3.9842,3.9204,3.8667,3.8217,3.8202,3.8202,3.8202,3.8202,3.8202,3.8202,3.8202,3.8202,3.8202,3.8202,3.8202,2.8079,2.8295,2.8509,2.8587,2.8603,2.8603,2.8603,2.9115,2.9587,2.9587,3.0128,3.0598,3.0598,3.0598,3.0598,3.0598,3.0598,3.0702,0.0,3.1321,3.1852,3.2738,3.216,3.1581,3.1336,3.1146,3.0925,3.0613,3.0598,3.0598,3.0598,3.0975,3.1177,3.1177,3.2238,3.2906,3.3138,3.3761,3.4196,3.4397,3.4397,3.4397,3.4397,3.4397,3.4397,3.4397,3.4397,3.4397,3.4397,3.4397,3.4397,3.4397,3.4397,3.4397,3.4397,3.4397,3.4517,3.4861,3.6163,3.6743,3.7057,3.815,3.8519,3.8482,3.8258,3.8612,3.9141,3.9328,3.9636,3.9957,4.015,3.9796,3.9382,3.9382,3.9382,3.9382,3.9382,3.9382,3.9382,3.9382,3.9382,3.9382,3.9382,4.0776,4.1768,4.1429,4.1968,4.2412,4.2412,4.2222,4.2195,4.2392,4.2222,4.2092,4.2092,4.1482,4.08,4.0133,3.9538,3.8899,3.8231,3.8202,3.8318,3.8551,3.8318,3.8318,3.8565,3.8318,3.8202,3.8202,3.8202,3.8202]},{"header":{"parameterUnit":"m.s-1","parameterCategory":1,"la1":30.6,"la2":29.2853,"lo1":-89.7004,"lo2":-87.6739,"dy":0.0162,"dx":0.0183,"nx":112,"ny":82,"refTime":"2023-05-30T06:00:00:Z","depth":0,"parameterNumber":3,"parameterNumberName":"V-component_of_WINDS"},"data":[0.0,0.0,0.0,0.0,0.0,0.0,0.0,0.0,0.0,0.0,0.0,0.0,0.0,0.0,0.0,0.0,0.0,0.0,0.0,0.0,0.0,0.0,0.0,0.0,0.0,0.0,0.0,0.0,0.0,0.0,0.0,0.0,0.0,0.0,0.0,0.0,0.0,0.0,0.0,0.0,0.0,0.0,0.0,0.0,0.0,0.0,0.0,0.0,0.0,0.0,0.0,0.0,0.0,0.0,0.0,0.0,0.0,0.0,0.0,0.0,0.0,0.0,0.0,0.0,0.0,0.0,0.0,0.0,0.0,0.0,0.0,0.0,0.0,0.0,0.0,0.0,0.0,0.0,0.0,0.0,0.0,0.0,0.0,0.0,0.0,0.0,0.0,0.0,0.0,0.0,2.7829,2.7892,2.7484,2.7342,2.77,2.7577,2.7539,2.7675,0.0,0.0,0.0,0.0,0.0,0.0,0.0,0.0,0.0,0.0,0.0,0.0,0.0,0.0,0.0,0.0,0.0,0.0,0.0,0.0,0.0,0.0,0.0,0.0,0.0,0.0,0.0,0.0,0.0,0.0,0.0,0.0,0.0,0.0,0.0,0.0,0.0,0.0,0.0,0.0,0.0,0.0,0.0,0.0,0.0,0.0,0.0,0.0,0.0,0.0,0.0,0.0,0.0,0.0,0.0,0.0,0.0,0.0,0.0,0.0,0.0,0.0,0.0,0.0,0.0,0.0,0.0,0.0,0.0,0.0,0.0,0.0,0.0,0.0,0.0,0.0,0.0,0.0,0.0,0.0,0.0,0.0,0.0,0.0,0.0,0.0,0.0,0.0,0.0,0.0,0.0,0.0,0.0,0.0,0.0,0.0,0.0,0.0,0.0,0.0,0.0,0.0,0.0,0.0,2.83,2.8323,2.794,2.7838,2.825,2.8042,2.7715,2.724,0.0,0.0,0.0,0.0,0.0,0.0,0.0,0.0,0.0,0.0,0.0,0.0,0.0,0.0,0.0,0.0,0.0,0.0,0.0,0.0,0.0,0.0,0.0,0.0,0.0,0.0,0.0,0.0,0.0,0.0,0.0,0.0,0.0,0.0,0.0,0.0,0.0,0.0,0.0,0.0,0.0,0.0,0.0,0.0,0.0,0.0,0.0,0.0,0.0,0.0,0.0,0.0,0.0,0.0,0.0,0.0,0.0,0.0,0.0,0.0,0.0,0.0,0.0,0.0,0.0,0.0,0.0,0.0,0.0,0.0,0.0,0.0,0.0,0.0,0.0,0.0,0.0,0.0,0.0,0.0,0.0,0.0,0.0,0.0,0.0,0.0,0.0,0.0,0.0,0.0,0.0,0.0,0.0,0.0,0.0,0.0,0.0,0.0,0.0,0.0,0.0,0.0,0.0,2.8119,2.7698,2.7698,2.7139,2.6841,2.7036,2.719,2.7178,2.6904,2.7089,0.0,0.0,0.0,0.0,0.0,0.0,0.0,0.0,0.0,0.0,0.0,0.0,0.0,0.0,0.0,0.0,0.0,0.0,0.0,0.0,0.0,0.0,0.0,0.0,0.0,0.0,0.0,0.0,0.0,0.0,0.0,0.0,0.0,0.0,0.0,0.0,0.0,0.0,0.0,0.0,0.0,0.0,0.0,0.0,0.0,0.0,0.0,0.0,0.0,0.0,0.0,0.0,0.0,0.0,0.0,0.0,0.0,0.0,0.0,0.0,0.0,0.0,0.0,0.0,0.0,0.0,0.0,0.0,0.0,0.0,0.0,0.0,0.0,0.0,0.0,0.0,0.0,0.0,0.0,0.0,0.0,0.0,0.0,0.0,0.0,0.0,0.0,0.0,0.0,0.0,0.0,0.0,0.0,0.0,0.0,0.0,0.0,0.0,0.0,0.0,0.0,0.0,2.7938,2.7376,2.7479,2.6747,2.6326,2.6472,2.6814,2.6917,2.6761,2.7037,0.0,0.0,0.0,0.0,0.0,0.0,0.0,0.0,0.0,0.0,0.0,0.0,0.0,0.0,0.0,0.0,0.0,0.0,0.0,0.0,0.0,0.0,0.0,0.0,0.0,0.0,0.0,0.0,0.0,0.0,0.0,0.0,0.0,0.0,0.0,0.0,0.0,0.0,0.0,0.0,0.0,0.0,0.0,0.0,0.0,0.0,0.0,0.0,0.0,0.0,0.0,0.0,0.0,0.0,0.0,0.0,0.0,0.0,0.0,0.0,0.0,0.0,0.0,0.0,0.0,0.0,0.0,0.0,0.0,0.0,0.0,0.0,0.0,0.0,0.0,0.0,0.0,0.0,0.0,0.0,0.0,0.0,0.0,0.0,0.0,0.0,0.0,0.0,0.0,0.0,0.0,0.0,0.0,0.0,0.0,0.0,0.0,0.0,0.0,0.0,0.0,0.0,2.846,2.8167,2.855,2.7813,2.7539,2.8177,2.8029,2.7612,2.6927,2.7087,0.0,0.0,0.0,0.0,0.0,0.0,0.0,0.0,0.0,0.0,0.0,0.0,0.0,0.0,0.0,0.0,0.0,0.0,0.0,0.0,0.0,0.0,0.0,0.0,0.0,0.0,0.0,0.0,0.0,0.0,0.0,0.0,0.0,0.0,0.0,0.0,0.0,0.0,0.0,0.0,0.0,0.0,0.0,0.0,0.0,0.0,0.0,0.0,0.0,0.0,0.0,0.0,0.0,0.0,0.0,0.0,0.0,0.0,0.0,0.0,0.0,0.0,0.0,0.0,0.0,0.0,0.0,0.0,0.0,0.0,0.0,0.0,0.0,0.0,0.0,0.0,0.0,0.0,0.0,0.0,0.0,0.0,0.0,0.0,0.0,0.0,0.0,0.0,0.0,0.0,0.0,0.0,0.0,0.0,0.0,0.0,0.0,0.0,0.0,0.0,0.0,0.0,2.8158,2.7752,2.7479,2.6917,2.6683,2.6941,2.7188,2.7045,2.6373,0.0,0.0,0.0,0.0,0.0,0.0,0.0,0.0,0.0,0.0,0.0,0.0,0.0,0.0,0.0,0.0,0.0,0.0,0.0,0.0,0.0,0.0,0.0,0.0,0.0,0.0,0.0,0.0,0.0,0.0,0.0,0.0,0.0,0.0,0.0,0.0,0.0,0.0,0.0,0.0,0.0,0.0,0.0,0.0,0.0,0.0,0.0,0.0,0.0,0.0,0.0,0.0,0.0,0.0,0.0,0.0,0.0,0.0,0.0,0.0,0.0,0.0,0.0,0.0,0.0,0.0,0.0,0.0,0.0,0.0,0.0,0.0,0.0,0.0,0.0,0.0,0.0,0.0,0.0,0.0,0.0,0.0,0.0,0.0,0.0,0.0,0.0,0.0,0.0,0.0,0.0,0.0,0.0,0.0,0.0,0.0,0.0,0.0,0.0,0.0,0.0,0.0,2.8977,2.8516,2.8021,2.7467,2.7146,2.694,2.6808,2.717,2.7208,2.6701,0.0,0.0,0.0,0.0,0.0,0.0,0.0,0.0,0.0,0.0,0.0,0.0,0.0,0.0,0.0,0.0,0.0,0.0,0.0,0.0,0.0,0.0,0.0,0.0,0.0,0.0,0.0,0.0,0.0,0.0,0.0,0.0,0.0,0.0,0.0,0.0,0.0,0.0,0.0,0.0,0.0,0.0,0.0,0.0,0.0,0.0,0.0,0.0,0.0,0.0,0.0,0.0,0.0,0.0,0.0,0.0,0.0,0.0,0.0,0.0,0.0,0.0,0.0,0.0,0.0,0.0,0.0,0.0,0.0,0.0,0.0,0.0,0.0,0.0,0.0,0.0,0.0,0.0,0.0,0.0,0.0,0.0,0.0,0.0,0.0,0.0,0.0,0.0,0.0,0.0,0.0,0.0,0.0,0.0,0.0,0.0,0.0,0.0,0.0,0.0,0.0,0.0,3.0189,2.9728,2.9275,2.8928,2.8893,2.8724,2.834,2.8427,2.8379,0.0,0.0,0.0,0.0,0.0,0.0,0.0,0.0,0.0,0.0,0.0,0.0,0.0,0.0,0.0,0.0,0.0,0.0,0.0,0.0,0.0,0.0,0.0,0.0,0.0,0.0,0.0,0.0,0.0,0.0,0.0,0.0,0.0,0.0,0.0,0.0,0.0,0.0,0.0,0.0,0.0,0.0,0.0,0.0,0.0,0.0,0.0,0.0,0.0,0.0,0.0,0.0,0.0,0.0,0.0,0.0,0.0,0.0,0.0,0.0,0.0,0.0,0.0,0.0,0.0,0.0,0.0,0.0,0.0,0.0,0.0,0.0,0.0,0.0,0.0,0.0,0.0,0.0,0.0,0.0,0.0,0.0,0.0,0.0,0.0,0.0,0.0,0.0,0.0,0.0,0.0,0.0,0.0,0.0,0.0,0.0,0.0,0.0,0.0,0.0,0.0,0.0,0.0,2.9678,2.9501,2.9168,2.8543,2.8484,2.846,2.8439,2.8475,2.8183,2.7434,0.0,0.0,0.0,0.0,0.0,0.0,0.0,0.0,0.0,0.0,0.0,0.0,0.0,0.0,0.0,0.0,0.0,0.0,0.0,0.0,0.0,0.0,0.0,0.0,0.0,0.0,0.0,0.0,0.0,0.0,0.0,0.0,0.0,0.0,0.0,0.0,0.0,0.0,0.0,0.0,0.0,0.0,0.0,0.0,0.0,0.0,0.0,0.0,0.0,0.0,0.0,0.0,0.0,0.0,0.0,0.0,0.0,0.0,0.0,0.0,0.0,0.0,0.0,0.0,0.0,0.0,0.0,0.0,0.0,0.0,0.0,0.0,0.0,0.0,0.0,0.0,0.0,0.0,0.0,0.0,0.0,0.0,0.0,0.0,0.0,0.0,0.0,0.0,0.0,0.0,0.0,0.0,0.0,0.0,0.0,0.0,0.0,0.0,0.0,0.0,0.0,0.0,2.9968,2.9865,2.959,2.8888,2.9008,2.9054,2.8873,2.8954,2.874,2.8088,0.0,0.0,0.0,0.0,0.0,0.0,0.0,0.0,0.0,0.0,0.0,0.0,0.0,0.0,0.0,0.0,0.0,0.0,0.0,0.0,0.0,0.0,0.0,0.0,0.0,0.0,0.0,0.0,0.0,0.0,0.0,0.0,0.0,0.0,0.0,0.0,0.0,0.0,0.0,0.0,0.0,0.0,0.0,0.0,0.0,0.0,0.0,0.0,0.0,0.0,0.0,0.0,0.0,0.0,0.0,0.0,0.0,0.0,0.0,0.0,0.0,0.0,0.0,0.0,0.0,0.0,0.0,0.0,0.0,0.0,0.0,0.0,0.0,0.0,0.0,0.0,0.0,0.0,0.0,0.0,0.0,0.0,0.0,0.0,0.0,0.0,0.0,0.0,0.0,0.0,0.0,0.0,0.0,0.0,0.0,0.0,0.0,0.0,0.0,0.0,0.0,0.0,3.0722,3.062,3.0326,2.9772,3.0156,3.0194,2.9563,2.9733,2.9777,2.9526,0.0,0.0,0.0,0.0,0.0,0.0,0.0,0.0,0.0,0.0,0.0,0.0,0.0,0.0,0.0,0.0,0.0,0.0,0.0,0.0,0.0,0.0,0.0,0.0,0.0,0.0,0.0,0.0,0.0,0.0,0.0,0.0,0.0,0.0,0.0,0.0,0.0,0.0,0.0,0.0,0.0,0.0,0.0,0.0,0.0,0.0,0.0,0.0,0.0,0.0,0.0,0.0,0.0,0.0,0.0,0.0,0.0,0.0,0.0,0.0,3.3531,3.3506,0.0,0.0,0.0,0.0,0.0,0.0,0.0,0.0,0.0,0.0,0.0,0.0,0.0,0.0,0.0,0.0,0.0,0.0,0.0,0.0,0.0,0.0,0.0,0.0,0.0,0.0,0.0,0.0,0.0,0.0,0.0,0.0,0.0,0.0,0.0,0.0,0.0,0.0,0.0,0.0,3.0925,3.0855,3.0747,3.0563,3.0652,3.0648,3.0431,3.0479,3.0214,2.9536,2.9788,0.0,0.0,0.0,0.0,0.0,0.0,0.0,0.0,0.0,0.0,0.0,0.0,0.0,0.0,0.0,0.0,0.0,0.0,0.0,0.0,0.0,0.0,0.0,0.0,0.0,0.0,0.0,0.0,0.0,0.0,0.0,0.0,0.0,0.0,0.0,0.0,0.0,0.0,0.0,0.0,0.0,0.0,0.0,0.0,0.0,0.0,0.0,0.0,0.0,0.0,0.0,0.0,0.0,0.0,0.0,0.0,0.0,0.0,0.0,3.3657,3.3619,0.0,0.0,0.0,0.0,0.0,0.0,0.0,0.0,0.0,0.0,0.0,0.0,0.0,0.0,0.0,0.0,0.0,0.0,0.0,0.0,0.0,0.0,0.0,0.0,0.0,0.0,0.0,0.0,0.0,0.0,0.0,0.0,0.0,0.0,0.0,0.0,0.0,0.0,0.0,0.0,3.1264,3.1189,3.1123,3.1096,3.1174,3.1213,3.1172,3.1189,3.0981,3.0488,3.0697,0.0,0.0,0.0,0.0,0.0,0.0,0.0,0.0,0.0,0.0,0.0,0.0,0.0,0.0,0.0,0.0,0.0,0.0,0.0,0.0,0.0,0.0,0.0,0.0,0.0,0.0,0.0,0.0,0.0,0.0,0.0,0.0,0.0,0.0,0.0,0.0,0.0,0.0,0.0,0.0,0.0,0.0,0.0,0.0,0.0,0.0,0.0,0.0,0.0,0.0,0.0,0.0,0.0,3.3793,3.3793,3.3807,3.3807,3.3807,3.3807,3.3807,3.3705,3.3556,3.3657,0.0,0.0,0.0,0.0,0.0,0.0,0.0,0.0,0.0,0.0,0.0,0.0,0.0,0.0,0.0,0.0,0.0,0.0,0.0,0.0,0.0,0.0,3.4416,3.4243,3.4174,3.3958,3.3255,0.0,0.0,0.0,0.0,0.0,0.0,0.0,0.0,0.0,0.0,0.0,3.1579,3.1517,3.1481,3.1501,3.1686,3.1805,3.1823,3.1823,3.177,3.1653,3.1643,3.1741,0.0,0.0,0.0,0.0,0.0,0.0,0.0,0.0,0.0,0.0,0.0,0.0,0.0,0.0,0.0,0.0,0.0,0.0,0.0,0.0,0.0,0.0,0.0,0.0,0.0,0.0,0.0,0.0,0.0,0.0,0.0,0.0,3.078,3.0971,0.0,0.0,0.0,0.0,0.0,0.0,0.0,0.0,0.0,0.0,0.0,0.0,0.0,3.3807,3.3807,3.3746,3.3746,3.3807,3.3739,3.3746,3.3807,3.3807,3.3807,3.3807,3.3807,0.0,3.376,3.3719,0.0,0.0,0.0,0.0,0.0,0.0,0.0,0.0,0.0,0.0,0.0,0.0,0.0,0.0,0.0,0.0,0.0,0.0,0.0,0.0,0.0,0.0,3.4653,3.4625,3.4484,3.4505,3.5005,3.4486,3.3896,3.3882,3.3417,3.2974,0.0,0.0,0.0,0.0,0.0,0.0,3.1589,3.1699,3.1793,3.1914,3.21,3.224,3.23,3.2317,3.2283,3.2196,3.2196,3.2205,3.224,3.2877,0.0,0.0,0.0,0.0,0.0,0.0,0.0,0.0,0.0,0.0,0.0,0.0,0.0,0.0,0.0,0.0,0.0,0.0,0.0,0.0,0.0,0.0,0.0,0.0,0.0,0.0,0.0,0.0,0.0,3.1403,3.1836,3.2408,3.2753,3.3,0.0,0.0,0.0,0.0,0.0,0.0,0.0,0.0,0.0,3.3867,3.3809,3.3807,3.3807,3.3773,3.3773,3.3807,3.3773,3.4012,3.4472,3.4472,3.4736,3.5202,3.5202,3.5202,3.5165,3.4646,3.4699,3.5138,0.0,0.0,0.0,0.0,3.5495,3.548,3.5408,3.5355,3.5382,3.5704,0.0,0.0,0.0,0.0,0.0,0.0,0.0,3.6515,3.6343,3.6232,3.614,3.6026,3.5931,3.5959,3.6264,3.5921,3.5495,3.5287,3.4757,3.4208,3.3727,3.2904,0.0,0.0,0.0,3.1746,3.1975,3.2029,3.2162,3.2368,3.2562,3.2753,3.289,3.2906,3.2938,3.2965,3.2943,3.3067,3.3405,3.4248,3.4789,0.0,0.0,0.0,0.0,0.0,0.0,0.0,0.0,0.0,0.0,0.0,0.0,0.0,0.0,0.0,0.0,0.0,0.0,0.0,0.0,0.0,0.0,0.0,0.0,0.0,0.0,0.0,0.0,3.241,3.278,3.3511,3.3556,3.357,0.0,0.0,0.0,0.0,0.0,0.0,3.3895,3.3848,3.3835,3.3868,3.3834,3.3899,3.4112,3.4112,3.4229,3.4431,3.4431,3.4754,3.5334,3.5334,3.569,3.631,3.631,3.642,3.6549,3.5672,3.5655,3.6186,3.649,3.6604,3.6589,3.6479,3.6431,3.6417,3.6311,3.6243,3.6243,3.642,3.6455,3.6401,3.6343,0.0,0.0,0.0,0.0,3.7703,3.7457,3.7391,3.7344,3.7201,3.7106,3.7076,3.7076,3.6808,3.6479,3.6214,3.5607,3.4893,3.4151,3.3274,0.0,3.2284,3.2064,3.2011,3.2266,3.2361,3.2479,3.2736,3.2953,3.3168,3.3337,3.3367,3.3422,3.3541,3.3491,3.3687,3.4157,3.5273,3.5963,3.6173,0.0,0.0,0.0,0.0,0.0,0.0,0.0,0.0,0.0,0.0,0.0,0.0,0.0,0.0,0.0,0.0,0.0,0.0,0.0,0.0,0.0,0.0,0.0,0.0,0.0,0.0,0.0,0.0,0.0,3.3584,3.3598,0.0,0.0,0.0,0.0,3.3888,3.3888,3.3895,3.3895,3.3895,3.3862,3.3814,3.3795,3.4167,3.4924,3.4949,3.536,3.6163,3.6163,3.62,3.6229,3.6229,3.6266,3.631,3.631,3.6732,3.7382,3.6567,3.6266,3.6376,3.7144,3.7437,3.743,3.7355,3.7325,3.7302,3.7106,3.7043,3.7154,3.7853,3.8082,3.8074,3.8074,3.8101,0.0,0.0,3.7906,3.7864,3.7721,3.764,3.7577,3.7567,3.7428,3.7278,3.7278,3.6675,3.607,3.5854,3.4932,3.3975,3.3367,0.0,3.2134,3.2108,3.2205,3.2283,3.2301,3.252,3.2726,3.2866,3.3173,3.3408,3.3488,3.3541,3.3601,3.3684,3.3684,3.373,3.381,3.5286,3.6083,3.6098,3.7588,0.0,0.0,0.0,0.0,0.0,0.0,0.0,0.0,0.0,0.0,0.0,0.0,0.0,0.0,0.0,0.0,0.0,0.0,0.0,0.0,0.0,0.0,0.0,0.0,0.0,0.0,0.0,0.0,3.3584,3.3605,0.0,3.3691,3.3766,3.382,3.3822,3.3847,3.3847,3.3847,3.3847,3.4054,3.4571,3.4564,3.4974,3.5826,3.5837,3.5991,3.631,3.631,3.6567,3.7063,3.7063,3.7356,3.7845,3.7845,3.801,3.8256,3.7955,3.7845,3.7863,3.8157,3.8218,3.8135,3.8123,3.8084,3.8037,3.7965,3.7901,3.7909,3.8135,3.82,3.82,3.82,3.82,3.8165,3.8044,3.7984,3.7933,3.7854,3.7757,3.7649,3.7649,3.7577,3.7351,3.6835,3.6379,3.5818,3.4889,3.4163,3.3646,3.3421,3.2667,3.2126,3.2214,3.2266,3.2344,3.2489,3.2603,3.2774,3.3008,3.3241,3.3444,3.3549,3.3633,3.3712,3.3815,3.3822,3.3855,3.3927,3.5455,3.6255,3.6168,3.7679,3.8496,0.0,0.0,0.0,0.0,0.0,0.0,0.0,0.0,0.0,0.0,0.0,0.0,0.0,0.0,0.0,0.0,0.0,0.0,0.0,0.0,0.0,0.0,0.0,0.0,0.0,3.3422,3.3452,3.3584,3.3584,3.3598,3.3657,3.3726,3.3773,3.3773,3.405,3.4204,3.4204,3.4486,3.4883,3.5426,3.5452,3.5855,3.6696,3.6696,3.6842,3.711,3.711,3.7386,3.7907,3.7907,3.8201,3.8699,3.8658,3.8624,3.8624,3.8619,3.8611,3.8611,3.8616,3.8575,3.8502,3.8478,3.8438,3.839,3.8377,3.8322,3.8257,3.8217,3.82,3.82,3.82,3.82,3.8174,3.8097,3.8019,3.7968,3.7916,3.7784,3.7676,3.7676,3.7631,3.7372,3.6568,3.607,3.5465,3.4314,3.3784,3.3406,3.3143,3.2634,3.2275,3.2292,3.2412,3.2538,3.2688,3.2752,3.2864,3.3057,3.3274,3.3437,3.352,3.3668,3.3766,3.3822,3.3868,3.3914,3.3959,3.5293,3.5989,3.5889,3.7367,3.8315,3.8699,0.0,0.0,0.0,0.0,0.0,0.0,0.0,0.0,0.0,0.0,0.0,0.0,0.0,0.0,0.0,0.0,0.0,0.0,0.0,0.0,0.0,0.0,0.0,3.3364,3.3404,3.3444,3.3577,3.3534,3.3538,3.3635,3.3686,3.3746,3.3764,3.4559,3.5034,3.5034,3.5837,3.631,3.6347,3.6347,3.6714,3.7529,3.7547,3.7925,3.8699,3.8699,3.8689,3.867,3.867,3.8644,3.86,3.8486,3.841,3.8429,3.8349,3.8326,3.8334,3.846,3.8502,3.8494,3.8415,3.8409,3.8374,3.8313,3.8249,3.82,3.82,3.82,3.82,3.82,3.82,3.82,3.8192,3.8038,3.789,3.789,3.7748,3.7595,3.7595,3.7577,3.7336,3.6542,3.573,3.4945,3.4214,3.3748,3.3222,3.2441,3.2454,3.2513,3.2318,3.2639,0.0,3.2892,3.2948,3.2995,3.2995,3.3244,3.3393,3.3393,3.3654,3.3773,3.3698,3.3809,3.3888,3.3888,3.4815,3.5358,3.5393,3.6732,3.7859,3.8699,0.0,0.0,0.0,0.0,0.0,0.0,0.0,0.0,0.0,0.0,0.0,0.0,0.0,0.0,0.0,0.0,0.0,0.0,0.0,0.0,0.0,3.3096,3.3157,3.3307,3.3322,3.3359,3.3444,3.3488,3.3735,3.4331,3.4459,3.4739,3.5316,3.5626,3.5806,3.5806,3.6127,3.6567,3.7144,3.718,3.7558,3.8358,3.8377,3.8487,3.8699,3.8699,3.8395,3.7834,3.7834,3.7455,3.6802,3.6779,3.6723,3.6688,3.6666,3.6658,3.6786,3.7958,3.8401,3.8354,3.833,3.8289,3.8257,3.8224,3.8225,3.82,3.82,3.82,3.8174,3.807,3.8053,3.8036,3.7995,3.7934,3.789,3.789,3.7793,3.7667,3.7667,3.7184,3.6506,3.5694,3.4945,3.4169,3.3374,3.3132,3.2905,3.2387,3.2344,3.2318,3.2188,3.2455,3.268,3.268,3.2876,3.3018,3.3073,3.3308,3.3473,3.3473,3.364,3.3698,3.3622,3.3705,3.376,3.376,3.5119,3.6399,3.7529,3.7984,3.8321,0.0,0.0,0.0,0.0,0.0,0.0,0.0,0.0,0.0,0.0,0.0,0.0,0.0,0.0,0.0,0.0,0.0,0.0,0.0,0.0,0.0,0.0,3.3289,3.357,3.3656,3.3751,3.3813,3.3858,3.4223,3.4649,3.5121,3.5225,3.5445,3.5918,3.6337,3.6565,3.6565,3.6947,3.738,3.7863,3.7882,3.8101,3.857,3.8232,3.8068,3.8068,3.7728,3.7314,3.6864,3.6864,3.6578,3.6061,3.6031,3.5994,3.5948,3.5928,3.5931,3.6004,0.0,0.0,0.0,0.0,3.7237,3.7196,3.7153,3.7145,3.7137,3.7077,3.7069,3.7043,3.6974,3.6958,3.6941,3.6918,3.6866,3.6922,3.7263,3.7264,3.7229,3.7578,3.6952,3.6052,3.5278,3.4462,3.3613,3.2789,3.2655,0.0,3.2275,3.2326,3.2361,3.2135,3.231,3.2471,3.2471,3.2688,3.2842,3.289,3.3124,3.3286,3.3286,3.3462,0.0,0.0,0.0,3.3779,3.4154,3.5085,0.0,0.0,0.0,3.8126,3.8462,3.8475,0.0,0.0,3.847,3.8496,0.0,0.0,0.0,0.0,0.0,0.0,0.0,0.0,0.0,0.0,0.0,0.0,0.0,0.0,0.0,0.0,3.3674,3.415,3.4277,3.4565,3.4704,3.4622,3.5307,3.5806,3.5897,3.5976,3.6059,3.615,3.689,3.732,3.732,3.8018,0.0,0.0,0.0,3.8271,3.8271,3.7471,3.7062,3.7062,3.634,3.5947,3.5855,3.5855,3.5811,3.5713,3.5663,3.5625,3.561,3.5553,3.5532,3.5548,3.5797,3.5882,3.5867,3.5817,3.577,3.5762,3.5706,0.0,0.0,3.5539,3.5568,3.5632,3.5624,3.5678,3.5741,3.5708,3.5669,3.5771,3.6469,3.656,3.6622,3.7254,3.6646,3.5738,3.4995,3.4067,3.3143,3.2441,3.2301,3.2249,3.2108,3.2335,3.2438,3.2117,3.2188,3.2275,3.2275,3.2446,3.2589,3.2605,3.2844,0.0,3.3003,3.3244,3.3359,3.3277,3.3491,3.3993,3.4852,3.5042,3.5845,3.7346,3.7335,3.7658,3.835,3.8231,3.8231,3.835,3.8438,3.8446,0.0,0.0,0.0,0.0,0.0,0.0,0.0,0.0,0.0,0.0,0.0,0.0,0.0,0.0,0.0,3.3775,3.4016,3.4311,3.4917,3.5698,3.597,3.539,3.5507,3.5899,3.6548,3.6719,3.7065,3.7718,3.7955,3.8087,3.8087,3.8296,3.8399,3.8399,3.7763,3.7426,3.7426,3.6632,3.6231,3.6231,3.6074,0.0,3.5024,3.5024,3.4659,3.3986,3.3971,3.3927,3.3886,3.3871,3.3864,3.3991,3.531,3.5794,3.5728,3.573,3.5656,3.5555,3.5547,3.5539,3.5539,3.5504,3.5938,3.647,3.6394,3.6807,0.0,3.7022,3.693,3.6936,3.6927,3.6905,3.6754,3.627,3.5546,3.4761,3.3952,3.3134,3.2494,3.2336,3.2301,3.2223,3.1984,3.2082,3.2117,3.1883,3.2019,3.2144,3.2144,3.2275,3.2446,3.2653,3.2826,3.2963,3.3063,3.3229,3.3277,3.315,3.3872,3.4625,3.5345,3.6156,3.6969,3.7777,3.793,3.8036,3.8077,3.8061,3.8061,3.8077,3.8272,3.8352,0.0,0.0,0.0,0.0,0.0,0.0,0.0,0.0,0.0,0.0,0.0,3.3025,3.3427,0.0,3.374,3.4535,3.4981,3.5382,3.5748,3.655,3.6835,3.6124,3.6461,3.6907,3.7312,3.7408,3.7631,3.802,3.8081,3.8098,3.8098,3.813,3.7965,3.7566,3.716,3.6761,3.6361,3.5556,3.515,3.515,3.4733,3.4342,3.3944,3.3944,3.3715,3.3308,3.3308,3.3286,3.3248,3.3248,3.3248,3.3375,3.4583,3.4826,3.4491,3.4426,3.4613,3.4896,3.4856,3.5109,3.5442,3.5382,3.5626,3.5914,3.5784,3.6007,3.6256,3.6018,3.5944,3.6013,3.6332,3.6391,3.64,3.641,3.5727,3.4888,3.4129,3.3214,3.2434,3.2035,3.193,3.1865,3.1727,3.1763,3.1772,3.166,3.1764,3.1839,3.1839,3.2055,3.2258,3.2386,3.2614,3.2778,3.2832,3.3026,3.3122,3.3057,3.389,3.4731,3.5463,3.6364,3.7184,3.7899,3.7995,3.8021,3.7959,3.7959,3.7959,3.7959,3.8045,3.8114,0.0,0.0,0.0,0.0,0.0,0.0,0.0,3.3057,3.3124,3.3124,3.3257,3.3534,3.4196,3.4303,3.4553,3.5302,3.5936,3.6399,3.656,3.713,3.7335,3.6747,3.7372,3.7864,3.7864,3.7881,3.789,3.789,3.789,3.789,3.789,3.7746,3.7369,3.6722,3.6398,3.5921,3.5272,3.4465,3.4072,3.4054,3.3407,3.3101,3.3101,3.3101,3.3101,3.3101,3.3101,3.3191,3.3335,3.3335,3.3425,3.3632,3.4271,3.4185,3.3682,3.3594,3.3942,3.4464,3.4409,3.4822,3.5342,3.5196,3.5242,3.5331,3.5146,3.518,3.5276,3.5054,3.5006,3.5146,3.5729,3.5904,3.6027,3.6499,3.5993,3.5141,3.4247,3.3369,3.2532,3.1724,3.1538,3.1498,3.1462,3.1452,3.1462,3.1498,3.1557,3.1587,3.1587,3.1838,3.2019,3.2055,3.2327,3.2514,3.253,3.2737,3.2955,3.3138,3.3978,3.4823,3.5647,3.6489,3.7208,3.7828,3.7881,3.7881,3.7864,3.7864,3.7864,3.7864,3.7864,3.7881,3.2834,3.2971,3.294,3.2995,3.2963,3.2908,0.0,3.3463,3.3972,3.3972,3.4481,3.4963,3.507,3.5088,3.5338,3.6131,3.6185,3.6368,3.7095,3.7272,3.7233,3.6991,3.7413,3.7712,3.7712,3.7828,3.789,3.789,3.789,3.789,3.789,3.7225,3.6794,3.6704,3.532,3.4529,3.4439,3.364,3.3219,3.3219,3.3137,3.3101,3.3101,3.3101,3.3101,3.3101,3.3101,3.3514,3.4161,3.4161,3.4593,3.524,3.5273,3.523,3.5167,3.515,3.5118,3.5096,3.5087,3.515,3.5196,3.5004,3.5421,3.5959,3.5764,3.6201,3.6724,3.6514,3.6471,3.642,3.6278,3.6236,3.6077,3.5397,3.515,3.4634,3.3127,3.2708,3.2388,3.1654,3.1507,3.1452,3.1341,3.1315,3.1361,3.1488,3.1507,3.1517,3.1517,3.1596,3.1728,3.1894,3.2055,3.2197,3.2318,3.2361,3.2754,3.3648,3.4532,3.5401,3.6265,3.7228,3.7712,3.764,3.7819,3.7837,3.7712,3.7712,3.7712,3.7712,3.7712,3.7801,3.2745,3.2924,3.2908,3.2932,3.3273,3.3598,3.3598,3.4187,3.4715,3.4595,3.48,3.512,3.5481,3.5551,3.5816,3.6613,3.6678,3.6744,3.7071,3.7124,3.7095,3.7017,3.7174,3.7345,3.7457,3.7521,3.7594,3.7712,3.7721,3.7721,3.7721,3.6969,3.6291,3.574,3.459,3.3721,3.3142,3.2797,3.2638,3.2638,3.3108,3.3338,3.3356,3.3782,3.3968,3.3968,3.3968,3.4172,3.4473,3.4473,3.4677,3.5013,3.5465,3.5633,3.5607,3.5365,3.5473,3.5714,3.5714,3.5952,3.624,3.6148,3.6339,3.6583,3.6386,3.6554,3.6786,3.6534,3.644,3.6384,3.6272,3.618,3.603,3.5662,3.5583,3.5281,3.4185,3.3874,3.3475,3.2307,3.2019,3.18,3.1336,3.1242,3.1252,3.1308,3.1349,3.1387,3.1387,3.1473,3.1615,3.1819,3.1921,3.2055,3.2223,3.2704,3.3178,3.36,3.4817,3.5665,3.6038,3.6909,3.74,3.7428,3.7503,3.7585,3.7649,3.7176,3.689,3.6764,3.6319,3.6096,3.2571,3.2729,3.2782,3.3013,3.3503,3.3991,3.4196,3.4817,3.5315,3.518,3.5312,3.5601,3.6041,3.6135,3.632,3.6919,3.6948,3.6918,3.6918,3.6918,3.6888,3.6811,3.6878,3.6968,3.7132,3.7182,3.7287,3.742,3.7429,3.7429,3.7429,3.6478,3.5616,3.4933,3.3917,3.3036,3.2301,3.2529,3.2625,3.2634,3.3432,3.3792,3.3809,3.4361,3.4606,3.4606,3.4606,3.4729,3.4931,3.4931,3.5054,3.5327,3.5907,3.6135,3.6103,3.5801,3.5961,3.6354,3.6354,3.6639,3.6997,3.6938,3.6918,3.6869,3.6664,3.6582,3.652,3.6329,3.6202,3.6144,3.6144,3.6062,3.5986,3.5954,3.5943,3.5716,3.4902,3.4657,3.4208,3.2886,3.2553,3.2316,3.1793,3.1709,3.1641,3.1449,3.1458,3.1443,3.1281,3.1368,3.1519,3.1698,3.1936,3.215,3.2295,3.3081,3.3687,3.397,3.5038,3.5793,3.6118,3.6681,3.7076,3.7211,3.7211,3.7173,3.7101,3.6523,3.606,3.5702,3.5172,3.4729,3.2309,3.2318,3.2511,3.3292,3.3512,3.3713,3.4414,3.5205,3.5776,3.5767,3.6383,3.6937,3.6954,3.6954,3.6972,3.7007,3.6846,3.6712,3.6712,3.6712,3.6613,3.6353,3.6544,3.6712,3.6722,3.6888,3.7017,3.7027,3.7027,3.7027,3.7027,3.5576,3.4751,3.4706,3.3178,3.2327,3.2301,3.3064,3.345,3.3467,3.4203,3.4571,3.4571,3.4589,3.4606,3.4606,3.4606,3.5037,3.5757,3.5757,3.6223,3.6937,3.6954,3.6954,3.6954,3.6947,3.6964,3.6972,3.6972,3.6972,3.6968,3.6766,3.6712,3.6654,3.6391,3.6265,3.6215,3.6215,3.6112,3.6008,3.6008,3.5997,3.5965,3.5839,3.5806,3.5519,3.4531,3.4308,3.4045,3.3159,3.2976,3.2976,3.2942,3.2942,3.2719,3.2081,3.198,3.1795,3.1272,3.1254,3.1361,3.1498,3.2149,3.2576,3.2586,3.3279,3.413,3.5193,3.529,3.5804,3.6917,3.6989,3.6989,3.7017,3.7017,3.663,3.5849,3.5832,3.5454,3.4743,3.4725,3.4294,3.2301,3.2687,3.3152,3.3432,3.4266,3.509,3.5344,3.6012,3.6562,3.6414,3.6621,3.6755,3.6578,3.653,3.653,3.653,3.6485,3.6433,3.6433,3.6398,3.6325,3.6251,3.624,3.624,3.624,3.6575,3.6866,3.6997,3.7007,3.7007,3.7007,3.554,3.4641,3.4501,3.2982,3.2335,3.2693,3.298,3.3379,3.39,3.4653,3.525,3.5736,3.5736,3.5736,3.5736,3.5736,3.5885,3.6138,3.6138,3.6294,3.6519,3.6492,3.6471,3.6461,3.6371,3.6339,3.6381,3.6687,3.6687,3.6527,3.6398,3.6374,3.6325,3.6159,3.6084,3.6079,3.6079,3.5971,3.585,3.5756,3.5706,3.5633,3.5509,3.5475,3.5385,3.5036,3.4958,3.4734,3.3957,3.3796,3.3617,3.3082,3.2998,3.2915,3.2691,3.2278,3.1934,3.1755,3.2218,3.2577,3.2614,3.3005,3.3267,3.3267,3.4031,3.4654,3.4998,3.5489,3.5979,3.6444,3.6471,3.6575,3.6796,3.6806,3.6736,3.6586,3.6067,3.5604,3.5217,3.4179,3.3494,3.2368,3.2875,3.3425,3.3966,3.4818,3.56,3.5879,3.6312,3.6609,3.6489,3.6457,3.6398,3.6216,3.6184,3.6184,3.6184,3.6184,3.6184,3.6184,3.6165,3.6122,3.6122,3.6041,3.5997,3.5997,3.6272,3.6523,3.6708,3.67,3.67,3.67,3.5254,3.4453,3.4582,3.3085,3.257,3.3184,3.3459,3.4018,3.4775,3.5256,3.5731,3.6184,3.6184,3.6184,3.6184,3.6184,3.6184,3.6184,3.6184,3.6184,3.6202,3.6155,3.6122,3.6122,3.603,3.5997,3.6041,3.6346,3.6346,3.6191,3.6144,3.6122,3.6112,3.6019,3.5932,3.5855,3.5855,3.5734,3.5594,3.5515,3.5463,3.5412,3.5314,3.5291,3.528,3.5245,3.5233,3.506,3.4551,3.4456,3.429,3.3773,3.3473,3.329,3.329,3.2917,3.2566,3.2384,3.2817,3.3134,3.3134,3.3537,3.3823,3.3848,3.4635,3.5153,3.5211,3.5665,3.5993,3.6122,3.6122,3.6229,3.6447,3.6457,3.6374,3.6249,3.5725,3.5263,3.4822,3.3836,3.331,3.2415,3.2857,3.3321,3.4815,3.5122,3.5256,3.6021,3.6101,3.5997,3.5997,3.5997,3.5997,3.5997,3.5997,3.5997,3.5997,3.5997,3.5997,3.5997,3.5997,3.5986,3.5986,3.5986,3.5975,3.5975,3.5975,3.6047,3.6182,3.6193,3.6193,3.6193,3.4758,3.4243,3.4886,3.3447,3.301,3.3745,3.4551,3.5314,3.5997,3.5997,3.5997,3.5997,3.5997,3.5997,3.5997,3.5997,3.5997,3.5997,3.5997,3.5997,3.5997,3.5986,3.5986,3.5986,3.5986,3.5975,3.5975,3.5975,3.5986,3.5997,3.5986,3.5986,3.5986,3.5975,3.58,3.5588,3.5588,3.5447,3.5291,3.5291,3.528,3.528,3.528,3.528,3.5245,3.5128,3.5093,3.5053,3.4923,3.4899,3.4899,3.4899,3.4331,3.3867,3.3867,3.3867,3.3654,3.3105,3.3071,3.3116,3.3116,3.3801,3.4276,3.4353,3.5043,3.5566,3.5762,3.5773,3.585,3.5975,3.5986,3.5997,3.5997,3.5997,3.5655,3.4955,3.4955,3.4551,3.3813,3.3779,3.3762,3.1929,3.294,3.3971,3.4773,3.536,3.5801,3.6006,3.6019,3.5997,3.5997,3.5997,3.5997,3.5997,3.5997,3.5997,3.5997,3.5997,3.5997,3.5997,3.591,3.585,3.585,3.5756,3.57,3.57,3.57,3.5756,3.5883,3.5993,3.6041,3.6041,3.5168,3.4719,3.4886,3.3943,3.3806,3.4585,3.5348,3.5809,3.5997,3.5997,3.5997,3.5997,3.5997,3.5997,3.5997,3.5997,3.5997,3.5997,3.5997,3.5997,3.5986,3.5894,3.585,3.5839,3.5734,3.57,3.57,3.57,3.5833,3.5986,3.5877,3.585,3.5828,3.5678,3.5577,3.5498,3.5389,3.5337,3.528,3.5187,3.5163,3.514,3.5029,3.4994,3.4994,3.4958,3.4958,3.4947,3.4911,3.4899,3.4899,3.4899,3.4733,3.4618,3.4618,3.4618,3.4376,3.3687,3.4161,3.4556,3.4556,3.4843,3.5029,3.5036,3.5231,3.5372,3.5429,3.552,3.5622,3.57,3.5806,3.5905,3.5997,3.5997,3.5912,3.5724,3.5724,3.5604,3.5388,3.4841,3.4585,3.2452,3.3603,3.4606,3.5232,3.5646,3.5916,3.5916,3.5866,3.5822,3.5822,3.5822,3.5822,3.5822,3.5822,3.5822,3.5822,3.5822,3.5822,3.5822,3.5756,3.57,3.57,3.5644,3.56,3.56,3.5915,3.5994,3.5684,3.5817,3.5916,3.5916,3.5211,3.4934,3.5193,3.4461,3.4427,3.521,3.5618,3.5822,3.5822,3.5822,3.5822,3.5822,3.5822,3.5822,3.5822,3.5795,3.5773,3.579,3.5717,3.5695,3.5684,3.5605,3.5571,3.556,3.5492,3.5469,3.5469,3.5469,3.5571,3.5695,3.5661,3.5633,3.5566,3.5457,3.536,3.5303,3.5233,3.5175,3.5116,3.5029,3.497,3.4911,3.4839,3.478,3.4715,3.4715,3.4715,3.4715,3.4715,3.4715,3.4715,3.4715,3.4715,3.4715,3.4715,3.4715,3.4567,3.4155,3.4634,3.5006,3.5006,3.5076,3.5152,3.521,3.521,3.5245,3.5308,3.536,3.5452,3.5549,3.5633,3.5717,3.5822,3.5822,3.5822,3.5822,3.5822,3.5822,3.5805,3.5397,3.521,3.3307,3.432,3.5044,3.5685,3.58,3.5773,3.5762,3.5673,3.5577,3.5566,3.5554,3.5554,3.5554,3.5566,3.5577,3.5577,3.5577,3.5577,3.5577,3.5566,3.5554,3.5554,3.5554,3.5588,3.5706,3.6337,3.6471,3.5817,3.5836,3.5847,3.5745,3.5123,3.5017,3.5549,3.4935,3.4907,3.5554,3.5554,3.5554,3.5554,3.5554,3.5554,3.5554,3.5554,3.5554,3.5554,3.5498,3.5469,3.5469,3.5354,3.5291,3.5291,3.5291,3.5291,3.5291,3.5291,3.5291,3.5291,3.5291,3.528,3.5308,3.5434,3.54,3.5291,3.528,3.5198,3.5105,3.5076,3.4982,3.4899,3.4887,3.4792,3.4707,3.4679,3.4582,3.4497,3.4497,3.4497,3.4497,3.4497,3.4497,3.4497,3.4497,3.4497,3.4497,3.4497,3.4497,3.4497,3.4497,3.4715,3.4875,3.4875,3.4887,3.4947,3.5065,3.5065,3.5128,3.5245,3.5268,3.5343,3.5446,3.5469,3.5498,3.5554,3.5554,3.5554,3.5554,3.5554,3.5554,3.5554,3.5577,3.5577,3.2939,3.3971,3.4843,3.4976,3.5316,3.5628,3.5554,3.552,3.5492,3.5372,3.5349,3.5349,3.5349,3.5441,3.5526,3.5526,3.5526,3.5526,3.5526,3.5418,3.5349,3.5349,3.5349,3.5584,3.6192,3.6388,3.6662,3.7128,3.6623,3.6026,3.5417,3.5277,3.5238,3.536,3.5226,3.5226,3.5349,3.5349,3.5349,3.5349,3.5349,3.5349,3.5349,3.5349,3.5349,3.5349,3.5337,3.5326,3.5326,3.5303,3.5291,3.5291,3.5291,3.5291,3.5291,3.5291,3.5291,3.5291,3.5291,3.5233,3.5163,3.5291,3.5314,3.528,3.5175,3.5128,3.5076,3.497,3.4923,3.4875,3.4751,3.4715,3.4667,3.4558,3.4521,3.4497,3.4497,3.4497,3.4497,3.4497,3.4497,3.4497,3.4497,3.4497,3.4497,3.4497,3.4497,3.4497,3.4497,3.4631,3.4727,3.4727,3.4839,3.4911,3.4935,3.4935,3.4947,3.497,3.5065,3.5152,3.5175,3.5268,3.5337,3.5349,3.5349,3.5349,3.5349,3.5349,3.5349,3.536,3.548,3.5526,3.2729,3.3723,3.4589,3.4589,3.5015,3.5452,3.5395,3.54,3.5389,3.5303,3.5291,3.5291,3.5291,3.5349,3.54,3.54,3.54,3.54,3.54,3.5337,3.5291,3.5291,3.5643,3.6011,3.6367,3.7087,3.7502,3.7394,3.7423,3.6976,3.5932,3.5509,3.5291,3.5291,3.5291,3.5291,3.5291,3.5291,3.5291,3.5291,3.5291,3.5291,3.5291,3.5291,3.5291,3.5308,3.5233,3.5013,3.4718,3.4691,3.4493,3.421,3.421,3.421,3.4251,3.4554,3.4683,3.472,3.4994,3.5006,3.4899,3.497,3.5029,3.5076,3.5018,3.4947,3.4887,3.4799,3.4756,3.4679,3.4606,3.4546,3.4472,3.4411,3.4337,3.4288,3.4288,3.4288,3.4288,3.4288,3.4288,3.4288,3.4288,3.4288,3.4288,3.4288,3.4288,3.4288,3.4288,3.4411,3.4521,3.4582,3.472,3.4804,3.4804,3.4863,3.4899,3.4899,3.4958,3.5029,3.5088,3.5163,3.5233,3.5291,3.5291,3.5291,3.5291,3.5291,3.5291,3.5291,3.5377,3.5602,3.2832,3.3767,3.4569,3.4448,3.4854,3.5291,3.5268,3.5256,3.5245,3.5222,3.521,3.521,3.521,3.5245,3.5256,3.5256,3.5256,3.5256,3.5256,3.5233,3.521,3.521,3.5878,3.6384,3.6534,3.7736,3.8287,3.7701,3.7781,3.7405,3.6372,3.5611,3.521,3.521,3.521,3.521,3.521,3.521,3.5163,3.5041,3.5163,3.5163,3.5041,3.5163,3.5163,3.5041,3.4935,3.4525,3.3932,3.393,3.3594,3.3103,3.3277,3.3316,3.3368,3.3955,3.4188,3.425,3.4667,3.4756,3.4655,3.4655,3.4732,3.4799,3.4799,3.4727,3.4655,3.4655,3.4582,3.4497,3.446,3.4386,3.4288,3.4263,3.4176,3.4101,3.4101,3.4101,3.4101,3.4101,3.4101,3.4101,3.4101,3.4101,3.4101,3.4101,3.4101,3.4101,3.4101,3.4188,3.43,3.4399,3.4558,3.4655,3.4655,3.4739,3.4799,3.4799,3.4839,3.4911,3.5006,3.5041,3.5116,3.521,3.521,3.521,3.521,3.521,3.5305,3.5444,3.5479,3.5897,3.3518,3.4358,3.51,3.4618,3.4899,3.5268,3.5152,3.5128,3.5076,3.4958,3.4947,3.4947,3.4947,3.5046,3.5128,3.5128,3.5128,3.5128,3.5128,3.5006,3.4947,3.4947,3.5598,3.6311,3.6962,3.7757,3.8404,3.882,3.7089,3.6052,3.6042,3.5333,3.4947,3.4947,3.4947,3.4947,3.4947,3.4947,3.4691,3.4213,3.4703,3.4679,3.4226,3.4703,3.4667,3.4213,3.4201,3.379,3.3119,3.3237,3.3077,3.2821,3.3543,3.3723,3.3636,3.4243,3.446,3.4472,3.4521,3.4521,3.4521,3.4521,3.4521,3.4533,3.4533,3.4521,3.4521,3.4521,3.4509,3.4472,3.4349,3.4312,3.4275,3.4151,3.4113,3.4101,3.4101,3.4101,3.4101,3.4101,3.4101,3.4101,3.4101,3.4101,3.4101,3.4101,3.4101,3.4101,3.4101,3.4113,3.4126,3.4138,3.4374,3.4521,3.4521,3.4521,3.4533,3.4533,3.4643,3.4715,3.4744,3.4851,3.4923,3.4935,3.4947,3.4947,3.4947,3.4947,3.5283,3.5946,3.6068,3.6504,3.2339,3.292,3.3578,3.3694,3.4156,3.4643,3.4923,3.4982,3.4958,3.4911,3.4899,3.4899,3.4899,3.4947,3.4982,3.4982,3.4982,3.4982,3.4982,3.4935,3.4899,3.4899,3.5943,3.675,3.6955,3.7678,3.8017,3.7687,3.6479,3.5751,3.583,3.4744,3.4288,3.4643,3.4655,3.4476,3.4123,3.4123,3.3831,3.3261,3.3843,3.3818,3.3277,3.3856,3.3805,3.3264,3.3264,3.2904,3.2334,3.2389,3.2156,3.178,3.209,3.2174,3.2158,3.273,3.2931,3.2984,3.33,3.3365,3.3287,3.3287,3.3266,3.3387,3.4247,3.4448,3.4386,3.4386,3.4325,3.425,3.4188,3.4176,3.4163,3.4113,3.4101,3.4101,3.4101,3.4101,3.4101,3.4101,3.4101,3.4101,3.4101,3.4101,3.4101,3.4101,3.4101,3.4101,3.4101,3.4101,3.4101,3.4101,3.4275,3.4386,3.4386,3.4448,3.4497,3.4497,3.4546,3.4623,3.4707,3.4739,3.4828,3.4899,3.5346,3.5562,3.5562,3.6009,3.639,3.6671,3.6721,3.7144,3.1768,3.2203,3.2776,3.3332,3.379,3.4238,3.4792,3.4899,3.4899,3.4899,3.4899,3.4899,3.4899,3.4899,3.4899,3.4899,3.4899,3.4899,3.4899,3.4751,3.4713,3.4861,3.5822,3.6499,3.6534,3.7217,3.7396,3.6798,3.5858,3.5389,3.5573,3.4091,3.3546,3.4205,3.4065,3.3755,3.3336,3.3321,3.3032,3.247,3.3045,3.3035,3.2483,3.3058,3.3019,3.247,3.247,3.2127,3.1579,3.1651,3.1393,3.0969,3.119,3.1249,3.1292,3.185,3.206,3.2102,3.2472,3.254,3.2473,3.2473,3.2449,3.2588,3.3569,3.3803,3.3739,3.3739,3.3777,3.3828,3.3828,3.3971,3.4101,3.4101,3.4101,3.4075,3.4,3.3975,3.3962,3.3873,3.386,3.386,3.386,3.386,3.3886,3.3962,3.3911,3.3924,3.4075,3.4038,3.4013,3.4088,3.4188,3.4238,3.4238,3.4325,3.4386,3.4386,3.4423,3.4485,3.4582,3.4832,3.5008,3.5122,3.5803,3.6183,3.6183,3.6698,3.7061,3.7289,3.7289,3.7655,3.2398,3.2774,3.3329,3.3946,3.4101,3.4238,3.4792,3.4899,3.4899,3.4899,3.4899,3.4899,3.4899,3.4899,3.4899,3.4899,3.4899,3.4899,3.4899,3.4436,3.428,3.4748,3.492,3.5192,3.5661,3.6272,3.66,3.6615,3.5245,3.468,3.5262,3.3472,3.2773,3.3588,3.3032,3.2712,3.2712,3.2712,3.2442,3.1903,3.2456,3.2429,3.1932,3.2454,3.2415,3.1918,3.1918,3.1493,3.0821,3.1028,3.091,3.0672,3.1407,3.1608,3.1566,3.216,3.2398,3.2398,3.2398,3.2398,3.2398,3.2398,3.2398,3.2398,3.2425,3.2425,3.2425,3.2425,3.2801,3.3211,3.3211,3.3646,3.4101,3.4101,3.4101,3.4025,3.3758,3.3694,3.3633,3.3359,3.3309,3.3309,3.3309,3.3309,3.3398,3.3655,3.3477,3.3503,3.4038,3.386,3.3809,3.4075,3.4101,3.4101,3.4101,3.4101,3.4101,3.4101,3.4226,3.43,3.43,3.5122,3.559,3.559,3.6249,3.6597,3.6597,3.6604,3.698,3.7691,3.7691,3.8084,3.2506,3.2788,3.3342,3.3958,3.4101,3.4238,3.4792,3.4899,3.4899,3.4899,3.4899,3.4899,3.4899,3.4899,3.4899,3.4899,3.4828,3.4614,3.421,3.428,3.4457,3.4698,3.5504,3.5912,3.566,3.5714,3.5594,3.5137,3.4649,3.4471,3.46,3.3692,3.3229,3.3393,3.2803,3.2296,3.1877,3.1877,3.1579,3.1028,3.1593,3.1564,3.1028,3.1607,3.1564,3.1014,3.1014,3.0881,3.0672,3.0732,3.0702,3.0613,3.0851,3.0925,3.0911,3.1102,3.1175,3.1175,3.1175,3.1175,3.1175,3.1175,3.1175,3.1175,3.1175,3.1752,3.2479,3.2841,3.3066,3.329,3.371,3.3958,3.4101,3.4101,3.3962,3.3797,3.3707,3.3555,3.3398,3.3322,3.3309,3.3309,3.3309,3.3309,3.3335,3.3411,3.3346,3.3359,3.3529,3.3645,3.372,3.3822,3.3987,3.4101,3.4101,3.4101,3.4101,3.4101,3.4605,3.496,3.5062,3.5759,3.6186,3.6269,3.699,3.735,3.735,3.7858,3.8218,3.8461,3.8461,3.8575,3.2654,3.2641,3.3095,3.3895,3.4101,3.4238,3.4792,3.4899,3.4899,3.4899,3.4899,3.4899,3.4899,3.4899,3.4899,3.4899,3.4828,3.4626,3.4198,3.4218,3.4275,3.4277,3.5129,3.5568,3.5176,3.5072,3.4839,3.4431,3.4397,3.4376,3.4348,3.3802,3.3451,3.3382,3.2524,3.1777,3.1175,3.1161,3.097,3.0598,3.0984,3.0955,3.0613,3.0984,3.097,3.0598,3.0598,3.0598,0.0,3.0598,3.0598,3.0598,3.0598,3.0598,3.0598,3.0598,3.0598,3.0598,3.0598,3.0598,3.0598,3.0598,3.0553,3.0477,3.0431,3.097,3.168,3.2015,3.2362,3.2732,3.3095,3.3494,3.3797,3.3797,3.3668,3.3516,3.3411,3.3269,3.311,3.2971,3.2958,3.2958,3.2958,3.2958,3.2998,3.3123,3.304,3.3038,3.3282,3.3359,3.3437,3.3542,3.3921,3.4224,3.4352,3.4455,3.4518,3.4518,3.5215,3.5646,3.5737,3.6377,3.679,3.6851,3.7582,3.7957,3.7957,3.8427,3.8655,3.8655,3.8655,3.8655,0.0,3.2547,3.2832,3.3895,3.4163,3.4288,3.4792,3.4899,0.0,3.4899,3.4899,3.4899,3.4899,3.4899,3.4887,3.4887,3.4875,3.4804,3.4631,3.4219,3.3866,3.3668,3.4137,3.445,3.4414,3.4397,3.4397,3.4397,3.4397,3.4397,3.4397,3.3848,3.3514,3.3487,3.2264,3.1307,3.0655,3.067,3.0641,3.0568,3.0568,3.0568,3.0553,3.0553,3.0568,3.0568,3.0568,3.0583,3.0598,3.0598,3.0598,3.0598,3.0598,3.0598,3.0598,3.0598,3.0583,3.0568,3.0568,3.0568,3.0553,3.0553,3.0432,3.0266,3.0142,3.0189,3.0282,3.0342,3.0984,3.1664,3.1693,3.2451,3.32,3.32,3.3187,3.3107,3.2881,3.2829,3.2732,3.2453,3.2398,3.2398,3.2398,3.2398,3.2509,3.2829,3.2607,3.2619,3.3223,3.3108,3.3069,3.3384,3.3979,3.4496,3.4819,3.5097,3.525,3.5279,3.5963,3.637,3.637,3.7018,3.739,3.739,3.8051,3.8391,3.8391,3.8391,3.8391,3.8391,3.8391,3.8391,3.3688,0.0,3.4382,3.4643,3.4703,3.4756,0.0,3.4899,3.4899,3.4899,3.4899,3.4899,3.4899,3.4816,3.4756,3.4756,3.457,3.4271,3.3767,3.4035,3.4244,3.4145,3.4746,3.4971,3.4448,3.4397,3.4397,3.4397,3.4397,3.4397,3.4397,3.4117,3.3746,3.3289,3.2955,3.2311,3.1292,3.1278,3.0985,3.0372,3.0372,3.0311,3.0218,3.0218,3.0265,3.0372,3.0372,3.0462,3.0598,3.0598,3.0598,3.0598,3.0598,3.0598,3.0598,3.0598,3.0492,3.0372,3.0372,3.0296,3.0218,3.0218,3.0188,3.0142,3.0111,3.0126,3.0249,3.0703,3.0999,3.1261,3.1735,3.2031,3.2241,3.2241,3.2031,3.1934,3.2215,3.2134,3.2065,3.2356,3.2398,3.2398,3.2398,3.2398,3.2425,3.2509,3.2453,3.2638,3.3288,3.3549,3.389,3.4462,3.485,3.5098,3.5168,3.5484,3.5771,3.603,3.6694,3.7066,3.7066,3.7762,3.8149,3.8149,3.8311,3.8391,3.8391,3.8391,3.8391,3.8391,3.8391,3.8391,3.437,3.4497,3.4594,3.4839,3.4899,3.4899,3.4899,3.4899,3.4899,3.4899,3.4899,3.4887,3.4828,3.4756,3.4679,3.4618,3.4485,3.4273,3.3918,3.414,3.4333,3.4304,3.4672,3.4804,3.4448,3.4329,3.4247,3.4247,3.421,3.4174,3.4174,3.4071,3.3862,3.3535,3.352,3.2936,3.1691,3.1513,3.1196,3.0757,3.0379,3.0204,3.0189,3.0126,3.0142,3.0219,3.0281,3.0326,3.0371,3.0447,3.0431,3.0371,3.0371,3.0371,3.0371,3.0371,3.031,3.0219,3.0219,3.0158,3.008,2.9989,2.996,3.0001,3.0222,3.0276,3.0313,3.0415,3.0569,3.0763,3.1087,3.132,3.1493,3.1493,3.1349,3.1349,3.1823,3.1809,3.1838,3.2315,3.2644,3.2859,3.2859,3.3151,3.3351,3.3351,3.3351,3.3489,3.3859,3.4064,3.4318,3.4676,3.5133,3.5451,3.5565,3.6037,3.6343,3.635,3.6972,3.7356,3.7356,3.7738,3.7931,3.7931,3.7931,3.7931,3.7931,3.7931,3.7931,3.7931,3.7931,3.7931,3.4887,3.457,3.4337,3.4792,3.4899,3.4899,3.4899,3.4899,3.4899,3.4875,3.4875,3.4828,3.4691,3.4643,3.4594,3.4485,3.4456,3.4451,3.4388,3.4346,3.43,3.4308,3.4367,3.4397,3.4363,3.4196,3.4094,3.4059,3.3968,3.3896,3.3896,3.3879,3.3862,3.3862,3.3862,3.3283,3.2134,3.175,3.1473,3.1341,3.0569,3.0255,3.0318,3.0109,3.0034,3.0065,3.0174,3.0174,3.0111,3.0219,3.0204,3.0096,3.0096,3.0096,3.0096,3.0096,3.008,3.0036,3.0034,3.0076,3.0116,2.9949,2.9988,3.0127,3.0534,3.0654,3.0574,3.0168,3.0246,3.0476,3.0476,3.0782,3.107,3.107,3.107,3.1204,3.1662,3.178,3.191,3.2396,3.294,3.3351,3.3423,3.3958,3.4417,3.449,3.4505,3.4536,3.4643,3.4659,3.469,3.4783,3.5306,3.5751,3.596,3.655,3.678,3.6437,3.7027,3.7402,3.7402,3.7402,3.7402,3.7402,3.7402,3.7402,3.7402,3.7402,3.7402,3.7402,3.7402,3.7402,3.478,3.4839,3.4804,3.4887,3.4899,3.4899,3.4899,3.4899,3.4875,3.4739,3.4727,3.4679,3.4558,3.4436,3.4349,3.4337,3.4275,3.4256,3.4311,3.4318,3.4319,3.4382,3.4392,3.4329,3.4162,3.4128,3.4042,3.3934,3.3899,3.3896,3.3896,3.3727,3.364,3.364,3.364,3.3468,3.3097,3.2802,3.2304,3.163,3.1006,3.0598,3.0457,2.992,2.9742,2.9853,2.9869,2.996,3.0096,3.0126,3.0126,3.0096,3.0096,3.0096,3.0096,3.0096,2.9989,2.9838,2.9727,3.0017,3.0423,3.0391,3.0787,3.1237,3.1319,3.1345,3.1316,3.1251,3.1272,3.1319,3.1319,3.137,3.1419,3.1419,3.1419,3.1549,3.2019,3.2114,3.2256,3.2741,3.2908,3.3122,3.3578,3.3759,3.3985,3.4431,3.4505,3.4705,3.526,3.5352,3.5552,3.6138,3.6292,3.6369,3.64,3.6508,3.6538,3.6492,3.7056,3.7402,3.7402,3.7402,3.7402,3.7402,3.7402,3.7402,3.7402,3.7402,3.7402,3.7402,3.7402,3.7402,3.4839,3.4899,3.4899,3.4899,3.4899,3.4899,3.4899,3.4899,3.4863,3.4732,3.4691,3.4631,3.4436,3.4337,3.4405,3.4733,3.479,3.4812,3.4844,3.4877,3.4731,3.4288,3.423,3.4162,3.4005,3.3885,3.3799,3.3727,3.364,3.357,3.357,3.3483,3.3448,3.3448,3.3448,3.3396,3.3308,3.3187,3.2806,3.2186,3.1495,3.1166,3.1107,3.0407,3.011,3.0147,2.9918,2.9821,2.9849,2.9898,2.9897,2.9834,2.9834,2.9834,2.9834,2.9834,2.9985,3.0175,3.011,3.05,3.105,3.105,3.1246,3.1572,3.1893,3.1991,3.2047,3.2384,3.2005,3.1502,3.1502,3.1502,3.1502,3.1502,3.1502,3.1634,3.211,3.2193,3.2338,3.2802,3.3192,3.3618,3.4148,3.4542,3.4861,3.5109,3.5401,3.56,3.5613,3.586,3.6168,3.6476,3.6507,3.6507,3.6507,3.6507,3.6507,3.6507,3.677,3.6907,3.6907,3.6907,3.6907,3.6907,3.6907,3.6907,3.6907,3.6907,3.6907,3.6907,3.6907,3.6907,3.4899,3.4899,3.4899,3.4899,3.5032,3.5114,3.4932,3.5008,3.5014,3.4728,3.4618,3.4533,3.43,3.438,3.4664,3.5114,3.5263,3.5297,3.5261,3.5157,3.4841,3.4128,3.4042,3.3988,3.383,3.3692,3.357,3.3536,3.3396,3.3308,3.3308,3.3308,3.3308,3.3308,3.3308,3.3308,3.3308,3.3308,3.3125,3.2752,3.2058,3.1763,3.1837,3.1085,3.0724,3.0712,3.0192,2.9909,2.9813,2.9769,2.9697,2.9587,2.9587,2.9685,2.9812,2.9812,3.0191,3.0724,3.0724,3.116,3.171,3.171,3.1808,3.2005,3.2483,3.2606,3.2704,3.3168,3.262,3.1921,3.1921,3.1921,3.1921,3.1921,3.1921,3.2021,3.239,3.2458,3.2559,3.2921,3.3411,3.3926,3.4475,3.4989,3.5366,3.5495,3.5974,3.6148,3.5752,3.6164,3.6507,3.6507,3.6398,3.6305,3.6305,3.6429,3.6507,3.6507,3.6507,3.6507,3.6507,3.6507,3.6507,3.6507,3.6507,3.6507,3.6507,3.6507,3.6507,3.6507,3.6507,3.6507,3.4899,3.4899,3.4899,3.4899,3.5413,3.5744,3.5048,3.5332,3.549,3.4681,3.4411,3.4288,3.4138,3.4677,3.5146,3.5195,3.5252,3.5261,3.5126,3.4577,3.4128,3.3948,3.3899,3.3845,3.364,3.3605,3.3518,3.3343,3.3308,3.3308,3.3308,3.3308,3.3308,3.3308,3.3308,3.3308,3.3308,3.3308,3.328,3.3241,3.2637,3.2342,3.2331,3.1713,3.1429,3.1387,3.0726,3.0429,3.0401,2.9841,2.9602,2.9587,2.9587,2.9938,3.0443,3.0443,3.0851,3.1429,3.1429,3.1822,3.2342,3.2342,3.2704,3.3182,3.3224,3.3238,3.3238,3.3294,3.3238,3.3168,3.3168,3.3168,3.3168,3.3168,3.3168,3.3168,3.3203,3.322,3.3237,3.3272,3.3301,3.3506,3.4047,3.4177,3.4375,3.4876,3.5415,3.5736,3.5704,3.6164,3.6507,3.6507,3.6053,3.5752,3.5752,3.6195,3.6507,3.6507,3.6507,3.6507,3.6507,3.6507,3.6507,3.6507,3.6507,3.6507,3.6507,3.6507,3.6507,3.6507,3.6507,3.6507,3.4816,3.4899,3.5015,3.5462,3.5794,3.5902,3.5547,3.5634,3.5663,3.5159,3.4647,3.4393,3.4722,3.5004,3.549,3.6367,3.652,3.6398,3.5968,3.5589,3.4976,3.402,3.3793,3.3623,3.3431,3.3413,3.3378,3.3308,3.3308,3.3308,3.3308,3.3308,3.3308,3.3308,3.3308,3.3308,3.3308,3.3308,3.3308,3.3308,3.3069,3.2957,3.2943,3.2328,3.2061,3.2019,3.1387,3.112,3.1106,3.0881,3.0783,3.0783,3.0783,3.0923,3.112,3.112,3.1527,3.2061,3.2061,3.2455,3.2957,3.2957,3.3111,3.3308,3.3308,3.3308,3.3308,3.3308,3.3308,3.3308,3.3308,3.3308,3.3308,3.3308,3.3308,3.3308,3.3308,3.3308,3.3308,3.3308,3.3308,3.3469,3.3999,3.4087,3.4172,3.4375,3.4859,3.5203,3.5203,3.5382,3.5639,3.5974,3.5816,3.5704,3.5704,3.6195,3.6507,3.6507,3.6507,3.6507,3.6507,3.6507,3.6507,3.6507,3.6507,3.6507,3.6507,3.6507,3.6507,3.6507,3.6507,3.6507,3.4804,3.4875,3.5005,3.5749,3.6088,3.6244,3.6323,3.6023,3.567,3.5455,3.478,3.4424,3.5078,3.5233,3.5685,3.7058,3.705,3.6701,3.6261,3.5851,3.5093,3.3851,3.3588,3.3448,3.3308,3.3308,3.3308,3.3308,3.3308,3.3308,3.3308,3.3308,3.3308,3.3308,3.3308,3.3308,3.3308,3.3308,3.3308,3.3308,3.3308,3.3308,3.3294,3.2873,3.2676,3.2648,3.2047,3.178,3.1766,3.1569,3.1502,3.1502,3.1502,3.1612,3.178,3.178,3.2174,3.2676,3.2676,3.2943,3.3308,3.3308,3.3308,3.3308,3.3308,3.3308,3.3308,3.3308,3.3308,3.3308,3.3308,3.3308,3.3308,3.3308,3.3308,3.3308,3.3308,3.3308,3.3308,3.3308,3.3308,3.3417,3.3773,3.3842,3.3842,3.3842,3.4291,3.4643,3.4643,3.4808,3.4975,3.5155,3.535,3.5447,3.5447,3.5784,3.6069,3.6242,3.6085,3.6163,3.6492,3.6507,3.6507,3.6507,3.6507,3.6507,3.6507,3.6507,3.6507,3.6507,3.6507,3.6507,3.4899,3.4816,3.4889,3.5613,3.6253,3.6846,3.7378,3.6525,3.5569,3.5413,3.4704,3.4327,3.5069,3.5272,3.5751,3.7086,3.6513,3.5882,3.5821,3.4993,3.4142,3.3382,3.3308,3.3308,3.3308,3.3308,3.3308,3.3308,3.3308,3.3308,3.3308,3.3308,3.3308,3.3308,3.3308,3.3308,3.3308,3.3308,3.3308,3.3308,3.3308,3.3308,3.3308,3.3308,3.3308,3.328,3.2662,3.2412,3.237,3.1752,3.153,3.153,3.153,3.1878,3.2412,3.2412,3.2788,3.3308,3.3308,3.3308,3.3308,3.3308,3.3308,3.3308,3.3308,3.3308,3.3308,3.3308,3.3308,3.3308,3.3308,3.3308,3.3308,3.3308,3.3308,3.3308,3.3308,3.3308,3.3308,3.3308,3.3308,3.3308,3.3308,3.3308,3.3308,3.3308,3.3739,3.4087,3.4087,3.456,3.4677,3.4153,3.456,3.4892,3.4892,3.4892,3.5137,3.5655,3.5203,3.5382,3.6445,3.6492,3.6492,3.6507,3.6507,3.6507,3.6507,3.6523,3.6507,3.6507,3.6507,3.6507,3.4541,3.5033,3.5509,3.6248,3.6534,3.6918,3.8013,3.721,3.5902,3.4737,3.4689,3.5101,3.5833,3.6381,3.692,3.7612,3.7169,3.6492,3.5757,3.5011,3.4271,3.3591,3.3396,3.3308,3.3308,3.3308,3.3308,3.3308,3.3308,3.3308,3.3308,3.3308,3.3308,3.3308,3.3308,3.3308,3.3308,3.3308,3.3308,3.3308,3.3308,3.3308,3.3308,3.3308,3.3308,3.3294,3.3111,3.3027,3.3013,3.2831,3.276,3.276,3.276,3.2873,3.3027,3.3027,3.3154,3.3308,3.3308,3.3308,3.3308,3.3308,3.3308,3.3308,3.3308,3.3308,3.3308,3.3308,3.3308,3.3308,3.3308,3.3308,3.3308,3.3308,3.3308,3.3308,3.3308,3.3308,3.3308,3.3308,3.3308,3.3308,3.3308,3.3308,3.3308,3.3308,3.3434,3.3542,3.3542,3.4014,3.4136,3.358,3.4031,3.4341,3.4341,3.4677,3.4958,3.5137,3.4975,3.5219,3.591,3.5942,3.6116,3.6492,3.6953,3.72,3.72,3.7677,3.7923,3.7923,3.7923,3.7923,3.4139,3.488,3.5631,3.6139,3.6566,3.702,3.7557,3.7037,3.5984,3.4417,3.4696,3.5425,3.6157,3.6633,3.7054,3.751,3.698,3.6197,3.5337,3.4745,3.417,3.3539,3.3378,3.3308,3.3308,3.3308,3.3308,3.3308,3.3308,3.3308,3.3308,3.3153,3.3051,3.3051,3.2909,3.282,3.282,3.282,3.282,3.282,3.282,3.282,3.2838,3.2998,3.3051,3.3051,3.3051,3.3051,3.3051,3.3051,3.3051,3.3069,3.3241,3.3308,3.3308,3.3308,3.3308,3.3308,3.3308,3.3308,3.3308,3.3308,3.3308,3.3308,3.3308,3.3308,3.3308,3.3308,3.3477,3.3655,3.3655,3.3856,3.393,3.342,3.3308,3.3308,3.3308,3.3308,3.3308,3.3308,3.3308,3.3308,3.3308,3.3308,3.3308,3.3308,3.3308,3.3308,3.3308,3.3577,3.3667,3.3329,3.3458,3.3624,3.3848,3.3817,3.4054,3.4656,3.4499,3.4818,3.5775,3.6002,3.6474,3.7292,3.7692,3.7908,3.7908,3.8308,3.8514,3.8557,3.8792,3.8913,3.3716,3.4475,3.5441,3.5626,3.6539,3.7212,3.6467,3.6289,3.5882,3.4408,3.4745,3.5506,3.6189,3.6344,3.6524,3.6991,3.6182,3.5289,3.4645,3.4257,3.3842,3.3347,3.3308,3.3308,3.3308,3.3308,3.3276,3.3241,3.3255,3.3224,3.3188,3.2842,3.265,3.265,3.2291,3.2092,3.2092,3.2092,3.2092,3.2092,3.2092,3.2073,3.2073,3.2471,3.2668,3.2704,3.2704,3.2721,3.2757,3.2757,3.2757,3.2775,3.3122,3.3255,3.3255,3.3255,3.3255,3.3241,3.329,3.3308,3.329,3.3273,3.3255,3.3255,3.3276,3.329,3.3339,3.3395,3.3798,3.4233,3.4233,3.4639,3.4797,3.3622,3.3424,3.3459,3.3424,3.3424,3.3406,3.337,3.3356,3.3356,3.3356,3.3356,3.3356,3.3356,3.3356,3.3356,3.3356,3.3356,3.3356,3.3356,3.304,3.2999,3.3484,3.2748,3.2873,3.4322,3.3945,3.4402,3.6021,3.6443,3.7209,3.8394,3.8437,3.8468,3.8518,3.8514,3.8595,3.871,3.9266,3.9599,3.3301,3.4445,3.5518,3.6017,3.7162,3.7841,3.6581,3.6289,3.5882,3.4408,3.5153,3.6108,3.6257,3.6644,3.6883,3.6721,3.5629,3.4679,3.4274,3.3773,3.3434,3.3312,3.3308,3.3308,3.3308,3.3308,3.3171,3.2846,3.2828,3.2686,3.2377,3.2273,3.2237,3.2237,3.2146,3.2092,3.2092,3.2092,3.2092,3.2092,3.2092,3.1964,3.1721,3.2073,3.2399,3.2704,3.2704,3.2878,3.3171,3.3171,3.3171,3.3153,3.2913,3.2828,3.2828,3.2828,3.2828,3.2864,3.3188,3.3308,3.3241,3.2931,3.2828,3.2854,3.3015,3.3294,3.3628,3.4122,3.4339,3.4436,3.4436,3.4307,3.4107,3.3829,3.4284,3.4685,3.4321,3.4228,3.4149,3.383,3.3774,3.3774,3.3774,3.3774,3.3774,3.3774,3.3774,3.3774,3.3774,3.3774,3.3774,3.3774,3.3685,3.3685,3.3803,3.3628,3.3796,3.4445,3.4371,3.506,3.672,3.6381,3.6671,3.778,3.7896,3.815,3.8583,3.8676,3.9,3.9472,3.9587,4.0203,3.2796,3.4161,3.5626,3.6595,3.7614,3.7949,3.6211,3.6072,3.5882,3.4408,3.4991,3.5826,3.6034,3.6342,3.6454,3.6089,3.5209,3.4377,3.3791,3.3486,3.3308,3.3308,3.3308,3.3308,3.3308,3.3308,3.3122,3.2739,3.2704,3.2525,3.211,3.1946,3.1868,3.1868,3.1666,3.1574,3.1574,3.1574,3.1574,3.1574,3.1574,3.1482,3.1328,3.1685,3.1982,3.2164,3.2164,3.2286,3.2498,3.2498,3.2498,3.248,3.2435,3.2525,3.2704,3.2704,3.2704,3.2721,3.2931,3.2892,3.2696,3.2471,3.2735,3.3115,3.3026,3.3475,3.407,3.4175,3.4418,3.4637,3.4637,3.4701,3.4748,3.4748,3.4662,3.4517,3.427,3.4213,3.4156,3.3946,3.3908,3.3908,3.3908,3.3908,3.3908,3.3908,3.3908,3.3908,3.3908,3.3908,3.3908,3.3908,3.3715,3.3613,3.3613,3.3444,3.3609,3.4314,3.4361,3.4955,3.6324,3.603,3.6474,3.7813,3.7915,3.8,3.8076,3.8355,3.8648,3.9001,3.9802,4.0546,3.2348,3.3888,3.5689,3.6925,3.7653,3.7548,3.5591,3.5655,3.568,3.4082,3.4501,3.522,3.5463,3.5631,3.5598,3.5163,3.4703,3.4119,3.3399,3.3308,3.3308,3.3308,3.3308,3.3308,3.3308,3.3241,3.3033,3.2632,3.2543,3.2327,3.1928,3.1648,3.15,3.15,3.1161,3.1005,3.1005,3.1005,3.1005,3.1005,3.1005,3.1005,3.1005,3.1347,3.1519,3.1593,3.1593,3.1629,3.1685,3.1685,3.1685,3.1721,3.1928,3.2218,3.2507,3.2507,3.2507,3.2525,3.2579,3.2381,3.2119,3.2141,3.2695,3.3366,3.3155,3.3726,3.4397,3.4159,3.4474,3.4852,3.4852,3.5163,3.5467,3.5467,3.4706,3.4025,3.4103,3.4122,3.407,3.3992,3.4006,3.4006,3.4006,3.4006,3.4006,3.4006,3.4006,3.4006,3.4006,3.4006,3.4006,3.4006,3.3693,3.3476,3.3476,3.3165,3.3376,3.4299,3.4366,3.4761,3.5656,3.569,3.6288,3.7553,3.7738,3.7682,3.7453,3.7757,3.7988,3.8176,3.9686,4.0537,3.2189,3.3917,3.5575,3.6338,3.66,3.6305,3.4839,3.4992,3.4851,3.2791,3.3702,3.4755,3.4399,3.4477,3.4459,3.399,3.3671,3.3434,3.3326,3.3308,3.3308,3.3308,3.3308,3.3308,3.3308,3.2984,3.2614,3.2218,3.1909,3.1574,3.1161,3.1099,3.108,3.108,3.1024,3.1005,3.1005,3.1005,3.1005,3.1005,3.1005,3.1005,3.1005,3.1061,3.1272,3.1593,3.1593,3.1758,3.2019,3.2019,3.2019,3.2001,3.1758,3.1703,3.1758,3.1758,3.1758,3.1795,3.2073,3.2146,3.2118,3.2292,3.2449,3.2678,3.3317,3.3854,3.4333,3.4801,3.5001,3.5068,3.5068,3.4821,3.4564,3.4564,3.4446,3.443,3.4853,3.4948,3.4825,3.4423,3.4327,3.4327,3.4327,3.4327,3.4327,3.4327,3.4327,3.4327,3.4327,3.4327,3.4327,3.4327,3.4299,3.4258,3.4258,3.4204,3.4387,3.4945,3.4986,3.5196,3.5669,3.569,3.5629,3.5494,3.623,3.6828,3.7242,3.7183,3.7425,3.7946,3.8775,3.9737,3.2605,3.3924,3.5001,3.5664,3.6119,3.603,3.456,3.4437,3.422,3.2792,3.2716,3.2962,3.3178,3.3036,3.3,3.3362,3.3072,3.2901,3.3252,3.3308,3.3308,3.3308,3.3308,3.3206,3.2998,3.2793,3.2471,3.1868,3.1685,3.1421,3.1024,3.1005,3.1005,3.1005,3.1005,3.1005,3.1005,3.1005,3.1005,3.1005,3.1005,3.1005,3.1005,3.1005,3.1099,3.1254,3.1254,3.1347,3.1482,3.1482,3.1482,3.1463,3.1328,3.1402,3.1593,3.1593,3.1593,3.1611,3.1776,3.188,3.1938,3.2032,3.2676,3.3429,3.3552,3.4115,3.4712,3.4718,3.4722,3.4722,3.4722,3.4543,3.4397,3.4397,3.4397,3.446,3.4667,3.4722,3.466,3.4439,3.4397,3.4397,3.4397,3.4397,3.4397,3.4397,3.4397,3.4397,3.4397,3.4397,3.4397,3.4397,3.4397,3.4397,3.4397,3.4397,3.4481,3.4688,3.4722,3.4805,3.4956,3.4977,3.4895,3.4709,3.5338,3.5669,3.5622,3.5837,3.6067,3.6361,3.7222,3.8083,3.2597,3.3535,3.4231,3.4783,3.5329,3.543,3.416,3.3826,3.3517,3.2497,3.1722,3.1337,3.1708,3.1656,3.177,3.2413,3.2458,3.255,3.3013,3.3196,3.3308,3.3308,3.3206,3.3033,3.2721,3.2525,3.2182,3.1648,3.15,3.1328,3.1024,3.1005,3.1005,3.1005,3.1005,3.1005,3.1005,3.1005,3.1005,3.1005,3.1005,3.1005,3.1005,3.1005,3.1005,3.1005,3.1005,3.1005,3.1005,3.1005,3.1005,3.1005,3.1005,3.1179,3.1445,3.1445,3.1445,3.1445,3.1445,3.1598,3.1836,3.1967,3.2935,3.4025,3.3846,3.4331,3.4846,3.4501,3.4397,3.4397,3.4397,3.4397,3.4397,3.4397,3.4397,3.4397,3.4397,3.4397,3.4397,3.4397,3.4397,3.4397,3.4397,3.4528,3.458,3.4424,3.4528,3.4567,3.441,3.4397,3.4397,3.4397,3.4397,3.4397,3.4397,3.4397,3.4397,3.4397,3.4397,3.4397,3.4397,3.4397,3.4397,3.4397,3.4743,3.4805,3.4564,3.5031,3.5256,3.527,3.619,3.6917,3.1586,3.242,3.3324,3.3532,3.3828,3.3899,3.3369,3.3096,3.2581,3.1186,3.0807,3.0539,2.9879,3.0564,3.1088,3.0697,3.1626,3.2412,3.244,3.2943,3.3308,3.3308,3.2949,3.2721,3.2704,3.2073,3.1648,3.1593,3.1254,3.1024,3.1005,3.1005,3.1005,3.1005,3.1005,3.1005,3.1005,3.1005,3.1005,3.1005,3.1005,3.1005,3.1005,3.1005,3.1005,3.1005,3.1005,3.1005,3.1005,3.1005,3.1005,3.1005,3.1005,3.1005,3.1024,3.1024,3.1024,3.1024,3.1024,3.1384,3.1889,3.2476,3.3097,3.3732,3.4222,3.4392,3.4439,3.4418,3.4397,3.4397,3.4397,3.4397,3.4397,3.4397,3.4397,3.4397,3.4397,3.4397,3.4397,3.4397,3.4397,3.4397,3.4397,3.4868,3.5051,3.4489,3.4881,3.5051,3.4463,3.4397,3.4397,3.4397,3.4397,3.4397,3.4397,3.4397,3.4397,3.4397,3.4397,3.4397,3.4397,3.4397,3.4397,3.4397,3.4418,3.4626,3.5052,3.548,3.5669,3.5676,3.63,3.6917,3.1285,3.1941,3.2655,3.301,3.3513,3.3808,3.3528,3.2761,3.1961,3.137,3.0591,2.9915,2.9649,2.991,3.0241,3.0459,3.0879,3.1469,3.2269,3.236,3.2482,3.2871,3.2561,3.2237,3.2001,3.1758,3.1482,3.1235,3.108,3.1005,3.1005,3.1005,3.1005,3.1005,3.1005,3.1005,3.1005,3.1005,3.1005,3.1005,3.1005,3.1005,3.1005,3.1005,3.1005,3.1005,3.1005,3.1005,3.1005,3.1005,3.1005,3.1005,3.1005,3.1005,3.1005,3.1005,3.1005,3.1005,3.1005,3.1601,3.2411,3.262,3.3339,3.4149,3.4332,3.4397,3.4397,3.4397,3.4397,3.4397,3.4397,3.4397,3.4397,3.4397,3.4397,3.4397,3.4397,3.4397,3.4397,3.4397,3.4397,3.4515,3.4907,3.5155,3.5338,3.5469,3.5378,3.5221,3.4999,3.4633,3.4397,3.4397,3.4397,3.4397,3.4397,3.4397,3.4397,3.4397,3.4397,3.4397,3.4397,3.4397,3.4397,3.4397,3.4397,3.4481,3.4647,3.4791,3.4874,3.4874,3.5086,3.5497,3.0874,3.1341,3.1874,3.2456,3.2998,3.3419,3.3563,3.2747,3.1843,3.156,3.0656,2.984,2.9629,2.9587,2.9727,3.0134,3.0373,3.0746,3.1486,3.1712,3.1909,3.2185,3.2042,3.185,3.1611,3.1482,3.1291,3.1024,3.1005,3.1005,3.1005,3.1005,3.1005,3.1005,3.1005,3.1005,3.1005,3.1005,3.1005,3.1005,3.1005,3.1005,3.1005,3.1005,3.1005,3.1005,3.1005,3.1005,3.1005,3.1005,3.1005,3.1005,3.1005,3.1005,3.1005,3.1005,3.1005,3.1031,3.1209,3.1901,3.2725,3.2954,3.3639,3.4397,3.4397,3.4397,3.4397,3.4397,3.4397,3.4397,3.4397,3.4397,3.4397,3.4397,3.4397,3.4397,3.4397,3.4397,3.4397,3.4397,3.4554,3.4829,3.5221,3.5613,3.5926,3.6083,3.5966,3.573,3.5351,3.4946,3.462,3.441,3.4397,3.4397,3.4397,3.4397,3.4397,3.4397,3.4397,3.4397,3.4397,3.4397,3.4397,3.4397,3.4397,3.4397,3.4397,3.4397,3.4397,3.4397,3.4397,3.4816,0.0,0.0,0.0,3.1764,3.2188,3.2587,3.3383,3.2955,3.223,3.1612,3.0979,3.0331,2.9699,2.9587,2.9587,2.9587,3.0076,3.0357,3.0046,3.0988,3.1612,3.1289,3.1424,3.1547,3.1547,3.1222,3.1005,3.1005,3.1005,3.1005,3.1005,3.1005,3.1005,3.1005,3.1005,3.1005,3.1005,3.1005,3.1005,3.1005,3.1005,3.1005,3.1005,3.1005,3.1005,3.1005,3.1005,3.1005,3.1005,3.1005,3.1005,3.1005,3.1005,3.1005,3.1005,3.1005,3.1005,3.1065,3.1602,3.2195,3.279,3.3391,3.3953,3.4397,3.4397,3.4397,3.4397,3.4397,3.4397,3.4397,3.4397,3.4397,3.4397,3.4397,3.4397,3.4397,3.4397,3.4397,3.4397,3.4397,3.4881,3.5312,3.5312,3.6253,3.6815,3.624,3.6645,3.6606,3.5495,3.5312,3.5077,3.4489,3.441,3.4397,3.4397,3.4397,3.4397,3.4397,3.4397,3.4397,3.4397,3.4397,3.4397,3.4397,3.4397,3.4397,3.4397,3.4397,3.4397,3.4397,3.4397,3.5012,3.0173,0.0,0.0,0.0,0.0,0.0,3.2675,3.2559,3.223,3.1612,3.0979,3.0331,2.9699,2.9587,2.9509,2.9273,2.957,2.9883,2.999,3.0041,3.011,3.0198,3.0391,3.0506,3.0506,3.0813,3.1005,3.1005,3.1005,3.1005,3.1005,3.1005,3.1005,3.1005,3.1005,3.1005,3.1005,3.1005,3.1005,3.1005,3.1005,3.1005,3.1005,3.1005,3.1005,3.1005,3.1005,3.1005,3.1005,3.1005,3.1005,3.1005,3.1005,3.1005,3.1005,3.1005,3.1005,3.1065,3.1602,3.2195,3.279,3.3391,3.3953,3.4397,3.4397,3.4397,3.4397,3.4397,3.4397,3.4397,3.4397,3.4397,3.4397,3.4397,3.4397,3.4397,3.4397,3.4397,3.4397,3.4397,3.4881,3.5417,3.5809,3.6502,3.709,3.7364,3.7168,3.6894,3.6567,3.5809,3.5234,3.5064,3.4659,3.4397,3.4397,3.4397,3.4397,3.4397,3.4397,3.4397,3.4397,3.4397,3.4397,3.4397,3.4397,3.4397,3.4397,3.4397,3.4397,3.4397,3.4397,3.5012,3.0142,3.0244,3.0399,3.0476,0.0,0.0,3.1963,3.2216,3.2159,3.126,3.0991,3.0656,2.9755,2.9587,2.954,2.9336,2.9352,2.9351,2.9225,2.9193,2.9194,2.9216,2.9547,2.9784,2.9784,3.0294,3.062,3.062,3.0856,3.1005,3.1005,3.1005,3.1005,3.1005,3.1005,3.1005,3.1005,3.1005,3.1005,3.1005,3.1005,3.1005,3.1005,3.1005,3.1005,3.1005,3.1005,3.1005,3.1005,3.1005,3.1005,3.1005,3.1005,3.1005,3.1005,3.1005,3.1005,3.1123,3.1895,3.2411,3.2849,3.3652,3.4136,3.4397,3.4397,3.4397,3.4397,3.4397,3.4397,3.4397,3.4397,3.4397,3.4397,3.4397,3.4397,3.4397,3.4397,3.4397,3.4397,3.4397,3.5064,3.573,3.6057,3.6815,3.7495,3.7848,3.7599,3.7286,3.7037,3.6423,3.5822,3.5351,3.4986,3.4672,3.441,3.4397,3.4397,3.4397,3.4397,3.4397,3.4397,3.4397,3.4397,3.4397,3.4397,3.4397,3.4397,3.4397,3.4397,3.4397,3.4397,3.4894,3.0142,2.9944,2.9886,3.0293,3.0457,0.0,3.1246,3.1864,3.1946,3.0704,3.0914,3.0956,2.9717,2.9493,2.9477,2.943,2.9178,2.878,2.8227,2.8539,2.8677,2.8333,2.8834,2.9201,2.9201,2.9688,3.0009,3.0009,3.0568,3.0895,3.0895,3.0966,3.1005,3.1005,3.1005,3.1005,3.1005,3.1005,3.1005,3.1005,3.1005,3.1005,3.1005,3.1005,3.1005,3.1005,3.1005,3.1005,3.1005,3.1005,3.1005,3.1005,3.1005,3.1005,3.1005,3.1005,3.1005,3.1162,3.2228,3.2633,3.2868,3.3953,3.4345,3.4397,3.4397,3.4397,3.4397,3.4397,3.4397,3.4397,3.4397,3.4397,3.4397,3.4397,3.4397,3.4397,3.4397,3.4397,3.4397,3.4397,3.5325,3.6109,3.6109,3.7103,3.79,3.79,3.79,3.7704,3.7168,3.705,3.6619,3.56,3.5378,3.5077,3.4541,3.4437,3.4397,3.4397,3.4397,3.4397,3.4397,3.4397,3.4397,3.4397,3.4397,3.4397,3.4397,3.4397,3.4397,3.4397,3.4397,3.4724,3.0111,2.9866,2.9662,2.9757,3.0134,0.0,3.0668,3.1204,3.1391,3.0327,3.0192,3.0002,2.8981,2.8796,2.87,2.8438,2.8341,2.8341,2.8487,2.8369,2.8107,2.771,2.8203,2.8573,2.8573,2.9109,2.9462,2.9462,2.998,3.0288,3.0288,3.0738,3.1005,3.1005,3.1005,3.1005,3.1005,3.1005,3.1005,3.1005,3.1005,3.1005,3.1005,3.1005,3.1005,3.1005,3.1005,3.1005,3.1005,3.1005,3.1005,3.1005,3.1005,3.1005,3.1005,3.1005,3.1005,3.1097,3.1751,3.2287,3.2836,3.3522,3.4045,3.4397,3.4397,3.4397,3.4397,3.4397,3.4397,3.4397,3.4397,3.4397,3.4397,3.4397,3.4397,3.4397,3.4397,3.4397,3.4397,3.4397,3.5325,3.6109,3.6109,3.7103,3.79,3.79,3.79,3.7861,3.7743,3.7299,3.692,3.6698,3.5848,3.5247,3.5129,3.4672,3.4397,3.4397,3.4397,3.4397,3.4397,3.4397,3.4397,3.4397,3.4397,3.4397,3.4397,3.4397,3.4397,3.4397,3.4397,3.4724,3.0126,2.9897,2.9682,2.9618,2.9826,0.0,0.0,3.0413,3.0515,2.9711,2.9659,2.9507,2.8744,2.8603,2.8538,2.839,2.821,2.8161,2.8324,2.8033,2.7736,2.7523,2.7768,2.7954,2.7954,2.8508,2.8978,2.9279,2.9549,2.9706,2.9706,3.0236,3.0537,3.0537,3.083,3.1005,3.1005,3.1005,3.1005,3.1005,3.1005,3.1005,3.1005,3.1005,3.1005,3.1005,3.1005,3.1005,3.1005,3.1005,3.1005,3.1005,3.1005,3.1005,3.1005,3.1005,3.1005,3.1065,3.1602,3.2195,3.279,3.3391,3.3953,3.4397,3.4397,3.4397,3.4397,3.4397,3.4397,3.4397,3.4397,3.4397,3.4397,3.4397,3.4397,3.4397,3.4397,3.4397,3.4397,3.4397,3.5103,3.5796,3.6057,3.6854,3.7547,3.7861,3.79,3.79,3.79,3.7639,3.7338,3.7037,3.6488,3.5913,3.5338,3.5012,3.4724,3.441,3.4397,3.4397,3.4397,3.4397,3.4397,3.4397,3.4397,3.4397,3.4397,3.4397,3.4397,3.4397,3.4397,3.4554,3.0126,2.9943,2.973,2.9634,2.9587,2.9587,0.0,0.0,0.0,2.9132,2.9179,2.9124,2.849,2.8392,2.8392,2.8392,2.8148,2.798,2.798,2.7703,2.749,2.749,2.749,2.749,2.749,2.7941,2.8429,2.8926,2.9057,2.9122,2.9122,2.9753,3.01,3.01,3.0699,3.1005,3.1005,3.1005,3.1005,3.1005,3.1005,3.1005,3.1005,3.1005,3.1005,3.1005,3.1005,3.1005,3.1005,3.1005,3.1005,3.1005,3.1005,3.1005,3.1005,3.1005,3.1005,3.1052,3.1503,3.2104,3.2777,3.326,3.3862,3.4397,3.4397,3.4397,3.4397,3.4397,3.4397,3.4397,3.4397,3.4397,3.4397,3.4397,3.4397,3.4397,3.4397,3.4397,3.4397,3.4397,3.4789,3.5325,3.5992,3.6606,3.7207,3.7808,3.79,3.79,3.79,3.79,3.7717,3.7233,3.7077,3.6632,3.5704,3.543,3.509,3.4607,3.4463,3.4397,3.4397,3.4397,3.4397,3.4397,3.4397,3.4397,3.4397,3.4397,3.4397,3.4397,3.4397,3.4397,3.0096,2.988,2.9618,2.9602,2.9587,2.9587,2.9587,0.0,2.9451,2.8794,0.0,2.849,2.7752,0.0,0.0,2.7623,2.759,2.757,2.757,2.7536,2.749,2.749,2.749,2.749,2.749,2.7555,2.7637,2.7702,2.819,2.8494,2.8494,2.9518,3.01,3.01,3.0699,3.1005,3.1005,3.1005,3.1005,3.1005,3.1005,3.1005,3.1005,3.1005,3.1005,3.1005,3.1005,3.1005,3.1005,3.1005,3.1005,3.1005,3.1005,3.1005,3.1005,3.1005,3.1005,3.1018,3.1065,3.1797,3.2698,3.2777,3.3522,3.4397,3.4397,3.4397,3.4397,3.4397,3.4397,3.4397,3.4397,3.4397,3.4397,3.4397,3.4397,3.4397,3.4397,3.4397,3.4397,3.4397,3.445,3.4842,3.5913,3.6606,3.7207,3.7808,3.79,3.79,3.79,3.79,3.7874,3.7808,3.7325,3.6946,3.6828,3.5874,3.5273,3.5195,3.4698,3.4397,3.4397,3.4397,3.4397,3.4397,3.4397,3.4397,3.4397,3.4397,3.4397,3.4397,3.4397,3.4397,3.0096,2.9865,2.9587,2.9587,2.9587,2.9587,2.9587,2.9305,2.894,2.8651,0.0,0.0,0.0,0.0,0.0,0.0,2.749,2.749,2.749,2.7222,2.7138,2.7456,2.749,2.749,2.749,2.749,2.749,2.749,2.7729,2.7889,2.7889,2.9,2.964,2.964,3.0516,3.1005,3.1005,3.1005,3.1005,3.1005,3.1005,3.1005,3.1005,3.1005,3.1005,3.1005,3.1005,3.1005,3.1005,3.1005,3.1005,3.1005,3.1005,3.1005,3.1005,3.1005,3.1005,3.1005,3.1005,3.1751,3.2803,3.347,3.4005,3.4397,3.4397,3.4397,3.4397,3.4397,3.4397,3.4397,3.4397,3.4397,3.4397,3.4397,3.4397,3.4397,3.4397,3.4397,3.4397,3.4397,3.4397,3.4659,3.5495,3.6109,3.6802,3.7756,3.79,3.79,3.79,3.79,3.79,3.79,3.7678,3.7377,3.7037,3.6567,3.6005,3.5338,3.4724,3.4397,3.4397,3.4397,3.4397,3.4397,3.4397,3.4397,3.4397,3.4397,3.4397,3.4397,3.4397,3.4397,3.0111,2.9882,2.9649,2.9602,2.9587,2.9587,2.9587,2.9147,2.87,2.8619,2.8099,0.0,0.0,0.0,2.749,2.749,0.0,2.749,2.749,2.7036,2.6901,2.7436,2.749,2.749,2.749,2.749,2.749,2.749,2.749,2.749,2.749,2.849,2.9057,2.9057,3.015,3.0751,3.0751,3.0927,3.1005,3.1005,3.1005,3.1005,3.1005,3.1005,3.1005,3.1005,3.1005,3.1005,3.1005,3.1005,3.1005,3.1005,3.1005,3.1005,3.1005,3.1005,3.1005,3.1005,3.1005,3.1751,3.2881,3.4031,3.4397,3.4397,3.4397,3.4397,3.4356,3.4189,3.4251,3.4356,3.4168,3.4272,3.4397,3.4397,3.4397,3.4397,3.4397,3.4397,3.4397,3.4397,3.4397,3.458,3.5195,3.5744,3.6449,3.7495,3.7795,3.79,3.79,3.79,3.79,3.79,3.79,3.773,3.7286,3.7103,3.6515,3.5365,3.4724,3.4397,3.4397,3.4397,3.4397,3.4397,3.4397,3.4397,3.4397,3.4397,3.4397,3.4397,3.4397,3.4397,3.0142,2.9944,2.9761,2.9634,2.9587,2.9587,2.9587,2.932,2.8988,2.8667,2.8324,2.7964,2.757,2.749,2.749,2.749,2.749,0.0,0.0,2.7036,2.6901,2.7436,2.749,2.749,2.749,2.749,2.749,2.749,2.749,2.749,2.749,2.8085,2.8429,2.8429,2.9531,3.0127,3.0127,3.0712,3.1005,3.1005,3.1005,3.1005,3.1005,3.1005,3.1005,3.1005,3.1005,3.1005,3.1005,3.1005,3.1005,3.1005,3.1005,3.1005,3.1005,3.1005,3.1005,3.1005,3.1005,3.1751,3.2881,3.4031,3.4397,3.4397,3.4397,3.4397,3.4272,3.3611,3.3894,3.4251,3.3611,3.3915,3.4397,3.4397,3.4397,3.4397,3.4397,3.4397,3.4397,3.4397,3.4397,3.458,3.5195,3.5744,3.6305,3.6946,3.7534,3.79,3.79,3.79,3.79,3.79,3.79,3.79,3.7874,3.7338,3.6515,3.5365,3.4724,3.4397,3.4397,3.4397,3.4397,3.4397,3.4397,3.4397,3.4397,3.4397,3.4397,3.4397,3.4397,3.4397,3.0111,2.9882,2.9651,2.9602,2.9587,2.9587,2.9587,2.9162,2.8732,2.8619,2.8115,2.7653,2.7536,2.749,2.749,2.749,2.749,2.749,0.0,2.7036,2.6491,2.5918,2.6208,2.6581,2.6935,2.6969,2.7121,2.7473,2.749,2.749,2.749,2.8072,2.8403,2.8403,2.9505,3.01,3.01,3.0699,3.1005,3.1005,3.1005,3.1005,3.1005,3.1005,3.1005,3.1005,3.1005,3.1005,3.1005,3.1005,3.1005,3.1005,3.1005,3.1005,3.1005,3.1005,3.1005,3.111,3.1868,3.2391,3.2881,3.4031,3.4397,3.4397,3.4397,3.4084,3.3683,3.3462,3.3202,3.2963,3.2738,3.3202,3.3738,3.3738,3.3738,3.3738,3.3738,3.3738,3.3738,3.3738,3.3738,3.379,3.4016,3.4369,3.519,3.675,3.7521,3.79,3.79,3.79,3.79,3.79,3.79,3.79,3.79,3.7351,3.6671,3.5874,3.5299,3.4816,3.441,3.4397,3.4397,3.4397,3.4397,3.4397,3.4397,3.4397,3.4397,3.4397,3.4397,3.4397,3.0111,2.9882,2.9651,2.9602,2.9587,2.9587,2.9587,2.9083,2.8603,2.8603,2.8003,2.749,2.749,2.749,2.749,2.749,2.749,2.7373,0.0,2.6633,2.5995,2.4838,2.5581,2.6324,2.6675,2.6867,2.7121,2.7473,2.749,2.749,2.749,2.7859,2.8072,2.8072,2.8995,2.9596,2.9805,3.0398,3.079,3.1005,3.1005,3.1005,3.1005,3.1005,3.1005,3.1005,3.1005,3.1005,3.1005,3.1005,3.1005,3.1005,3.1005,3.1005,3.1005,3.1005,3.0842,3.0808,3.1959,3.2187,3.2213,3.3604,3.4042,3.4084,3.4335,3.3937,3.3356,3.3074,3.2673,3.2249,3.2008,3.2479,3.3009,3.3009,3.3009,3.3009,3.3009,3.3009,3.3009,3.3009,3.3009,3.3009,3.3009,3.3501,3.4355,3.5698,3.6805,3.7482,3.7482,3.7726,3.7785,3.7505,3.7726,3.79,3.79,3.7351,3.6737,3.6136,3.56,3.5025,3.4424,3.4397,3.4502,3.4711,3.4502,3.4502,3.4724,3.4502,3.4397,3.4397,3.4397,3.4397]}]]